[[{"header":{"parameterUnit":"m.s-1","parameterCategory":1,"la1":31.0,"la2":29.5877,"lo1":-88.7671,"lo2":-86.6584,"dy":0.0162,"dx":0.0185,"nx":115,"ny":88,"refTime":"2024-05-10T12:00:00:Z","depth":0,"parameterNumber":2,"parameterNumberName":"U-component_of_WINDS"},"data":[0.0,0.0,0.0,0.0,0.0,0.0,0.0,0.0,0.0,0.0,0.0,0.0,0.0,0.0,0.0,0.0,0.0,0.0,0.0,0.0,0.0,0.0,0.0,0.0,0.0,0.0,0.0,0.0,0.0,0.0,0.0,0.0,0.0,0.0,0.0,0.0,0.0,0.0,0.0,0.0,0.0,0.0,0.0,0.0,0.0,0.0,0.0,0.0,0.0,0.0,0.0,0.0,0.0,0.0,0.0,0.0,0.0,0.0,0.0,0.0,0.0,0.0,0.0,0.0,0.0,0.0,0.0,0.0,0.0,0.0,0.0,0.0,0.0,0.0,0.0,0.0,0.0,0.0,0.0,0.0,0.0,0.0,0.0,0.0,0.0,0.0,0.0,0.0,0.0,0.0,0.0,0.0,0.0,0.0,0.0,0.0,0.0,0.0,0.0,0.0,0.0,0.0,0.0,0.0,0.0,0.0,0.0,0.0,0.0,0.0,0.0,0.0,0.0,0.0,0.0,0.0,0.0,0.0,0.0,0.0,0.0,0.0,0.0,0.0,0.0,0.0,0.0,0.0,0.0,0.0,0.0,0.0,0.0,0.0,0.0,0.0,0.0,0.0,0.0,0.0,0.0,0.0,0.0,0.0,0.0,0.0,0.0,0.0,0.0,0.0,0.0,0.0,0.0,0.0,0.0,0.0,0.0,0.0,0.0,0.0,0.0,0.0,0.0,0.0,0.0,0.0,0.0,0.0,0.0,0.0,0.0,0.0,0.0,0.0,0.0,0.0,0.0,0.0,0.0,0.0,0.0,0.0,0.0,0.0,0.0,0.0,0.0,0.0,0.0,0.0,0.0,0.0,0.0,0.0,0.0,0.0,0.0,0.0,0.0,0.0,0.0,0.0,0.0,0.0,0.0,0.0,0.0,0.0,0.0,0.0,0.0,0.0,0.0,0.0,0.0,0.0,0.0,0.0,0.0,0.0,0.0,0.0,0.0,0.0,0.0,0.0,0.0,0.0,0.0,0.0,0.0,0.0,0.0,0.0,0.0,0.0,0.0,0.0,0.0,0.0,0.0,0.0,0.0,0.0,0.0,0.0,0.0,0.0,0.0,0.0,0.0,0.0,0.0,0.0,0.0,0.0,0.0,0.0,0.0,0.0,0.0,0.0,0.0,0.0,0.0,0.0,0.0,0.0,0.0,0.0,0.0,0.0,0.0,0.0,0.0,0.0,0.0,0.0,0.0,0.0,0.0,0.0,0.0,0.0,0.0,0.0,0.0,0.0,0.0,0.0,0.0,0.0,0.0,0.0,0.0,0.0,0.0,0.0,0.0,0.0,0.0,0.0,0.0,0.0,0.0,0.0,0.0,0.0,0.0,0.0,0.0,0.0,0.0,0.0,0.0,0.0,0.0,0.0,0.0,0.0,0.0,0.0,0.0,0.0,0.0,0.0,0.0,0.0,0.0,0.0,0.0,0.0,0.0,0.0,0.0,0.0,0.0,0.0,0.0,0.0,0.0,0.0,0.0,0.0,0.0,0.0,0.0,0.0,0.0,0.0,0.0,0.0,0.0,0.0,0.0,0.0,0.0,0.0,0.0,0.0,0.0,0.0,0.0,0.0,0.0,0.0,0.0,0.0,0.0,0.0,0.0,0.0,0.0,0.0,0.0,0.0,0.0,0.0,0.0,0.0,0.0,0.0,0.0,0.0,0.0,0.0,0.0,0.0,0.0,0.0,0.0,0.0,0.0,0.0,0.0,0.0,0.0,0.0,0.0,0.0,0.0,0.0,0.0,0.0,0.0,0.0,0.0,0.0,0.0,0.0,0.0,0.0,0.0,0.0,0.0,0.0,0.0,0.0,0.0,0.0,0.0,0.0,0.0,0.0,0.0,0.0,0.0,0.0,0.0,0.0,0.0,0.0,0.0,0.0,0.0,0.0,0.0,0.0,0.0,0.0,0.0,0.0,0.0,0.0,0.0,0.0,0.0,0.0,0.0,0.0,0.0,0.0,0.0,0.0,0.0,0.0,0.0,0.0,0.0,0.0,0.0,0.0,0.0,0.0,0.0,0.0,0.0,0.0,0.0,0.0,0.0,0.0,0.0,0.0,0.0,0.0,0.0,0.0,0.0,0.0,0.0,0.0,0.0,0.0,0.0,0.0,0.0,0.0,0.0,0.0,0.0,0.0,0.0,0.0,0.0,0.0,0.0,0.0,0.0,0.0,0.0,0.0,0.0,0.0,0.0,0.0,0.0,0.0,0.0,0.0,0.0,0.0,0.0,0.0,0.0,0.0,0.0,0.0,0.0,0.0,0.0,0.0,0.0,0.0,0.0,0.0,0.0,0.0,0.0,0.0,0.0,0.0,0.0,0.0,0.0,0.0,0.0,0.0,0.0,0.0,0.0,0.0,0.0,0.0,0.0,0.0,0.0,0.0,0.0,0.0,0.0,0.0,0.0,0.0,0.0,0.0,0.0,0.0,0.0,0.0,0.0,0.0,0.0,0.0,0.0,0.0,0.0,0.0,0.0,0.0,0.0,0.0,0.0,0.0,0.0,0.0,0.0,0.0,0.0,0.0,0.0,0.0,0.0,0.0,0.0,0.0,0.0,0.0,0.0,0.0,0.0,0.0,0.0,0.0,0.0,0.0,0.0,0.0,0.0,0.0,0.0,0.0,0.0,0.0,0.0,0.0,0.0,0.0,0.0,0.0,0.0,0.0,0.0,0.0,0.0,0.0,0.0,0.0,0.0,0.0,0.0,0.0,0.0,0.0,0.0,0.0,0.0,0.0,0.0,0.0,0.0,0.0,0.0,0.0,0.0,0.0,0.0,0.0,0.0,0.0,0.0,0.0,0.0,0.0,0.0,0.0,0.0,0.0,0.0,0.0,0.0,0.0,0.0,0.0,0.0,0.0,0.0,0.0,0.0,0.0,0.0,0.0,0.0,0.0,0.0,0.0,0.0,0.0,0.0,0.0,0.0,0.0,0.0,0.0,0.0,0.0,0.0,0.0,0.0,0.0,0.0,0.0,0.0,0.0,0.0,0.0,0.0,0.0,0.0,0.0,0.0,0.0,0.0,0.0,0.0,0.0,0.0,0.0,0.0,0.0,0.0,0.0,0.0,0.0,0.0,0.0,0.0,0.0,0.0,0.0,0.0,0.0,0.0,0.0,0.0,0.0,0.0,0.0,0.0,0.0,0.0,0.0,0.0,0.0,0.0,0.0,0.0,0.0,0.0,0.0,0.0,0.0,0.0,0.0,0.0,0.0,0.0,0.0,0.0,0.0,0.0,0.0,0.0,0.0,0.0,0.0,0.0,0.0,0.0,0.0,0.0,0.0,0.0,0.0,0.0,0.0,0.0,0.0,0.0,0.0,0.0,0.0,0.0,0.0,0.0,0.0,0.0,0.0,0.0,0.0,0.0,0.0,0.0,0.0,0.0,0.0,0.0,0.0,0.0,0.0,0.0,0.0,0.0,0.0,0.0,0.0,0.0,0.0,0.0,0.0,0.0,0.0,0.0,0.0,0.0,0.0,0.0,0.0,0.0,0.0,0.0,0.0,0.0,0.0,0.0,0.0,0.0,0.0,0.0,0.0,0.0,0.0,0.0,0.0,0.0,0.0,0.0,0.0,0.0,0.0,0.0,0.0,0.0,0.0,0.0,0.0,0.0,0.0,0.0,0.0,0.0,0.0,0.0,0.0,0.0,0.0,0.0,0.0,0.0,0.0,0.0,0.0,0.0,0.0,0.0,0.0,0.0,0.0,0.0,0.0,0.0,0.0,0.0,0.0,0.0,0.0,0.0,0.0,0.0,0.0,0.0,0.0,0.0,0.0,0.0,0.0,0.0,0.0,0.0,0.0,0.0,0.0,0.0,0.0,0.0,0.0,0.0,0.0,0.0,0.0,0.0,0.0,0.0,0.0,0.0,0.0,0.0,0.0,0.0,0.0,0.0,0.0,0.0,0.0,0.0,0.0,0.0,0.0,0.0,0.0,0.0,0.0,0.0,0.0,0.0,0.0,0.0,0.0,0.0,0.0,0.0,0.0,0.0,0.0,0.0,0.0,0.0,0.0,0.0,0.0,0.0,0.0,0.0,0.0,0.0,0.0,0.0,0.0,0.0,0.0,0.0,0.0,0.0,0.0,0.0,0.0,0.0,0.0,0.0,0.0,0.0,0.0,0.0,0.0,0.0,0.0,0.0,0.0,0.0,0.0,0.0,0.0,0.0,0.0,0.0,0.0,0.0,0.0,0.0,0.0,0.0,0.0,0.0,0.0,0.0,0.0,-0.4868,0.0,0.0,0.0,0.0,0.0,0.0,0.0,0.0,0.0,0.0,0.0,0.0,0.0,0.0,0.0,0.0,0.0,0.0,0.0,0.0,0.0,0.0,0.0,0.0,0.0,0.0,0.0,0.0,0.0,0.0,0.0,0.0,0.0,0.0,0.0,0.0,0.0,0.0,0.0,0.0,0.0,0.0,0.0,0.0,0.0,0.0,0.0,0.0,0.0,0.0,0.0,0.0,0.0,0.0,0.0,0.0,0.0,0.0,0.0,0.0,0.0,0.0,0.0,0.0,0.0,0.0,0.0,0.0,0.0,0.0,0.0,0.0,0.0,0.0,0.0,0.0,0.0,0.0,0.0,0.0,0.0,0.0,0.0,0.0,0.0,0.0,0.0,0.0,0.0,0.0,0.0,0.0,0.0,0.0,0.0,0.0,0.0,0.0,0.0,0.0,0.0,0.0,0.0,0.0,0.0,0.0,0.0,0.0,0.0,0.0,-0.5129,-0.5129,-0.5129,-0.5175,-0.5271,0.0,0.0,0.0,0.0,0.0,0.0,0.0,0.0,0.0,0.0,0.0,0.0,0.0,0.0,0.0,0.0,0.0,0.0,0.0,0.0,0.0,0.0,0.0,0.0,0.0,0.0,0.0,0.0,0.0,0.0,0.0,0.0,0.0,0.0,0.0,0.0,0.0,0.0,0.0,0.0,0.0,0.0,0.0,0.0,0.0,0.0,0.0,0.0,0.0,0.0,0.0,0.0,0.0,0.0,0.0,0.0,0.0,0.0,0.0,0.0,0.0,0.0,0.0,0.0,0.0,0.0,0.0,0.0,0.0,0.0,0.0,0.0,0.0,0.0,0.0,0.0,0.0,0.0,0.0,0.0,0.0,0.0,0.0,0.0,0.0,0.0,0.0,0.0,0.0,0.0,0.0,0.0,0.0,0.0,0.0,0.0,0.0,0.0,0.0,0.0,0.0,0.0,0.0,0.0,0.0,0.0,0.0,0.0,0.0,0.0,0.0,0.0,-0.5461,-0.5534,-0.5679,0.0,0.0,0.0,0.0,0.0,0.0,0.0,0.0,0.0,0.0,0.0,0.0,0.0,0.0,0.0,0.0,0.0,0.0,0.0,0.0,0.0,0.0,0.0,0.0,0.0,0.0,0.0,0.0,0.0,0.0,0.0,0.0,0.0,0.0,0.0,0.0,0.0,0.0,0.0,0.0,0.0,0.0,0.0,0.0,0.0,0.0,0.0,0.0,0.0,0.0,0.0,0.0,0.0,0.0,0.0,0.0,0.0,0.0,0.0,0.0,0.0,0.0,0.0,0.0,0.0,0.0,0.0,0.0,0.0,0.0,0.0,0.0,0.0,0.0,0.0,0.0,0.0,0.0,0.0,0.0,0.0,0.0,0.0,0.0,0.0,0.0,0.0,0.0,0.0,0.0,0.0,0.0,0.0,0.0,0.0,0.0,0.0,0.0,0.0,0.0,0.0,0.0,0.0,0.0,0.0,0.0,0.0,0.0,0.0,0.0,-0.466,-0.48,-0.5063,0.0,-0.5826,0.0,0.0,0.0,0.0,0.0,0.0,0.0,0.0,0.0,0.0,0.0,0.0,0.0,0.0,0.0,0.0,0.0,0.0,0.0,0.0,0.0,0.0,0.0,0.0,0.0,0.0,0.0,0.0,0.0,0.0,0.0,0.0,0.0,0.0,0.0,0.0,0.0,0.0,0.0,0.0,0.0,0.0,0.0,0.0,0.0,0.0,0.0,0.0,0.0,0.0,0.0,0.0,0.0,0.0,0.0,0.0,0.0,0.0,0.0,0.0,0.0,0.0,0.0,0.0,0.0,0.0,0.0,0.0,0.0,0.0,0.0,0.0,0.0,0.0,0.0,0.0,0.0,0.0,0.0,0.0,0.0,0.0,0.0,0.0,0.0,0.0,0.0,0.0,0.0,0.0,0.0,0.0,0.0,0.0,0.0,0.0,0.0,0.0,0.0,0.0,0.0,0.0,0.0,0.0,0.0,0.0,0.0,0.0,0.0,0.0,-0.5256,-0.5099,-0.496,-0.5151,0.0,0.0,0.0,0.0,0.0,0.0,0.0,0.0,0.0,0.0,0.0,0.0,0.0,0.0,0.0,0.0,0.0,0.0,0.0,0.0,0.0,0.0,0.0,0.0,0.0,0.0,0.0,0.0,0.0,0.0,0.0,0.0,0.0,0.0,0.0,0.0,0.0,0.0,0.0,0.0,0.0,0.0,0.0,0.0,0.0,0.0,0.0,0.0,0.0,0.0,0.0,0.0,0.0,0.0,0.0,0.0,0.0,0.0,0.0,0.0,0.0,0.0,0.0,0.0,0.0,0.0,0.0,0.0,0.0,0.0,0.0,0.0,0.0,0.0,0.0,0.0,0.0,0.0,0.0,0.0,0.0,0.0,0.0,0.0,0.0,0.0,0.0,0.0,0.0,0.0,0.0,0.0,0.0,0.0,0.0,0.0,0.0,0.0,0.0,0.0,0.0,0.0,0.0,0.0,0.0,0.0,0.0,0.0,0.0,0.0,-0.5394,-0.5278,-0.5136,-0.4643,-0.4786,-0.5555,0.0,0.0,0.0,0.0,0.0,0.0,0.0,0.0,0.0,0.0,0.0,0.0,0.0,0.0,0.0,0.0,0.0,0.0,0.0,0.0,0.0,0.0,0.0,0.0,0.0,0.0,0.0,0.0,0.0,0.0,0.0,0.0,0.0,0.0,0.0,0.0,0.0,0.0,0.0,0.0,0.0,0.0,0.0,0.0,0.0,0.0,0.0,0.0,0.0,0.0,0.0,0.0,0.0,0.0,0.0,0.0,0.0,0.0,0.0,0.0,0.0,0.0,0.0,0.0,0.0,0.0,0.0,0.0,0.0,0.0,0.0,0.0,0.0,0.0,0.0,0.0,0.0,0.0,0.0,0.0,0.0,0.0,0.0,0.0,0.0,0.0,0.0,0.0,0.0,0.0,0.0,0.0,0.0,0.0,0.0,0.0,0.0,0.0,0.0,0.0,0.0,0.0,0.0,0.0,0.0,0.0,0.0,0.0,-0.514,-0.4352,-0.4131,-0.4525,-0.398,-0.4261,0.0,0.0,0.0,0.0,0.0,0.0,0.0,0.0,0.0,0.0,0.0,0.0,0.0,0.0,0.0,0.0,0.0,0.0,0.0,0.0,0.0,0.0,0.0,0.0,0.0,0.0,0.0,0.0,0.0,0.0,0.0,0.0,0.0,0.0,0.0,0.0,0.0,0.0,0.0,0.0,0.0,0.0,0.0,0.0,0.0,0.0,0.0,0.0,0.0,0.0,0.0,0.0,0.0,0.0,0.0,0.0,0.0,0.0,0.0,0.0,0.0,0.0,0.0,0.0,0.0,0.0,0.0,0.0,0.0,0.0,0.0,0.0,0.0,0.0,0.0,0.0,0.0,0.0,0.0,0.0,0.0,0.0,0.0,0.0,0.0,0.0,0.0,0.0,0.0,0.0,0.0,0.0,0.0,0.0,0.0,0.0,0.0,0.0,0.0,0.0,0.0,0.0,0.0,0.0,0.0,0.0,0.0,0.0,0.0,-0.4317,-0.4039,-0.4166,-0.4767,-0.3946,-0.4013,0.0,0.0,0.0,0.0,0.0,0.0,0.0,0.0,0.0,0.0,0.0,0.0,0.0,0.0,0.0,0.0,0.0,0.0,0.0,0.0,0.0,0.0,0.0,0.0,0.0,0.0,0.0,0.0,0.0,0.0,0.0,0.0,0.0,0.0,0.0,0.0,0.0,0.0,0.0,0.0,0.0,0.0,0.0,0.0,0.0,0.0,0.0,0.0,0.0,0.0,0.0,0.0,0.0,0.0,0.0,0.0,0.0,0.0,0.0,0.0,0.0,0.0,0.0,0.0,0.0,0.0,0.0,0.0,0.0,0.0,0.0,0.0,0.0,0.0,0.0,0.0,0.0,0.0,0.0,0.0,0.0,0.0,0.0,0.0,0.0,0.0,0.0,0.0,0.0,0.0,0.0,0.0,0.0,0.0,0.0,0.0,0.0,0.0,0.0,0.0,0.0,0.0,0.0,0.0,0.0,0.0,0.0,0.0,0.0,-0.3961,0.0,-0.4386,-0.4713,-0.4032,-0.3982,0.0,0.0,0.0,0.0,0.0,0.0,0.0,0.0,0.0,0.0,0.0,0.0,0.0,0.0,0.0,0.0,0.0,0.0,0.0,0.0,0.0,0.0,0.0,0.0,0.0,0.0,0.0,0.0,0.0,0.0,0.0,0.0,0.0,0.0,0.0,0.0,0.0,0.0,0.0,0.0,0.0,0.0,0.0,0.0,0.0,0.0,0.0,0.0,0.0,0.0,0.0,0.0,0.0,0.0,0.0,0.0,0.0,0.0,0.0,0.0,0.0,0.0,0.0,0.0,0.0,0.0,0.0,0.0,0.0,0.0,0.0,0.0,0.0,0.0,0.0,0.0,0.0,0.0,0.0,0.0,0.0,0.0,0.0,0.0,0.0,0.0,0.0,0.0,0.0,0.0,0.0,0.0,0.0,0.0,0.0,0.0,0.0,0.0,0.0,0.0,0.0,0.0,0.0,0.0,0.0,0.0,0.0,0.0,-0.367,-0.4092,-0.453,-0.4674,-0.4349,-0.4177,-0.4131,0.0,0.0,0.0,0.0,0.0,0.0,0.0,0.0,0.0,0.0,0.0,0.0,0.0,0.0,0.0,0.0,0.0,0.0,0.0,0.0,0.0,0.0,0.0,0.0,0.0,0.0,0.0,0.0,0.0,0.0,0.0,0.0,0.0,0.0,0.0,0.0,0.0,0.0,0.0,0.0,0.0,0.0,0.0,0.0,0.0,0.0,0.0,0.0,0.0,0.0,0.0,0.0,0.0,0.0,0.0,0.0,0.0,0.0,0.0,0.0,0.0,0.0,0.0,0.0,0.0,0.0,0.0,0.0,0.0,0.0,0.0,0.0,0.0,0.0,0.0,0.0,0.0,0.0,0.0,0.0,0.0,0.0,0.0,0.0,0.0,0.0,0.0,0.0,0.0,0.0,0.0,0.0,0.0,0.0,0.0,0.0,0.0,0.0,0.0,0.0,0.0,0.0,0.0,0.0,0.0,0.0,0.0,0.0,0.0,-0.367,-0.4738,-0.5255,-0.5056,-0.4775,-0.475,0.0,0.0,0.0,0.0,0.0,0.0,0.0,0.0,0.0,0.0,0.0,0.0,0.0,0.0,0.0,0.0,0.0,0.0,0.0,0.0,0.0,0.0,0.0,0.0,0.0,0.0,0.0,0.0,0.0,0.0,0.0,0.0,0.0,0.0,0.0,0.0,0.0,0.0,0.0,0.0,0.0,0.0,0.0,0.0,0.0,0.0,0.0,0.0,0.0,0.0,0.0,0.0,0.0,0.0,0.0,0.0,0.0,0.0,0.0,0.0,0.0,0.0,0.0,0.0,0.0,0.0,0.0,0.0,0.0,0.0,0.0,0.0,0.0,0.0,0.0,0.0,0.0,0.0,0.0,0.0,0.0,0.0,0.0,0.0,0.0,0.0,0.0,0.0,0.0,0.0,0.0,0.0,0.0,0.0,0.0,0.0,0.0,0.0,0.0,0.0,0.0,0.0,0.0,0.0,0.0,0.0,0.0,0.0,0.0,-0.4546,-0.5717,-0.6227,-0.5942,-0.5524,-0.5238,-0.5116,0.0,0.0,0.0,0.0,0.0,0.0,0.0,0.0,0.0,0.0,0.0,0.0,0.0,0.0,0.0,0.0,0.0,0.0,0.0,0.0,0.0,0.0,0.0,0.0,0.0,0.0,0.0,0.0,0.0,0.0,0.0,0.0,0.0,0.0,0.0,0.0,0.0,0.0,0.0,0.0,0.0,0.0,0.0,0.0,0.0,0.0,0.0,0.0,0.0,0.0,0.0,0.0,0.0,0.0,0.0,0.0,0.0,0.0,0.0,0.0,0.0,0.0,0.0,0.0,0.0,0.0,0.0,0.0,0.0,0.0,0.0,0.0,0.0,0.0,0.0,0.0,0.0,0.0,0.0,0.0,0.0,0.0,0.0,0.0,0.0,0.0,0.0,0.0,0.0,0.0,0.0,0.0,0.0,0.0,0.0,0.0,0.0,0.0,0.0,0.0,0.0,0.0,0.0,0.0,0.0,0.0,0.0,0.0,-0.6271,-0.7212,-0.7469,-0.6921,-0.6333,-0.564,0.0,0.0,0.0,0.0,0.0,0.0,0.0,0.0,0.0,0.0,0.0,0.0,0.0,0.0,0.0,0.0,0.0,0.0,0.0,0.0,0.0,0.0,0.0,0.0,0.0,0.0,0.0,0.0,0.0,0.0,0.0,0.0,0.0,0.0,0.0,0.0,0.0,0.0,0.0,0.0,0.0,0.0,0.0,0.0,0.0,0.0,0.0,0.0,0.0,0.0,0.0,0.0,0.0,0.0,0.0,0.0,0.0,0.0,0.0,0.0,0.0,0.0,0.0,0.0,0.0,0.0,0.0,0.0,0.0,0.0,0.0,0.0,0.0,0.0,0.0,0.0,0.0,0.0,0.0,0.0,0.0,0.0,0.0,0.0,0.0,0.0,0.0,0.0,0.0,0.0,0.0,0.0,0.0,0.0,0.0,0.0,0.0,0.0,0.0,0.0,0.0,0.0,0.0,0.0,0.0,0.0,0.0,0.0,0.0,-0.7448,-0.8259,-0.8299,-0.7494,-0.6799,-0.6239,0.0,0.0,0.0,0.0,0.0,0.0,0.0,0.0,0.0,0.0,0.0,0.0,0.0,0.0,0.0,0.0,0.0,0.0,0.0,0.0,0.0,0.0,0.0,0.0,0.0,0.0,0.0,0.0,0.0,0.0,0.0,0.0,0.0,0.0,0.0,0.0,0.0,0.0,0.0,0.0,0.0,0.0,0.0,0.0,0.0,0.0,0.0,0.0,0.0,0.0,0.0,0.0,0.0,0.0,0.0,0.0,0.0,0.0,0.0,0.0,0.0,0.0,0.0,0.0,0.0,0.0,0.0,0.0,0.0,0.0,0.0,0.0,0.0,0.0,0.0,0.0,0.0,0.0,0.0,0.0,0.0,0.0,0.0,0.0,0.0,0.0,0.0,0.0,0.0,0.0,0.0,0.0,0.0,0.0,0.0,0.0,0.0,0.0,0.0,0.0,0.0,0.0,0.0,0.0,0.0,0.0,0.0,0.0,-0.7178,-0.8204,-0.8918,-0.8971,-0.8257,-0.7395,-0.6721,0.0,0.0,0.0,0.0,0.0,0.0,0.0,0.0,0.0,0.0,0.0,0.0,0.0,0.0,0.0,0.0,0.0,0.0,0.0,0.0,0.0,0.0,0.0,0.0,0.0,0.0,0.0,0.0,0.0,0.0,0.0,0.0,0.0,0.0,0.0,0.0,0.0,0.0,0.0,0.0,0.0,0.0,0.0,0.0,0.0,0.0,0.0,0.0,0.0,0.0,0.0,0.0,0.0,0.0,0.0,0.0,0.0,0.0,0.0,0.0,0.0,0.0,0.0,0.0,0.0,0.0,0.0,0.0,0.0,0.0,0.0,0.0,0.0,0.0,0.0,0.0,0.0,0.0,0.0,0.0,0.0,0.0,0.0,0.0,0.0,0.0,0.0,0.0,0.0,0.0,0.0,0.0,0.0,0.0,0.0,0.0,0.0,0.0,0.0,0.0,0.0,0.0,0.0,0.0,0.0,0.0,0.0,0.0,-0.7429,-0.848,-0.9027,-0.9151,-0.8871,-0.7921,-0.7047,0.0,0.0,0.0,0.0,0.0,0.0,0.0,0.0,0.0,0.0,0.0,0.0,0.0,0.0,0.0,0.0,0.0,0.0,0.0,0.0,0.0,0.0,0.0,0.0,0.0,0.0,0.0,0.0,0.0,0.0,0.0,0.0,0.0,0.0,0.0,0.0,0.0,0.0,0.0,0.0,0.0,0.0,0.0,0.0,0.0,0.0,0.0,0.0,0.0,0.0,0.0,0.0,0.0,0.0,0.0,0.0,0.0,0.0,0.0,0.0,0.0,0.0,0.0,0.0,0.0,0.0,0.0,0.0,0.0,0.0,0.0,0.0,0.0,0.0,0.0,0.0,0.0,0.0,0.0,0.0,0.0,0.0,0.0,0.0,0.0,0.0,0.0,0.0,0.0,0.0,0.0,0.0,0.0,0.0,0.0,0.0,0.0,0.0,0.0,0.0,0.0,0.0,0.0,0.0,0.0,0.0,0.0,0.0,-0.661,-0.7392,-0.7708,-0.7977,-0.8242,-0.7675,-0.6992,0.0,0.0,0.0,0.0,0.0,0.0,0.0,0.0,0.0,0.0,0.0,0.0,0.0,0.0,0.0,0.0,0.0,0.0,0.0,0.0,0.0,0.0,0.0,0.0,0.0,0.0,0.0,0.0,0.0,0.0,0.0,0.0,0.0,0.0,0.0,0.0,0.0,0.0,0.0,0.0,0.0,0.0,0.0,0.0,0.0,0.0,0.0,0.0,-0.1798,0.0,0.0,0.0,0.0,0.0,0.0,0.0,0.0,0.0,0.0,0.0,0.0,0.0,0.0,0.0,0.0,0.0,0.0,0.0,0.0,0.0,0.0,0.0,0.0,0.0,0.0,0.0,0.0,0.0,0.0,0.0,0.0,0.0,0.0,0.0,0.0,0.0,0.0,0.0,0.0,0.0,0.0,0.0,0.0,0.0,0.0,0.0,0.0,0.0,0.0,0.0,0.0,0.0,0.0,0.0,0.0,0.0,0.0,0.0,-0.6389,-0.7086,-0.7283,-0.7386,-0.7381,-0.7149,-0.6693,0.0,0.0,0.0,0.0,0.0,0.0,0.0,0.0,0.0,0.0,0.0,0.0,0.0,0.0,0.0,0.0,0.0,0.0,0.0,0.0,0.0,0.0,0.0,0.0,0.0,0.0,0.0,0.0,0.0,0.0,0.0,0.0,0.0,0.0,0.0,0.0,0.0,0.0,0.0,0.0,0.0,0.0,0.0,0.0,0.0,0.0,0.0,0.0,0.0,0.0,0.0,0.0,0.0,0.0,0.0,0.0,0.0,0.0,0.0,0.0,0.0,0.0,0.0,0.0,0.0,0.0,0.0,0.0,0.0,0.0,0.0,0.0,0.0,0.0,0.0,0.0,0.0,0.0,0.0,0.0,0.0,0.0,0.0,0.0,0.0,0.0,0.0,0.0,0.0,0.0,0.0,0.0,0.0,0.0,0.0,0.0,0.0,0.0,0.0,0.0,0.0,0.0,0.0,0.0,0.0,0.0,0.0,-0.5739,-0.6157,-0.6818,-0.6974,-0.6868,-0.6539,-0.6429,-0.6183,-0.582,0.0,0.0,0.0,0.0,0.0,0.0,0.0,0.0,0.0,0.0,0.0,0.0,0.0,0.0,0.0,0.0,0.0,0.0,0.0,0.0,0.0,0.0,0.0,0.0,0.0,0.0,0.0,0.0,0.0,0.0,0.0,0.0,0.0,0.0,0.0,0.0,0.0,0.0,-0.1801,-0.2082,0.0,0.0,0.0,0.0,0.0,0.0,0.0,0.0,-0.0924,0.0,0.0,0.0,0.0,0.0,0.0,0.0,0.0,0.0,0.0,0.0,0.0,0.0,0.0,0.0,0.0,0.0,0.0,0.0,0.0,0.0,0.0,0.0,0.0,0.0,0.0,0.0,0.0,0.0,0.0,0.0,0.0,0.0,0.0,0.0,0.0,0.0,0.0,0.0,0.0,0.0,0.0,0.0,0.0,0.0,0.0,0.0,0.0,0.0,0.0,0.0,0.0,0.0,0.0,0.0,0.0,-0.5171,-0.5143,-0.5296,-0.5643,-0.5536,-0.5547,-0.5741,-0.5664,-0.538,-0.4914,0.0,0.0,0.0,0.0,0.0,0.0,0.0,0.0,0.0,0.0,0.0,0.0,0.0,0.0,0.0,0.0,0.0,0.0,0.0,0.0,0.0,0.0,0.0,0.0,0.0,0.0,0.0,0.0,0.0,0.0,0.0,0.0,0.0,0.0,0.0,0.0,0.0,0.0,0.0,-0.2397,-0.2495,0.0,0.0,0.0,0.0,0.0,0.0,0.0,0.0,-0.1532,0.0,0.0,0.0,0.0,0.0,0.0,0.0,0.0,0.0,0.0,0.0,0.0,0.0,0.0,0.0,0.0,0.0,0.0,0.0,0.0,0.0,0.0,0.0,0.0,0.0,0.0,0.0,0.0,0.0,0.0,0.0,0.0,0.0,0.0,0.0,0.0,0.0,0.0,0.0,0.0,0.0,0.0,0.0,0.0,0.0,0.0,0.0,0.0,0.0,0.0,0.0,0.0,0.0,0.0,0.0,-0.4965,-0.4989,-0.5138,-0.5418,-0.5292,-0.5289,-0.5345,-0.5274,-0.5001,0.0,0.0,0.0,0.0,0.0,0.0,0.0,0.0,0.0,0.0,0.0,0.0,0.0,0.0,0.0,0.0,0.0,0.0,0.0,0.0,0.0,0.0,0.0,0.0,0.0,0.0,0.0,0.0,0.0,0.0,0.0,0.0,0.0,0.0,0.0,0.0,0.0,0.0,0.0,0.0,-0.2147,-0.2443,-0.2518,0.0,0.0,0.0,0.0,0.0,0.0,-0.095,-0.1004,0.0,0.0,0.0,0.0,0.0,0.0,0.0,0.0,0.0,0.0,0.0,0.0,0.0,0.0,0.0,0.0,0.0,0.0,0.0,0.0,0.0,0.0,0.0,0.0,0.0,0.0,0.0,0.0,0.0,0.0,0.0,0.0,0.0,0.0,0.0,0.0,0.0,0.0,0.0,0.0,0.0,0.0,0.0,0.0,0.0,0.0,0.0,0.0,0.0,0.0,0.0,0.0,0.0,0.0,0.0,-0.4918,-0.5057,-0.5206,-0.5418,-0.5359,-0.5289,-0.5084,-0.5016,-0.4763,0.0,0.0,0.0,0.0,0.0,0.0,0.0,0.0,0.0,0.0,0.0,0.0,0.0,0.0,0.0,0.0,0.0,0.0,0.0,0.0,0.0,0.0,0.0,0.0,0.0,0.0,0.0,0.0,0.0,0.0,0.0,0.0,0.0,0.0,0.0,0.0,0.0,0.0,0.0,0.0,0.0,-0.2376,-0.257,-0.1977,0.0,0.0,0.0,0.0,-0.0535,-0.0715,0.0,0.0,0.0,0.0,0.0,0.0,0.0,0.0,0.0,0.0,0.0,0.0,0.0,0.0,0.0,0.0,0.0,0.0,0.0,0.0,0.0,0.0,0.0,0.0,0.0,0.0,0.0,0.0,0.0,0.0,0.0,0.0,0.0,0.0,0.0,0.0,0.0,0.0,0.0,0.0,0.0,0.0,0.0,0.0,0.0,0.0,0.0,0.0,0.0,0.0,0.0,0.0,0.0,0.0,0.0,0.0,-0.4918,-0.5057,-0.5206,-0.5418,-0.5223,-0.5153,-0.5084,-0.4822,-0.4556,0.0,0.0,0.0,0.0,0.0,0.0,0.0,0.0,0.0,0.0,0.0,0.0,0.0,0.0,0.0,0.0,0.0,0.0,0.0,0.0,0.0,0.0,0.0,0.0,0.0,0.0,0.0,0.0,0.0,0.0,0.0,0.0,0.0,0.0,0.0,0.0,0.0,0.0,0.0,0.0,0.0,-0.2373,-0.1895,-0.1617,-0.1468,0.0,0.0,-0.1771,-0.2385,-0.2629,0.0,0.0,0.0,0.0,0.0,0.0,0.0,0.0,0.0,0.0,0.0,0.0,0.0,0.0,0.0,0.0,0.0,0.0,0.0,0.0,0.0,0.0,0.0,0.0,0.0,0.0,0.0,0.0,0.0,0.0,0.0,0.0,0.0,0.0,0.0,0.0,0.0,0.0,0.0,0.0,0.0,0.0,0.0,0.0,0.0,0.0,0.0,0.0,0.0,0.0,0.0,0.0,0.0,0.0,0.0,-0.4972,-0.5043,-0.5189,-0.5298,-0.5425,-0.5359,-0.5289,-0.5289,-0.4958,-0.4693,0.0,0.0,0.0,0.0,0.0,0.0,0.0,0.0,0.0,0.0,0.0,0.0,0.0,0.0,0.0,0.0,0.0,0.0,0.0,0.0,0.0,0.0,0.0,0.0,0.0,0.0,0.0,0.0,0.0,0.0,0.0,0.0,0.0,0.0,0.0,0.0,0.0,0.0,0.0,0.0,0.0,0.0,-0.2887,-0.2554,0.0,0.0,0.0,-0.2016,-0.2044,0.0,0.0,0.0,0.0,0.0,0.0,0.0,0.0,0.0,0.0,0.0,0.0,0.0,0.0,0.0,0.0,0.0,0.0,0.0,0.0,0.0,0.0,0.0,0.0,0.0,0.0,0.0,0.0,0.0,0.0,0.0,0.0,0.0,0.0,0.0,0.0,0.0,0.0,0.0,0.0,0.0,0.0,0.0,0.0,0.0,0.0,0.0,0.0,0.0,0.0,0.0,0.0,0.0,0.0,0.0,0.0,0.0,-0.5135,-0.5284,-0.5428,-0.5428,-0.5428,-0.5359,-0.5292,-0.5058,0.0,0.0,0.0,0.0,0.0,0.0,0.0,0.0,0.0,0.0,0.0,0.0,0.0,0.0,0.0,0.0,0.0,0.0,0.0,0.0,0.0,0.0,0.0,0.0,0.0,0.0,0.0,-0.3615,0.0,0.0,0.0,0.0,0.0,0.0,0.0,0.0,0.0,0.0,0.0,0.0,0.0,0.0,-0.1658,-0.3513,-0.314,-0.2774,0.0,0.0,-0.2385,-0.217,-0.2829,-0.2935,0.0,0.0,0.0,0.0,0.0,0.0,0.0,0.0,0.0,0.0,0.0,0.0,0.0,0.0,0.0,0.0,0.0,0.0,0.0,0.0,0.0,0.0,0.0,0.0,0.0,0.0,0.0,0.0,0.0,0.0,0.0,0.0,0.0,0.0,0.0,0.0,0.0,0.0,0.0,0.0,0.0,0.0,0.0,0.0,0.0,0.0,0.0,0.0,0.0,0.0,0.0,0.0,0.0,0.0,0.0,-0.5075,-0.5284,-0.5428,-0.5428,-0.5428,-0.5292,-0.5153,-0.4951,-0.4746,0.0,0.0,0.0,0.0,0.0,0.0,0.0,0.0,0.0,0.0,0.0,0.0,0.0,0.0,0.0,0.0,0.0,0.0,0.0,0.0,0.0,0.0,0.0,0.0,0.0,0.0,0.0,0.0,0.0,0.0,0.0,0.0,0.0,0.0,0.0,0.0,0.0,0.0,0.0,0.0,0.0,-0.1966,-0.2768,-0.283,-0.3107,0.0,0.0,-0.304,-0.3819,-0.4067,-0.3677,-0.1977,0.0,0.0,0.0,0.0,0.0,0.0,0.0,0.0,0.0,0.0,0.0,0.0,0.0,0.0,0.0,0.0,0.0,0.0,0.0,0.0,0.0,0.0,0.0,0.0,0.0,0.0,0.0,0.0,0.0,0.0,0.0,0.0,0.0,0.0,0.0,0.0,0.0,0.0,0.0,0.0,0.0,0.0,0.0,0.0,0.0,0.0,0.0,0.0,0.0,0.0,0.0,0.0,0.0,-0.5274,-0.5274,-0.5397,-0.5428,-0.5428,-0.5428,-0.5359,-0.5292,-0.5093,-0.4894,0.0,0.0,0.0,0.0,0.0,0.0,0.0,0.0,0.0,0.0,0.0,0.0,0.0,0.0,0.0,0.0,0.0,0.0,0.0,0.0,0.0,0.0,0.0,0.0,0.0,0.0,0.0,0.0,-0.3838,-0.3838,-0.3829,0.0,0.0,0.0,0.0,0.0,0.0,0.0,0.0,0.0,0.0,-0.3347,-0.3665,-0.3741,0.0,0.0,-0.3893,-0.3791,-0.3947,-0.3722,-0.3209,-0.2352,-0.1698,0.0,0.0,0.0,0.0,0.0,0.0,0.0,0.0,0.0,0.0,0.0,0.0,0.0,0.0,0.0,0.0,0.0,0.0,0.0,0.0,0.0,0.0,0.0,0.0,0.0,0.0,0.0,0.0,0.0,0.0,0.0,0.0,0.0,0.0,0.0,0.0,0.0,0.0,0.0,0.0,0.0,0.0,0.0,0.0,0.0,0.0,0.0,0.0,0.0,0.0,0.0,0.0,-0.5225,-0.5497,-0.5471,-0.5491,-0.5494,-0.5494,-0.5494,-0.543,-0.5216,-0.5083,0.0,0.0,0.0,0.0,0.0,0.0,0.0,0.0,0.0,0.0,0.0,0.0,0.0,0.0,0.0,0.0,0.0,0.0,0.0,0.0,0.0,0.0,0.0,0.0,0.0,0.0,0.0,0.0,-0.3863,-0.3854,-0.384,0.0,0.0,0.0,0.0,0.0,0.0,0.0,0.0,0.0,0.0,-0.3828,-0.4132,-0.4235,-0.4185,-0.4138,-0.4141,-0.4047,-0.3579,-0.3409,-0.3103,-0.246,0.0,0.0,0.0,0.0,0.0,0.0,0.0,0.0,0.0,0.0,0.0,0.0,0.0,0.0,0.0,0.0,0.0,0.0,0.0,0.0,0.0,0.0,0.0,0.0,0.0,0.0,0.0,-0.2092,0.0,0.0,-0.2696,0.0,0.0,0.0,0.0,0.0,0.0,0.0,0.0,0.0,0.0,0.0,0.0,0.0,0.0,0.0,0.0,0.0,0.0,0.0,0.0,0.0,0.0,-0.4882,-0.5586,-0.5711,-0.5786,-0.5786,-0.5789,-0.5714,-0.5503,-0.5287,-0.5147,-0.5003,0.0,0.0,0.0,0.0,0.0,0.0,0.0,0.0,0.0,0.0,0.0,0.0,0.0,0.0,0.0,0.0,0.0,0.0,0.0,0.0,0.0,0.0,0.0,0.0,0.0,0.0,-0.3615,-0.3702,-0.3834,0.0,0.0,0.0,0.0,0.0,0.0,0.0,0.0,0.0,0.0,-0.2847,-0.3244,-0.3837,-0.3987,-0.4091,-0.41,-0.4027,-0.365,-0.2833,-0.3411,-0.3509,0.0,0.0,0.0,0.0,0.0,0.0,0.0,0.0,0.0,0.0,0.0,0.0,0.0,0.0,0.0,0.0,0.0,0.0,0.0,0.0,0.0,0.0,0.0,0.0,0.0,0.0,0.0,-0.4219,-0.4219,0.0,0.0,0.0,0.0,0.0,0.0,0.0,0.0,0.0,0.0,0.0,-0.7767,-0.8306,0.0,0.0,0.0,0.0,0.0,0.0,0.0,0.0,0.0,0.0,0.0,0.0,-0.5309,-0.5596,-0.5728,-0.58,-0.58,-0.58,-0.5731,-0.5519,-0.5447,-0.5303,-0.5156,0.0,0.0,0.0,0.0,0.0,0.0,0.0,0.0,0.0,0.0,0.0,0.0,0.0,0.0,0.0,0.0,0.0,0.0,0.0,0.0,0.0,0.0,0.0,0.0,0.0,-0.3798,0.0,0.0,0.0,0.0,0.0,0.0,0.0,0.0,0.0,0.0,0.0,-0.3106,-0.3673,-0.3688,-0.3698,-0.3985,-0.4096,-0.4105,0.0,0.0,0.0,0.0,0.0,0.0,0.0,0.0,0.0,0.0,0.0,0.0,0.0,0.0,-0.2967,-0.2748,-0.2647,-0.2638,-0.2613,0.0,0.0,0.0,0.0,0.0,0.0,0.0,0.0,0.0,0.0,0.0,0.0,0.0,0.0,-0.5687,0.0,-0.5687,0.0,0.0,0.0,0.0,0.0,0.0,0.0,0.0,-0.7977,-0.8351,-0.8088,-0.8356,-0.7935,0.0,-0.7327,-0.6911,0.0,0.0,0.0,0.0,0.0,0.0,0.0,0.0,-0.538,-0.5674,-0.5861,-0.5959,-0.5959,-0.5962,-0.5889,-0.5667,-0.5596,-0.5596,-0.5805,-0.5615,-0.583,0.0,0.0,0.0,0.0,0.0,0.0,0.0,0.0,0.0,0.0,0.0,0.0,0.0,0.0,0.0,0.0,0.0,0.0,0.0,0.0,0.0,0.0,0.0,-0.3893,0.0,0.0,0.0,0.0,0.0,0.0,0.0,0.0,0.0,-0.4142,-0.4028,-0.3997,-0.4113,-0.4096,-0.4107,-0.4061,0.0,0.0,0.0,0.0,0.0,0.0,0.0,-0.2724,-0.2925,-0.2164,-0.1758,-0.227,-0.2983,-0.3413,-0.327,0.0,0.0,-0.3315,-0.3207,-0.3197,-0.3163,-0.3699,-0.4234,-0.4446,-0.4855,-0.5206,0.0,0.0,0.0,0.0,0.0,0.0,0.0,0.0,-0.6498,-0.6498,0.0,-0.6498,0.0,0.0,0.0,0.0,0.0,-0.7024,0.0,0.0,-0.8799,-0.884,-0.7972,-0.7909,-0.7601,-0.7141,-0.7783,-0.7442,-0.6172,-0.6108,0.0,0.0,0.0,0.0,0.0,0.0,-0.5075,-0.5817,-0.6101,-0.6254,-0.6254,-0.6254,-0.6173,-0.5931,-0.5705,-0.6015,-0.6853,-0.6776,-0.706,-0.7855,-0.673,0.0,0.0,0.0,0.0,0.0,0.0,0.0,0.0,0.0,0.0,0.0,0.0,0.0,0.0,0.0,0.0,0.0,0.0,0.0,0.0,-0.4195,0.0,0.0,0.0,0.0,0.0,0.0,0.0,0.0,0.0,0.0,-0.3873,-0.4111,-0.4218,-0.3969,0.0,0.0,0.0,0.0,-0.4076,-0.3825,-0.413,-0.3913,-0.2865,-0.3706,-0.4177,-0.336,0.0,0.0,-0.3566,-0.4225,-0.4525,-0.416,-0.4387,-0.452,-0.3785,-0.3691,-0.3661,-0.358,-0.4257,-0.5018,-0.5554,-0.5856,-0.6317,-0.7292,0.0,0.0,0.0,0.0,-0.6233,-0.6902,-0.7774,-0.8189,-0.8122,-0.765,-0.8194,0.0,0.0,0.0,0.0,0.0,0.0,-0.7653,-0.8214,-0.8088,-0.813,-0.8334,-0.819,-0.7728,-0.6948,-0.7283,-0.6907,-0.6046,-0.6156,-0.6092,-0.5724,0.0,0.0,0.0,0.0,-0.5636,-0.5969,-0.6159,-0.6261,-0.6261,-0.6261,-0.618,-0.586,-0.5712,-0.6096,-0.7092,-0.7042,-0.7405,-0.8084,-0.7462,0.0,0.0,0.0,0.0,0.0,0.0,0.0,0.0,0.0,0.0,0.0,0.0,0.0,0.0,0.0,0.0,0.0,0.0,0.0,-0.4494,-0.4414,-0.43,0.0,0.0,0.0,0.0,0.0,0.0,0.0,0.0,0.0,-0.4153,-0.4132,-0.414,0.0,0.0,-0.4181,-0.4077,-0.4164,-0.425,-0.4151,-0.43,0.0,-0.4161,-0.3872,-0.3768,-0.4192,-0.446,-0.4559,-0.4482,-0.4701,-0.4836,-0.4762,-0.4836,-0.4836,-0.4673,-0.4469,-0.4362,-0.4395,-0.4845,-0.5287,-0.547,-0.5844,-0.6226,-0.9405,-0.8573,-0.7077,-0.675,-0.7274,-0.7608,-0.8278,-0.9228,-0.9614,-0.9516,-0.9181,-0.9632,-0.869,-0.6798,-0.7153,0.0,0.0,0.0,-0.7817,-0.8442,-0.7667,-0.7414,-0.7618,-0.7407,-0.7082,-0.6651,-0.6817,-0.664,-0.6122,-0.6225,-0.6176,-0.5905,0.0,0.0,-0.5677,-0.582,-0.5939,-0.603,-0.6183,-0.6261,-0.6261,-0.618,-0.6254,-0.6556,-0.6325,-0.6857,-0.8232,-0.8232,-0.8628,-0.9311,-0.8567,-0.7902,0.0,0.0,0.0,0.0,0.0,0.0,0.0,0.0,0.0,0.0,0.0,-0.5507,-0.5039,0.0,0.0,0.0,-0.4951,-0.4801,-0.4851,-0.4801,0.0,0.0,0.0,0.0,0.0,0.0,0.0,-0.4215,-0.4386,-0.4504,-0.4368,-0.4346,-0.4338,-0.4363,-0.4387,-0.4365,-0.427,0.0,-0.4496,-0.4447,-0.4499,-0.4637,-0.4712,-0.4252,-0.4087,-0.4548,-0.4889,-0.4967,-0.4815,-0.4952,-0.5156,-0.5159,-0.5156,-0.5156,-0.5156,-0.5034,-0.4977,-0.4817,-0.5021,-0.5318,-0.5538,-0.5683,-0.5754,-1.143,-1.1165,-0.8077,-0.7521,-0.8716,-0.8716,-0.9444,-1.0655,-1.0653,-1.0698,-1.0644,-1.0759,-1.0384,-0.9689,-0.8579,0.0,-0.9695,-0.8372,-0.7962,-0.824,-0.7477,-0.6852,-0.6336,-0.6119,-0.6197,-0.6412,-0.649,-0.6486,-0.6405,-0.6414,-0.6257,-0.6101,-0.6101,-0.6026,-0.5817,-0.5939,-0.6017,-0.6034,-0.6169,-0.6251,-0.6261,-0.6022,-0.6402,-0.7484,-0.7318,-0.808,-0.9771,-0.9922,-1.0293,-1.1031,-0.9696,-0.8915,-0.8807,0.0,0.0,0.0,0.0,0.0,0.0,0.0,0.0,0.0,0.0,0.0,0.0,0.0,0.0,0.0,-0.5717,0.0,-0.541,-0.5078,0.0,0.0,0.0,-0.4389,-0.4579,-0.4529,-0.4465,-0.433,0.0,0.0,-0.4499,-0.4597,-0.4701,-0.4529,-0.4689,-0.4738,-0.4515,-0.4675,-0.4795,-0.4694,-0.4692,-0.47,-0.4683,-0.4608,-0.4653,-0.4748,-0.5048,-0.5181,-0.4848,-0.5103,-0.5363,-0.5355,-0.5368,-0.5363,-0.5368,-0.5341,-0.5303,-0.508,-0.5045,-0.5199,-0.5662,-0.5433,-0.5277,-1.143,-1.1341,-1.0566,-1.0381,-1.0664,-1.0596,-1.0744,-1.1034,-1.0759,-1.0436,-1.0099,-1.0504,-1.0257,-0.9625,-0.9351,-0.8925,-0.8508,-0.8236,-0.7943,-0.7599,-0.699,-0.6619,-0.6503,-0.651,-0.6754,-0.7173,-0.6641,-0.6641,-0.7176,-0.721,-0.712,-0.6841,-0.6912,-0.6533,-0.581,-0.5837,-0.5911,-0.6027,-0.6067,-0.6142,-0.6254,-0.6257,-0.6641,-0.748,-0.7476,-0.8241,-0.9846,-0.9922,-1.0293,-1.1037,-1.0456,-0.9887,-0.941,-0.7918,0.0,0.0,0.0,0.0,0.0,0.0,0.0,0.0,0.0,-0.6203,-0.5336,0.0,-0.6085,0.0,-0.5532,-0.5335,-0.5483,-0.5109,0.0,0.0,-0.4668,-0.4502,-0.4694,-0.464,-0.464,-0.464,-0.4675,-0.4746,-0.4749,-0.4773,-0.4814,-0.4874,-0.4776,-0.4673,-0.4618,-0.4738,-0.486,-0.4923,-0.5002,-0.5015,-0.4763,-0.4329,-0.4356,-0.5069,-0.5022,-0.4951,-0.5204,-0.5285,-0.5371,-0.5371,-0.5371,-0.5371,-0.5377,-0.5371,-0.5358,-0.5298,-0.5287,-0.5366,-0.553,-0.5363,-0.5366,-1.2218,-1.2218,-1.2225,-1.2218,-1.2105,-1.1517,-1.1292,-1.1306,-1.1077,-1.0924,-1.0649,-1.0978,-1.0957,-1.0671,-1.0174,-0.988,-0.9663,-0.9054,-0.8738,-0.8608,-0.8036,-0.7778,-0.7778,-0.7706,-0.7859,-0.8165,-0.7633,-0.7638,-0.8165,-0.8089,-0.8036,-0.7922,-0.7926,-0.7607,-0.6989,-0.6554,-0.6349,-0.6438,-0.6799,-0.7147,-0.7322,-0.733,-0.7557,-0.8012,-0.8227,-0.8777,-0.9675,-0.9952,-1.0187,-1.0333,-1.0187,-0.9763,-0.9047,-0.8258,-0.7541,0.0,0.0,0.0,0.0,0.0,0.0,0.0,0.0,0.0,0.0,0.0,-0.6784,-0.6238,-0.5902,-0.5858,-0.6162,-0.5731,-0.5614,-0.5895,-0.5466,-0.5255,-0.539,-0.5035,-0.4814,-0.4817,-0.4874,-0.4915,-0.4917,-0.4961,-0.5015,-0.5083,-0.5023,-0.495,-0.4912,-0.4993,-0.5097,-0.5167,-0.5227,-0.5205,-0.5027,-0.4826,-0.4772,-0.5283,-0.524,-0.5274,-0.5532,-0.5532,-0.5532,-0.5532,-0.5532,-0.5532,-0.5532,-0.5529,-0.5532,-0.5532,-0.5532,-0.5491,-0.5393,-0.5371,-0.5371,-1.3206,-1.3206,-1.3206,-1.3206,-1.3133,-1.2091,-1.1637,-1.1603,-1.1617,-1.1638,-1.1651,-1.1752,-1.1855,-1.1929,-1.1111,-1.0968,-1.1416,-1.0056,-0.9604,-0.9986,-0.9528,-0.9301,-0.9226,-0.9074,-0.9074,-0.9074,-0.8851,-0.8851,-0.9079,-0.8932,-0.8932,-0.9079,-0.8927,-0.8835,-0.8646,-0.7739,-0.722,-0.7128,-0.7828,-0.8323,-0.8584,-0.8565,-0.8627,-0.8694,-0.9257,-0.9588,-0.9734,-1.0154,-1.0102,-0.9541,-0.9653,-0.9368,-0.8543,-0.8334,-0.7957,0.0,-0.6852,0.0,0.0,0.0,0.0,0.0,0.0,0.0,0.0,-0.8009,-0.7815,-0.7124,-0.661,-0.657,-0.6961,-0.6436,-0.6343,-0.7002,-0.6353,-0.5957,-0.5992,-0.5398,-0.5023,-0.5037,-0.5037,-0.5042,-0.5067,-0.5148,-0.5208,-0.5216,-0.5301,-0.5322,-0.526,-0.5295,-0.5349,-0.5385,-0.5407,-0.5262,-0.536,-0.5339,-0.5313,-0.5497,-0.547,-0.5641,-0.563,-0.5722,-0.5727,-0.5725,-0.5625,-0.5542,-0.5644,-0.5547,-0.5547,-0.5536,-0.5534,-0.5563,-0.5488,-0.5439,-0.5417,-1.3206,-1.3206,-1.3206,-1.3206,-1.3193,-1.2973,-1.2726,-1.2485,-1.2077,-1.1924,-1.1931,-1.2131,-1.2083,-1.2003,-1.1781,-1.126,-1.0513,-1.0137,-0.976,-0.9231,-0.9079,-0.9074,-0.9079,-0.9221,-0.9377,-0.969,-0.9231,-0.9231,-0.9765,-0.9695,-0.969,-0.9771,-0.9836,-0.9809,-0.9766,0.0,0.0,0.0,-0.8089,-0.7973,-0.8002,-0.7863,-0.8016,-0.8703,-0.9417,0.0,-1.0724,-1.0713,-1.0575,-1.0426,-1.0301,0.0,0.0,0.0,0.0,0.0,0.0,0.0,0.0,0.0,0.0,0.0,-0.7195,-0.7261,-0.7367,-0.7593,-0.7588,-0.7289,-0.697,-0.6888,-0.7151,-0.6391,-0.6023,-0.6123,-0.5591,-0.5223,-0.5246,-0.5093,-0.505,-0.5143,-0.5156,-0.5192,-0.5279,-0.5322,-0.5336,-0.5341,-0.5442,-0.5416,-0.5483,-0.542,-0.5415,-0.5411,-0.5321,-0.521,-0.5577,-0.5056,-0.4975,-0.5349,-0.5351,-0.5371,-0.5644,-0.5644,-0.5733,-0.5644,-0.5371,-0.5102,-0.5102,-0.4832,-0.4746,-0.5099,-0.5102,-0.5267,-0.5585,-0.5665,-0.5665,-1.3641,-1.3641,-1.3641,-1.3641,0.0,-1.3494,-1.3333,-1.3173,-1.2802,-1.2599,-1.2593,-1.2676,-1.2676,-1.2599,-1.2369,-1.1979,-1.1367,-1.1128,-1.0884,-1.0656,-1.0734,-1.0806,-1.0962,-1.0962,-1.1045,-1.1206,-1.0656,-1.0656,-1.0973,-1.0895,-1.0973,-1.1051,-1.0967,-1.0967,-1.0973,-1.1088,-1.0806,-0.9992,-0.9756,-0.9769,-0.9871,-0.9769,-0.9708,-0.9703,-1.0308,0.0,0.0,0.0,0.0,0.0,0.0,0.0,0.0,-0.9186,0.0,-0.8612,-0.7861,-0.7445,-0.7449,-0.7445,-0.7633,-0.7941,-0.8019,-0.7979,-0.7812,-0.775,-0.762,-0.7555,-0.6889,-0.6547,-0.7011,-0.6328,-0.617,-0.6707,-0.6018,-0.5578,-0.5874,-0.5495,-0.5146,-0.5252,-0.5279,-0.5303,-0.536,-0.5426,-0.5455,-0.5466,-0.5561,-0.5638,-0.555,-0.5591,-0.5578,-0.5632,-0.5507,-0.546,-0.5555,-0.5374,-0.5107,-0.5552,-0.5463,-0.5371,-0.5371,-0.5371,-0.5282,-0.5102,-0.4835,-0.4743,-0.4919,-0.4654,-0.4478,-0.5104,-0.5191,-0.5191,-0.5555,-0.5733,-0.5733,-1.4088,-1.4088,-1.4088,-1.4088,-1.4068,-1.3821,-1.3728,-1.3701,0.0,0.0,0.0,-1.3206,-1.3206,-1.3213,-1.2896,-1.2651,-1.2651,-1.2246,-1.2166,-1.2412,-1.2571,-1.273,-1.2889,-1.2737,-1.2571,-1.2492,-1.2166,-1.2,-1.216,-1.2006,-1.203,-1.2147,-1.2073,-1.2017,-1.2071,-1.2276,-1.2174,-1.1757,-1.1534,-1.1532,-1.1733,-1.1703,-1.1347,-1.0697,-1.123,-1.1282,-1.0645,-1.0948,-1.0883,-1.0355,-1.046,-1.031,-0.9829,-0.953,-0.9306,-0.925,-0.8786,-0.8566,-0.8566,-0.8566,-0.8637,-0.8803,-0.8812,-0.8708,-0.8472,-0.8152,-0.7936,-0.7936,-0.7015,-0.6644,-0.7211,-0.6673,-0.6761,-0.7798,-0.6869,-0.6458,-0.6889,-0.6267,-0.5752,-0.5791,-0.5901,-0.5748,-0.5692,-0.5692,-0.567,-0.5594,-0.5662,-0.5746,-0.5757,-0.5733,-0.5725,-0.5757,-0.5681,-0.5773,-0.5795,-0.5719,-0.5793,-0.5817,-0.5809,-0.5613,-0.5338,-0.5155,-0.4887,-0.4725,-0.4346,-0.4441,-0.48,-0.4538,-0.4611,-0.5407,-0.5313,-0.5213,-0.5557,-0.5733,-0.5733,-1.4088,-1.4088,-1.4088,-1.4088,-1.4088,-1.4041,-1.4028,-1.3975,-1.3447,-1.3213,-1.3206,-1.3206,-1.3206,-1.3206,-1.3127,-1.3048,-1.2889,-1.2816,-1.2803,-1.281,-1.281,-1.2889,-1.2896,-1.2889,-1.2651,-1.2332,-1.2252,-1.2086,-1.1926,-1.1926,-1.2035,-1.2234,-1.2258,-1.2367,-1.2578,-1.2632,-1.2614,-1.2536,-1.1643,-1.1211,-1.125,-1.0963,-1.0858,-1.0778,-1.1484,-1.1786,-1.17,-1.154,-1.139,-1.1313,-1.1087,-1.0918,-1.06,-1.0229,-0.998,-0.9747,-0.9436,-0.9195,-0.919,-0.919,-0.9204,-0.9233,-0.9237,-0.9077,-0.8703,-0.8609,-0.8546,-0.8551,-0.834,-0.839,-0.8631,-0.8111,-0.7848,-0.8222,-0.7682,-0.7293,-0.748,-0.7237,-0.7134,-0.7208,-0.7399,-0.7107,-0.6676,-0.6637,-0.6392,-0.588,-0.5925,-0.5776,-0.5935,-0.5795,-0.5782,-0.5855,-0.588,-0.5923,-0.5986,-0.6032,-0.6015,-0.6037,-0.6021,-0.5914,-0.5722,-0.5442,-0.5069,-0.5087,-0.4416,-0.4139,-0.452,-0.4248,-0.4487,-0.5168,-0.524,-0.5307,-0.5689,-0.5844,-0.5741,-1.5655,-1.6171,-1.6171,-1.6171,-1.6093,-1.5576,-1.5071,-1.4543,-1.4282,-1.3981,-1.3694,-1.3687,-1.3687,-1.3687,-1.3434,-1.3352,-1.3346,-1.3099,-1.3099,-1.3352,-1.3352,-1.3428,-1.3523,-1.3434,-1.3181,-1.2934,-1.2762,-1.2597,-1.2349,-1.2343,-1.2409,-1.2524,-1.2524,-1.2584,-1.2699,-1.2705,-1.2705,-1.2705,-1.224,-1.2006,-1.1922,-1.1813,-1.1755,-1.1755,-1.2177,-1.2349,-1.2349,-1.2228,-1.2004,-1.1752,-1.1392,-1.1137,-1.1084,-1.0429,-1.0093,-1.0083,-0.9751,-0.9445,-0.9332,-0.9322,-0.9322,-0.9322,-0.9322,-0.9252,-0.9058,-0.8718,-0.8559,-0.8564,-0.8246,-0.8116,-0.8205,-0.7975,-0.7927,-0.8414,-0.7847,-0.7639,-0.7971,-0.7739,-0.7635,-0.7696,-0.7726,-0.7668,-0.7383,-0.7305,-0.7347,-0.7065,-0.6781,-0.6587,-0.6644,-0.6239,-0.5939,-0.5991,-0.6005,-0.6021,-0.6078,-0.6086,-0.6086,-0.6086,-0.6086,-0.5897,-0.5424,-0.5047,-0.4763,-0.4189,-0.3715,-0.3808,-0.4478,-0.4188,-0.445,-0.5373,-0.5442,-0.5601,-0.6296,-0.6512,-0.6256,-1.7129,-1.7921,-1.7921,-1.7921,-1.7834,-1.7049,-1.6176,-1.5308,-1.5294,-1.496,-1.4315,-1.4289,-1.4289,-1.4275,-1.3867,-1.3749,-1.3736,-1.3423,-1.3392,-1.3652,-1.373,-1.3828,-1.3997,-1.3737,-1.3561,-1.3307,-1.3137,-1.2875,-1.2705,-1.2705,-1.2705,-1.2705,-1.2705,-1.2705,-1.2705,-1.2705,-1.2705,-1.2705,-1.2705,-1.2705,-1.2705,-1.2705,-1.2699,-1.2705,-1.2699,-1.2705,-1.2705,-1.2705,-1.2534,-1.2186,-1.1666,-1.1408,-1.1322,-1.0549,-1.0134,-1.0154,-0.9885,-0.9639,-0.9483,-0.9464,-0.9464,-0.9464,-0.9464,-0.9469,-0.9381,-0.905,-0.8674,-0.8604,-0.8242,-0.8016,-0.8065,-0.8073,-0.8172,-0.8704,-0.838,-0.8367,-0.8743,-0.8516,-0.8217,-0.8253,-0.8304,-0.8336,-0.8163,-0.819,-0.8185,-0.8135,-0.7823,-0.7631,-0.7543,-0.6997,-0.6736,-0.6634,-0.6429,-0.6146,-0.6154,-0.6173,-0.6179,-0.6162,-0.617,-0.5802,-0.5223,-0.4829,-0.444,-0.3774,-0.3482,-0.3873,-0.454,-0.4634,-0.4914,-0.5854,-0.6029,-0.6297,-0.7282,-0.7393,-0.7005,-1.7842,-1.7921,-1.804,-1.7921,-1.7953,-1.7858,-1.7247,-1.6279,-1.6257,-1.5711,-1.4979,-1.4883,-1.4877,-1.4843,-1.4508,-1.4302,-1.4109,-1.3775,-1.3665,-1.3678,-1.3737,-1.3737,-1.377,-1.3587,-1.3313,-1.3162,-1.2906,-1.2832,-1.2729,-1.2705,-1.2705,-1.2705,-1.2705,-1.2705,-1.2705,-1.2705,-1.2705,-1.2705,-1.2705,-1.2705,-1.2705,-1.2705,-1.2705,-1.2705,-1.2705,-1.2705,-1.2705,-1.2705,-1.2705,-1.2619,-1.2186,-1.1757,-1.1327,-1.0809,-1.0366,-1.0091,-1.0005,-0.9913,-0.9889,-0.9976,-0.9962,-0.9976,-0.9957,-0.9866,-0.9957,-0.988,-0.9639,-0.928,-0.9178,-0.9188,-0.9419,-0.9358,-0.9423,-0.9642,-0.9675,-0.9812,-0.974,-0.9836,-0.9758,-0.9772,-0.978,-0.9791,-0.9255,-0.9183,-0.9107,-0.8765,-0.8543,-0.8461,-0.8468,-0.8362,-0.8238,-0.814,-0.7296,-0.6494,-0.6454,-0.6401,-0.6569,-0.6481,-0.6393,-0.6176,-0.5768,-0.5282,-0.4706,-0.4853,-0.439,-0.4585,-0.5187,-0.5504,-0.5659,-0.6463,-0.7009,-0.7555,-0.819,-0.8232,-0.7787,-1.9618,-2.0166,-2.0166,-1.9804,-1.9351,-1.9351,-1.8449,-1.7014,-1.6923,-1.638,-1.5564,-1.5478,-1.5291,-1.4963,-1.4556,-1.4326,-1.4408,-1.4033,-1.3982,-1.4239,-1.4239,-1.4333,-1.4421,-1.4427,-1.4158,-1.3793,-1.3617,-1.3361,-1.2946,-1.2783,-1.2705,-1.2705,-1.2705,-1.2705,-1.2705,-1.2705,-1.2705,-1.2705,-1.2705,-1.2705,-1.2705,-1.2705,-1.2705,-1.2705,-1.2705,-1.2705,-1.2705,-1.2705,-1.2613,-1.2272,-1.1837,-1.1413,-1.0895,-1.0463,-1.0212,-1.0038,-1.0038,-1.0038,-1.0038,-1.0038,-1.0038,-1.0038,-1.0038,-1.0038,-1.0038,-1.0038,-0.9871,-0.9738,-0.9696,-0.9738,-0.9809,-0.9823,-0.9861,-1.0019,-1.0038,-1.0086,-1.013,-1.014,-1.0272,-1.0296,-1.039,-1.036,-1.0108,-1.0161,-1.018,-0.9927,-0.9682,-0.9397,-0.9413,-0.9083,-0.8817,-0.8718,-0.8171,-0.7872,-0.7822,-0.7829,-0.7829,-0.7829,-0.7829,-0.7627,-0.6833,-0.6828,-0.6526,-0.6024,-0.5827,-0.6029,-0.6915,-0.7027,-0.7205,-0.7641,-0.8332,-0.9088,-0.9111,-0.9024,-0.874,-2.1087,-2.1651,-2.1553,-2.1177,-2.0709,-2.0529,-1.9521,-1.8064,-1.8064,-1.7498,-1.648,-1.6574,-1.6429,-1.5945,-1.5006,-1.4702,-1.496,-1.454,-1.4417,-1.4764,-1.5026,-1.5294,-1.5479,-1.5479,-1.5294,-1.484,-1.4738,-1.4295,-1.3572,-1.3299,-1.3095,-1.2916,-1.2856,-1.2819,-1.2813,-1.2759,-1.2705,-1.2705,-1.2705,-1.2705,-1.2705,-1.2705,-1.2705,-1.2705,-1.2705,-1.2705,-1.2705,-1.2705,-1.2448,-1.2009,-1.158,-1.1068,-1.0636,-1.0207,-1.0038,-1.0038,-1.0038,-1.0038,-1.0038,-1.0038,-1.0038,-1.0038,-1.0038,-1.0038,-1.0038,-1.0038,-1.0038,-1.0024,-1.0038,-1.0024,-1.0038,-1.0038,-0.9975,-1.0022,-1.0129,-1.0126,-1.0319,-1.0357,-1.0409,-1.0551,-1.0608,-1.0688,-1.0749,-1.0882,-1.088,-1.0803,-1.0613,-1.0314,-1.0314,-0.9912,-0.9513,-0.9414,-0.9513,-0.9217,-0.8924,-0.8627,-0.8825,-0.8726,-0.8528,-0.823,-0.7733,-0.7726,-0.7726,-0.6631,-0.7126,-0.7422,-0.7726,-0.8024,-0.8421,-0.9023,-0.9616,-1.0002,-0.996,-0.9782,-0.9732,-2.1651,-2.1642,-2.1177,-2.1266,-2.1562,-2.1096,-2.0348,-1.9255,-1.9803,-1.9247,-1.8048,-1.8326,-1.8588,-1.8402,-1.638,-1.5633,-1.5944,-1.5549,-1.5266,-1.5163,-1.6116,-1.669,-1.6755,-1.6683,-1.6617,-1.6255,-1.5824,-1.5246,-1.4482,-1.4449,-1.4193,-1.3453,-1.3218,-1.3103,-1.3073,-1.2874,-1.2717,-1.2765,-1.2765,-1.2729,-1.2729,-1.2729,-1.2741,-1.2747,-1.2705,-1.2705,-1.2705,-1.2705,-1.2528,-1.2015,-1.1585,-1.1063,-1.0636,-1.0207,-1.0038,-1.0038,-1.0038,-1.0038,-1.0038,-1.0038,-1.0038,-1.0038,-1.0038,-1.0038,-1.0038,-1.0062,-1.0067,-1.0047,-1.0081,-1.0086,-1.0086,-1.009,-1.0157,-1.0234,-1.0258,-1.0353,-1.0537,-1.0565,-1.056,-1.0627,-1.0773,-1.0929,-1.1113,-1.117,-1.1161,-1.1156,-1.1086,-1.11,-1.0998,-1.0998,-1.09,-1.09,-1.0801,-1.0507,-0.9221,-0.9221,-0.9023,-0.8924,-0.9023,-0.8432,-0.7733,-0.7235,-0.7335,-0.7434,-0.7925,-0.8223,-0.8428,-0.8726,-0.9217,-0.9719,-0.992,-1.0212,-1.0408,-1.0609,-1.0565,-2.1731,-2.1642,-2.1186,-2.1087,-2.1186,-2.0736,-2.0002,-1.9072,-1.9247,-1.888,-1.8234,-1.8334,-1.888,-1.9695,-1.8202,-1.7405,-1.7121,-1.6735,-1.6508,-1.6324,-1.6776,-1.696,-1.715,-1.715,-1.6967,-1.6791,-1.6607,-1.595,-1.4845,-1.4229,-1.3785,-1.3507,-1.3423,-1.3375,-1.335,-1.3278,-1.3224,-1.3218,-1.3224,-1.3224,-1.3206,-1.3224,-1.3218,-1.3206,-1.288,-1.2705,-1.2705,-1.2705,-1.2528,-1.2015,-1.158,-1.1068,-1.0636,-1.0207,-1.0038,-1.0038,-1.0038,-1.0038,-1.0038,-1.0038,-1.0038,-1.0038,-1.0038,-1.0052,-1.0062,-1.0074,-1.0159,-1.0178,-1.0282,-1.0343,-1.0324,-1.0239,-1.0244,-1.0419,-1.0471,-1.0551,-1.0721,-1.0783,-1.0825,-1.0943,-1.1052,-1.1118,-1.1165,-1.1194,-1.1194,-1.1194,-1.1194,-1.1194,-1.1194,-1.1194,-1.1194,-1.1194,-1.1194,-1.1002,-1.0507,-1.0404,-1.0306,-1.0306,-1.0207,-0.9916,-0.932,-0.9217,-0.9414,-0.892,-0.9118,-0.9414,-0.9813,-0.9908,-1.0306,-1.0404,-1.0708,-1.0609,-1.0806,-1.0806,-1.0806,-2.1553,-2.1642,-2.1186,-2.0997,-2.0907,-2.0464,-1.982,-1.908,-1.9263,-1.898,-1.8703,-1.8703,-1.9438,-2.0257,-1.9803,-1.9255,-1.8696,-1.8226,-1.777,-1.7505,-1.7878,-1.8064,-1.8064,-1.8071,-1.7978,-1.787,-1.7692,-1.7008,-1.5896,-1.5226,-1.4773,-1.4504,-1.4415,-1.4364,-1.4345,-1.4275,-1.4224,-1.4231,-1.4224,-1.4218,-1.4224,-1.4224,-1.4224,-1.4174,-1.3843,-1.3392,-1.3051,-1.3138,-1.2877,-1.2173,-1.2249,-1.1986,-1.1196,-1.0499,-1.0149,-1.0243,-1.0159,-1.0238,-1.0154,-1.0149,-1.0154,-1.0238,-1.0154,-1.0154,-1.0159,-1.0291,-1.0362,-1.0405,-1.048,-1.0589,-1.0636,-1.0556,-1.0532,-1.065,-1.0674,-1.0764,-1.0957,-1.0995,-1.1052,-1.1137,-1.117,-1.1189,-1.1194,-1.1194,-1.1194,-1.1194,-1.1194,-1.1194,-1.1194,-1.1194,-1.1194,-1.1194,-1.1194,-1.1194,-1.0998,-1.09,-1.0801,-1.0703,-1.06,-1.0605,-1.0609,-1.0708,-1.0708,-1.0408,-1.0507,-1.09,-1.1096,-1.1194,-1.1194,-1.1194,-1.1096,-1.0904,-1.1002,-1.0904,-1.0904,-2.1275,-2.1553,-2.1177,-2.0907,-2.0907,-2.0464,-2.0011,-1.9637,-1.992,-1.9737,-1.9455,-1.9911,-2.0275,-2.0808,-2.0727,-2.0808,-2.0447,-1.9803,-1.9072,-1.8527,-1.9455,-1.9737,-1.9363,-1.9271,-1.9271,-1.918,-1.892,-1.835,-1.7461,-1.723,-1.6858,-1.6483,-1.6139,-1.5922,-1.6092,-1.5784,-1.5714,-1.5645,-1.5666,-1.5714,-1.5842,-1.5728,-1.5652,-1.5721,-1.5672,-1.5033,-1.3701,-1.4199,-1.3783,-1.2626,-1.3705,-1.3826,-1.2144,-1.1151,-1.0639,-1.0518,-1.0542,-1.0556,-1.0542,-1.0527,-1.0504,-1.0499,-1.0537,-1.0504,-1.0494,-1.0546,-1.0579,-1.0584,-1.0617,-1.0683,-1.0863,-1.0882,-1.0872,-1.0896,-1.0896,-1.0976,-1.1123,-1.1184,-1.1189,-1.1194,-1.1194,-1.1194,-1.1194,-1.1194,-1.1184,-1.1161,-1.1156,-1.1132,-1.1099,-1.1085,-1.1151,-1.1156,-1.1132,-1.1118,-1.1156,-1.1194,-1.0998,-1.0904,-1.0703,-1.0605,-1.0413,-1.0511,-1.0511,-1.0314,-1.0605,-1.09,-1.1096,-1.1194,-1.1194,-1.1194,-1.1194,-1.11,-1.11,-1.1002,-1.1002,-2.0916,-2.0744,-2.0555,-2.0464,-2.0464,-2.0011,-1.9737,-1.9546,-1.9371,-1.9371,-1.9646,-1.9737,-2.0093,-2.0464,-2.0555,-2.0555,-2.0464,-2.0456,-2.0085,-1.9363,-1.9637,-1.9554,-1.9196,-1.9104,-1.9096,-1.8912,-1.835,-1.7971,-1.7692,-1.7232,-1.677,-1.6648,-1.6577,-1.6434,-1.6507,-1.6436,-1.6387,-1.6387,-1.6387,-1.638,-1.6387,-1.638,-1.638,-1.6387,-1.638,-1.6109,-1.5631,-1.552,-1.4937,-1.3863,-1.4392,-1.3929,-1.2392,-1.1844,-1.1298,-1.0662,-1.057,-1.057,-1.0575,-1.0579,-1.0589,-1.0575,-1.0672,-1.057,-1.0594,-1.0623,-1.0693,-1.0811,-1.0819,-1.0844,-1.1085,-1.1104,-1.109,-1.1104,-1.1104,-1.1109,-1.1175,-1.1194,-1.1194,-1.1194,-1.1194,-1.1194,-1.1194,-1.1189,-1.1127,-1.1009,-1.099,-1.0957,-1.082,-1.0816,-1.0764,-1.0768,-1.0858,-1.1005,-1.1042,-1.1099,-1.1058,-1.0984,-1.0801,-1.0703,-1.0511,-1.0413,-1.0314,-1.0413,-1.0708,-1.0904,-1.1096,-1.1194,-1.1194,-1.1194,-1.1194,-1.1096,-1.1096,-1.1096,-1.1096,-2.0555,-2.0292,-2.0292,-2.0292,-2.0292,-2.0011,-1.9828,-1.9828,-1.982,-1.9729,-1.9637,-1.9903,-2.0093,-2.0192,-2.0102,-2.0283,-2.0555,-2.0727,-2.0365,-1.9729,-1.9828,-1.9554,-1.9104,-1.892,-1.8827,-1.8735,-1.8357,-1.8071,-1.8064,-1.7699,-1.7426,-1.7426,-1.7426,-1.7412,-1.7426,-1.7419,-1.7426,-1.7426,-1.7412,-1.7426,-1.7426,-1.7434,-1.7426,-1.7426,-1.7426,-1.7419,-1.739,-1.7022,-1.6266,-1.5159,-1.4701,-1.4136,-1.3489,-1.2845,-1.2005,-1.1452,-1.1085,-1.0995,-1.1268,-1.1109,-1.1268,-1.1734,-1.164,-1.1645,-1.1853,-1.1888,-1.1944,-1.1596,-1.1584,-1.158,-1.1673,-1.1385,-1.1385,-1.1775,-1.138,-1.1194,-1.1194,-1.1194,-1.1194,-1.1194,-1.1194,-1.1165,-1.1109,-1.108,-1.1,-1.083,-1.0778,-1.0754,-1.0608,-1.0584,-1.0565,-1.0579,-1.0683,-1.0806,-1.0901,-1.0995,-1.1099,-1.1053,-1.0998,-1.09,-1.0703,-1.0609,-1.0511,-1.0609,-1.0801,-1.09,-1.1096,-1.1194,-1.1194,-1.1194,-1.1194,-1.1194,-1.1096,-1.1194,-1.1194,-2.0382,-2.0382,-2.0382,-2.0473,-2.0464,-2.0382,-2.0374,-2.0555,-2.0988,-2.0709,-2.0076,-2.052,-2.061,-2.0374,-2.0102,-2.0266,-2.0718,-2.0464,-2.0102,-1.982,-1.992,-1.992,-1.9463,-1.9004,-1.8827,-1.8827,-1.8735,-1.8735,-1.8635,-1.8635,-1.8827,-1.8643,-1.855,-1.8735,-1.855,-1.8735,-1.8643,-1.855,-1.8643,-1.8643,-1.8643,-1.8643,-1.8643,-1.8643,-1.8643,-1.8643,-1.8535,-1.8303,-1.736,-1.5765,-1.5057,-1.5038,-1.519,-1.3878,-1.2967,-1.2764,-1.1858,-1.2017,-1.2323,-1.2078,-1.2281,-1.3611,-1.3228,-1.321,-1.373,-1.3712,-1.3448,-1.2882,-1.2716,-1.2732,-1.2635,-1.1965,-1.1868,-1.2252,-1.1678,-1.1292,-1.1194,-1.1194,-1.1179,-1.1165,-1.1165,-1.1099,-1.091,-1.0882,-1.0773,-1.0622,-1.0556,-1.0532,-1.0471,-1.0428,-1.0504,-1.0518,-1.0494,-1.0584,-1.0664,-1.0905,-1.1005,-1.1066,-1.1039,-1.0998,-1.09,-1.0801,-1.0806,-1.0801,-1.09,-1.0998,-1.1096,-1.1194,-1.1194,-1.1194,-1.1194,-1.1194,-1.1194,-1.1194,-1.1194,-2.1606,-2.0817,-2.0826,-2.1257,-2.1695,-2.1168,-2.1248,-2.1784,-2.1606,-2.1596,-2.1409,-2.1498,-2.1409,-2.1069,-2.0889,-2.0628,-2.0192,-2.0201,-2.0011,-1.9646,-1.9737,-1.9729,-1.9546,-1.9096,-1.8827,-1.8827,-1.8827,-1.8827,-1.8827,-1.8827,-1.8827,-1.8827,-1.8827,-1.8827,-1.8827,-1.8827,-1.8827,-1.8827,-1.8827,-1.8827,-1.8827,-1.8827,-1.8827,-1.8827,-1.8827,-1.8827,-1.8735,-1.8373,-1.79,-1.7239,-1.6756,-1.6271,-1.5893,-1.5222,-1.4549,-1.3884,-1.3596,-1.3499,-1.3692,-1.3596,-1.3788,-1.4172,-1.407,-1.3974,-1.4268,-1.4166,-1.3974,-1.3782,-1.3686,-1.3692,-1.3692,-1.292,-1.2349,-1.1575,-1.1385,-1.1194,-1.1194,-1.1189,-1.1142,-1.1009,-1.0986,-1.0868,-1.0726,-1.065,-1.0575,-1.0409,-1.0338,-1.0305,-1.0239,-1.0187,-1.031,-1.0206,-1.0211,-1.0324,-1.0475,-1.074,-1.0905,-1.0967,-1.1066,-1.1194,-1.1096,-1.1096,-1.11,-1.11,-1.1096,-1.1096,-1.1194,-1.1194,-1.1194,-1.1194,-1.1194,-1.1194,-1.1194,-1.1194,-1.1194,-2.2385,-2.1587,-2.1507,-2.1863,-2.2394,-2.1872,-2.205,-2.2589,-2.2755,-2.2482,-2.2306,-2.2473,-2.2031,-2.1248,-2.1159,-2.0718,-2.0011,-2.0019,-1.982,-1.9637,-1.9371,-1.9279,-1.9188,-1.892,-1.8827,-1.8827,-1.8827,-1.8827,-1.8827,-1.8827,-1.8827,-1.8827,-1.8827,-1.8827,-1.8827,-1.8827,-1.8827,-1.8827,-1.8827,-1.8827,-1.8827,-1.8827,-1.8827,-1.8827,-1.8827,-1.8735,-1.855,-1.8272,-1.7994,-1.7807,-1.752,-1.7037,-1.6466,-1.5988,-1.5507,-1.4937,-1.4555,-1.4459,-1.4746,-1.4555,-1.474,-1.5222,-1.5222,-1.5222,-1.5507,-1.5412,-1.5412,-1.4937,-1.4835,-1.4835,-1.474,-1.3974,-1.2926,-1.2058,-1.1482,-1.1194,-1.1194,-1.1113,-1.1028,-1.0915,-1.0806,-1.0679,-1.0475,-1.0452,-1.0343,-1.0206,-1.014,-1.0167,-1.0095,-1.0047,-1.0043,-1.009,-1.0069,-1.0201,-1.039,-1.0645,-1.092,-1.0986,-1.1061,-1.1184,-1.1194,-1.1194,-1.1194,-1.1198,-1.1194,-1.1194,-1.1194,-1.1194,-1.1194,-1.1194,-1.1194,-1.1194,-1.1194,-1.1194,-1.1194,-2.3076,-2.2541,-2.2287,-2.2463,-2.2911,-2.2658,-2.2843,-2.3387,-2.3907,-2.3627,-2.3096,-2.3347,-2.2833,-2.1347,-2.1516,-2.0997,-2.0555,-2.0184,-2.0002,-1.982,-1.9546,-1.9371,-1.9455,-1.9004,-1.8827,-1.8827,-1.8827,-1.8827,-1.8827,-1.8827,-1.8827,-1.8827,-1.8827,-1.8827,-1.8827,-1.8827,-1.8827,-1.8827,-1.8827,-1.8827,-1.8827,-1.8827,-1.8827,-1.8827,-1.8827,-1.8651,-1.8365,-1.8087,-1.8079,-1.7994,-1.7613,-1.7326,-1.7131,-1.6372,-1.6082,-1.5886,-1.5317,-1.5222,-1.5704,-1.5317,-1.5412,-1.656,-1.6278,-1.6278,-1.685,-1.6943,-1.6655,-1.5988,-1.5988,-1.5792,-1.5507,-1.4841,-1.3692,-1.2624,-1.1755,-1.1253,-1.1132,-1.1005,-1.0882,-1.0825,-1.0645,-1.0466,-1.0315,-1.023,-1.0173,-1.0171,-1.0114,-1.009,-1.0052,-1.0043,-1.0038,-1.0047,-1.0124,-1.0121,-1.0334,-1.056,-1.0844,-1.1047,-1.1113,-1.1194,-1.1194,-1.1194,-1.1194,-1.1194,-1.1194,-1.1194,-1.1194,-1.1194,-1.1194,-1.1194,-1.1194,-1.1194,-1.1194,-1.1194,-1.1194,-2.4584,-2.379,-2.3541,-2.3877,-2.4488,-2.3877,-2.3897,-2.4519,-2.468,-2.4498,-2.4413,-2.4509,-2.4069,-2.3367,-2.257,-2.2217,-2.1784,-2.1078,-2.0907,-2.1159,-2.0727,-2.0808,-2.0619,-1.9637,-1.892,-1.892,-1.8827,-1.8827,-1.8827,-1.8827,-1.8827,-1.8827,-1.8827,-1.8827,-1.8827,-1.8827,-1.8827,-1.8827,-1.8827,-1.8827,-1.8827,-1.8827,-1.8827,-1.8827,-1.8827,-1.8651,-1.8473,-1.8187,-1.7994,-1.7714,-1.752,-1.7333,-1.7232,-1.7037,-1.685,-1.685,-1.6749,-1.6662,-1.685,-1.6655,-1.6749,-1.7138,-1.7037,-1.7037,-1.7232,-1.7333,-1.7232,-1.6951,-1.6951,-1.656,-1.5988,-1.4937,-1.4058,-1.2967,-1.1814,-1.1058,-1.0943,-1.0905,-1.0735,-1.0508,-1.0381,-1.0258,-1.0064,-1.0138,-1.009,-1.0038,-1.0038,-1.0038,-1.0038,-1.0038,-1.0038,-1.0038,-1.0133,-1.0154,-1.0376,-1.0617,-1.0896,-1.109,-1.1156,-1.1194,-1.1194,-1.1194,-1.1194,-1.1194,-1.1194,-1.1194,-1.1194,-1.1194,-1.1194,-1.1194,-1.1194,-1.1194,-1.1194,-1.1194,-1.1194,-2.5306,-2.4861,-2.4584,-2.4765,-2.5115,-2.4669,-2.4669,-2.502,-2.5031,-2.4946,-2.4946,-2.4861,-2.4413,-2.3714,-2.3367,-2.2931,-2.2394,-2.1961,-2.1615,-2.1606,-2.1436,-2.1427,-2.1516,-2.0709,-1.9994,-1.9629,-1.9546,-1.9279,-1.892,-1.8827,-1.8827,-1.8827,-1.8827,-1.8827,-1.8827,-1.8827,-1.8827,-1.8827,-1.8827,-1.8827,-1.8827,-1.8827,-1.8827,-1.8735,-1.8743,-1.8566,-1.8288,-1.8001,-1.7807,-1.752,-1.7333,-1.7333,-1.7333,-1.7333,-1.7333,-1.7333,-1.7333,-1.7333,-1.7333,-1.7333,-1.7239,-1.7333,-1.7333,-1.7333,-1.7333,-1.7333,-1.7333,-1.7333,-1.7232,-1.7037,-1.6466,-1.5602,-1.4702,-1.3886,-1.2463,-1.1566,-1.1203,-1.0871,-1.0542,-1.0301,-1.0192,-1.0093,-1.0076,-1.0043,-1.0038,-1.0038,-1.0038,-1.0038,-1.0038,-1.0038,-1.0038,-1.0062,-1.0069,-1.0216,-1.0442,-1.0697,-1.0981,-1.1118,-1.1175,-1.1194,-1.1194,-1.1194,-1.1194,-1.1194,-1.1194,-1.1194,-1.1194,-1.1194,-1.1194,-1.1194,-1.1194,-1.1194,-1.1194,-1.1194,-1.1194,-2.5644,-2.557,-2.538,-2.5285,-2.5285,-2.5295,-2.52,-2.5285,-2.5285,-2.5115,-2.4946,-2.4946,-2.4498,-2.3714,-2.3647,-2.3202,-2.2755,-2.2677,-2.2501,-2.2413,-2.2227,-2.2315,-2.2315,-2.2138,-2.1516,-2.061,-2.0249,-1.972,-1.9004,-1.8827,-1.8827,-1.8827,-1.8827,-1.8827,-1.8827,-1.8827,-1.8827,-1.8827,-1.8827,-1.8827,-1.8827,-1.8827,-1.8827,-1.8735,-1.8658,-1.8381,-1.8187,-1.7908,-1.7621,-1.7333,-1.7333,-1.7333,-1.7333,-1.7333,-1.7333,-1.7333,-1.7333,-1.7333,-1.7333,-1.7333,-1.7333,-1.7333,-1.7333,-1.7333,-1.7333,-1.7333,-1.7333,-1.7333,-1.7239,-1.7239,-1.7232,-1.6271,-1.5651,-1.4881,-1.3485,-1.2303,-1.1795,-1.0949,-1.0305,-1.0201,-1.0093,-1.0081,-1.0057,-1.0038,-1.0038,-1.0038,-1.0038,-1.0043,-1.0047,-1.0057,-1.0071,-1.0133,-1.0149,-1.0367,-1.0598,-1.0806,-1.109,-1.1142,-1.1194,-1.1292,-1.1194,-1.1194,-1.1194,-1.1194,-1.1194,-1.1194,-1.1194,-1.1194,-1.1194,-1.1194,-1.1194,-1.1194,-1.1194,-1.1194,-1.1194,-2.5738,-2.557,-2.5559,-2.5644,-2.5728,-2.5644,-2.5559,-2.5559,-2.5559,-2.538,-2.52,-2.5115,-2.502,-2.4584,-2.38,-2.327,-2.3193,-2.3377,-2.3657,-2.3744,-2.357,-2.3474,-2.3647,-2.3647,-2.294,-2.1606,-2.0881,-1.9985,-1.9004,-1.8827,-1.892,-1.8827,-1.8912,-1.8912,-1.9004,-1.8827,-1.9004,-1.9004,-1.9004,-1.8912,-1.8827,-1.8827,-1.8827,-1.8735,-1.8566,-1.8381,-1.8094,-1.7815,-1.7535,-1.7326,-1.7333,-1.7333,-1.7333,-1.7333,-1.7333,-1.7333,-1.7333,-1.7333,-1.7333,-1.7333,-1.7333,-1.7333,-1.7333,-1.7333,-1.7333,-1.7333,-1.7333,-1.7333,-1.7333,-1.7333,-1.7232,-1.6432,-1.5825,-1.4929,-1.3732,-1.2513,-1.232,-1.1351,-1.0299,-1.0304,-1.0154,-1.0038,-1.0038,-1.0038,-1.0038,-1.0038,-1.0038,-1.0071,-1.0022,-1.0041,-1.006,-1.0145,-1.0244,-1.0508,-1.0783,-1.0972,-1.1175,-1.117,-1.1194,-1.1389,-1.1292,-1.1194,-1.1194,-1.1482,-1.1385,-1.1292,-1.1292,-1.1292,-1.1194,-1.1194,-1.1194,-1.1194,-1.1194,-1.1194,-1.1194,-2.5654,-2.557,-2.557,-2.5644,-2.5738,-2.5728,-2.5738,-2.5728,-2.5738,-2.5644,-2.5475,-2.538,-2.5295,-2.5105,-2.4669,-2.4231,-2.4155,-2.4251,-2.4444,-2.4454,-2.4282,-2.4272,-2.4454,-2.455,-2.3657,-2.2668,-2.1854,-2.061,-1.9012,-1.8827,-1.9096,-1.9538,-1.9538,-1.9812,-2.0167,-2.0348,-1.9994,-1.972,-1.9538,-1.9271,-1.8819,-1.8827,-1.8827,-1.8735,-1.8465,-1.828,-1.8087,-1.7707,-1.7426,-1.7326,-1.7333,-1.7333,-1.7333,-1.7333,-1.7333,-1.7333,-1.7333,-1.7333,-1.7333,-1.7333,-1.7333,-1.7333,-1.7333,-1.7333,-1.7333,-1.7333,-1.7333,-1.7333,-1.7333,-1.7333,-1.7326,-1.6714,-1.6274,-1.5708,-1.4334,-1.3529,-1.3114,-1.1743,-1.1003,-1.0549,-1.0294,-1.0207,-1.0038,-1.0038,-1.0038,-1.0038,-1.0038,-1.0095,-1.0167,-1.0317,-1.0454,-1.0357,-1.049,-1.0707,-1.1025,-1.125,-1.1482,-1.1385,-1.158,-1.1775,-1.1775,-1.177,-1.1868,-1.2058,-1.1868,-1.1678,-1.158,-1.1673,-1.1482,-1.1194,-1.1194,-1.1194,-1.1194,-1.1194,-1.1194,-2.5644,-2.5654,-2.557,-2.5654,-2.5654,-2.5822,-2.5822,-2.5906,-2.5895,-2.5822,-2.5654,-2.557,-2.5475,-2.5295,-2.5189,-2.5105,-2.4946,-2.4946,-2.4775,-2.4625,-2.454,-2.454,-2.454,-2.4368,-2.3907,-2.3105,-2.2921,-2.1667,-1.972,-1.9546,-1.9803,-2.0076,-2.0339,-2.0889,-2.1427,-2.1338,-2.1159,-2.0791,-2.0348,-1.9803,-1.9096,-1.8827,-1.8827,-1.8735,-1.8365,-1.8187,-1.8087,-1.7707,-1.7426,-1.7333,-1.7333,-1.7333,-1.7333,-1.7333,-1.7333,-1.7333,-1.7333,-1.7333,-1.7333,-1.7333,-1.7333,-1.7333,-1.7333,-1.7333,-1.7333,-1.7333,-1.7333,-1.7333,-1.7333,-1.7274,-1.7186,-1.7011,-1.6689,-1.6066,-1.5168,-1.4309,-1.3769,-1.2875,-1.1849,-1.1322,-1.0722,-1.0386,-1.0222,-1.0381,-1.0467,-1.0604,-1.0614,-1.0548,-1.0627,-1.093,-1.094,-1.0793,-1.0778,-1.0953,-1.1274,-1.1594,-1.177,-1.1863,-1.2349,-1.2732,-1.2635,-1.2543,-1.2829,-1.3113,-1.2732,-1.2538,-1.2349,-1.1965,-1.1482,-1.1194,-1.1194,-1.1194,-1.1194,-1.1194,-1.1194,-2.5906,-2.5822,-2.5644,-2.5738,-2.5822,-2.5728,-2.5728,-2.5906,-2.5895,-2.5822,-2.5654,-2.557,-2.5559,-2.5475,-2.5285,-2.52,-2.5115,-2.4946,-2.4861,-2.4786,-2.4786,-2.4625,-2.454,-2.455,-2.409,-2.3454,-2.3193,-2.1943,-2.0701,-2.0889,-2.0889,-2.0701,-2.1239,-2.1695,-2.2059,-2.2138,-2.1704,-2.1418,-2.0701,-1.9812,-1.9012,-1.8827,-1.8827,-1.8735,-1.8558,-1.8381,-1.8094,-1.7807,-1.7527,-1.7326,-1.7333,-1.7333,-1.7333,-1.7333,-1.7333,-1.7333,-1.7333,-1.7333,-1.7333,-1.7333,-1.7333,-1.7333,-1.7333,-1.7333,-1.7333,-1.7326,-1.7326,-1.7333,-1.7311,-1.7165,-1.6967,-1.6857,-1.6535,-1.5943,-1.5203,-1.5007,-1.4642,-1.3542,-1.2601,-1.2345,-1.1918,-1.1003,-1.0502,-1.0738,-1.0987,-1.1137,-1.1221,-1.1165,-1.133,-1.1769,-1.1902,-1.1848,-1.1772,-1.1945,-1.2098,-1.2339,-1.2441,-1.2538,-1.3017,-1.3596,-1.3692,-1.3788,-1.4262,-1.4453,-1.3884,-1.3119,-1.264,-1.2063,-1.1482,-1.1194,-1.1194,-1.1194,-1.1194,-1.1194,-1.1385,-2.6528,-2.5895,-2.5812,-2.5822,-2.5895,-2.5822,-2.5812,-2.5895,-2.5906,-2.5822,-2.5738,-2.5654,-2.5559,-2.538,-2.52,-2.52,-2.5115,-2.5031,-2.4861,-2.4861,-2.4786,-2.4625,-2.454,-2.4454,-2.4176,-2.4003,-2.382,-2.3377,-2.2306,-2.1686,-2.1596,-2.1943,-2.2296,-2.2843,-2.3028,-2.3202,-2.2931,-2.2306,-2.115,-1.9812,-1.9096,-1.8827,-1.8827,-1.8827,-1.8566,-1.8481,-1.8288,-1.7908,-1.7721,-1.7527,-1.7426,-1.7333,-1.7333,-1.7333,-1.7333,-1.7333,-1.7333,-1.7333,-1.7333,-1.7333,-1.7333,-1.7333,-1.7333,-1.7333,-1.7333,-1.7311,-1.7223,-1.7069,-1.7062,-1.6908,-1.6616,-1.6426,-1.6221,-1.5792,-1.5234,-1.5283,-1.5056,-1.4088,-1.3203,-1.3197,-1.3045,-1.2342,-1.1695,-1.2037,-1.225,-1.2178,-1.2474,-1.2713,-1.2888,-1.3182,-1.3202,-1.3121,-1.3109,-1.3182,-1.3284,-1.3499,-1.3499,-1.3596,-1.3692,-1.4268,-1.4746,-1.5032,-1.5412,-1.5222,-1.4555,-1.3788,-1.2926,-1.2446,-1.2155,-1.1673,-1.1194,-1.1385,-1.158,-1.2058,-1.2344,-2.7406,-2.661,-2.6517,-2.6456,-2.6218,-2.6229,-2.6063,-2.5895,-2.5895,-2.5895,-2.5822,-2.5644,-2.5475,-2.5285,-2.5285,-2.52,-2.5295,-2.5041,-2.4946,-2.4861,-2.47,-2.4625,-2.454,-2.4454,-2.4454,-2.455,-2.4368,-2.4003,-2.3464,-2.2931,-2.2843,-2.3096,-2.328,-2.3734,-2.4272,-2.4186,-2.3734,-2.2482,-2.1329,-2.0076,-1.9096,-1.8827,-1.8827,-1.8735,-1.8651,-1.8574,-1.8481,-1.8202,-1.7916,-1.7628,-1.7613,-1.752,-1.7333,-1.752,-1.7426,-1.7426,-1.7426,-1.752,-1.7426,-1.7333,-1.7333,-1.7426,-1.7426,-1.7426,-1.7311,-1.7282,-1.715,-1.6901,-1.6762,-1.6587,-1.6309,-1.6052,-1.5921,-1.5774,-1.55,-1.5413,-1.5264,-1.4314,-1.3984,-1.4173,-1.4064,-1.3866,-1.3553,-1.3639,-1.3623,-1.3416,-1.3671,-1.4128,-1.4339,-1.4502,-1.4171,-1.3921,-1.3945,-1.398,-1.407,-1.4262,-1.4459,-1.4746,-1.4746,-1.5127,-1.5704,-1.5893,-1.5988,-1.5609,-1.5222,-1.4937,-1.4459,-1.359,-1.2823,-1.2441,-1.2058,-1.1965,-1.2155,-1.2635,-1.321,-2.8414,-2.8481,-2.8335,-2.7799,-2.7021,-2.7092,-2.6622,-2.5895,-2.5895,-2.5812,-2.5644,-2.557,-2.5559,-2.5464,-2.5285,-2.5295,-2.557,-2.5126,-2.4956,-2.4946,-2.4861,-2.47,-2.454,-2.455,-2.455,-2.455,-2.454,-2.454,-2.4368,-2.409,-2.3637,-2.327,-2.3907,-2.4272,-2.4454,-2.4454,-2.3647,-2.2492,-2.1596,-2.0529,-1.9363,-1.8827,-1.8827,-1.8827,-1.8743,-1.8658,-1.8481,-1.8473,-1.8288,-1.7908,-1.79,-1.78,-1.752,-1.78,-1.7707,-1.7613,-1.7707,-1.7807,-1.7721,-1.7613,-1.7613,-1.7807,-1.7777,-1.7453,-1.7331,-1.7004,-1.6872,-1.6748,-1.6513,-1.6272,-1.6052,-1.5891,-1.5731,-1.5613,-1.5496,-1.5474,-1.5264,-1.4741,-1.4503,-1.4972,-1.5007,-1.4754,-1.498,-1.5094,-1.4906,-1.4698,-1.5201,-1.5684,-1.5365,-1.5367,-1.481,-1.4543,-1.4543,-1.4555,-1.4549,-1.4841,-1.5514,-1.5893,-1.5988,-1.6372,-1.6857,-1.685,-1.6567,-1.6662,-1.6372,-1.6183,-1.5893,-1.5121,-1.4262,-1.3397,-1.292,-1.3017,-1.321,-1.3782,-1.4166,-2.9947,-3.0075,-3.0165,-2.8978,-2.7174,-2.7174,-2.6704,-2.5979,-2.5895,-2.5812,-2.5559,-2.557,-2.5475,-2.538,-2.5285,-2.538,-2.5475,-2.5126,-2.5031,-2.4956,-2.4786,-2.4625,-2.455,-2.454,-2.455,-2.454,-2.4625,-2.47,-2.47,-2.4786,-2.47,-2.4423,-2.4433,-2.4454,-2.455,-2.4454,-2.3647,-2.2746,-2.1952,-2.0979,-1.9985,-1.9096,-1.8827,-1.8827,-1.9546,-1.9279,-1.892,-1.9188,-1.8827,-1.8373,-1.8179,-1.7994,-1.7807,-1.7994,-1.7986,-1.78,-1.7994,-1.8094,-1.8094,-1.7893,-1.7893,-1.784,-1.7734,-1.7323,-1.7209,-1.6831,-1.6469,-1.6309,-1.6177,-1.5957,-1.5687,-1.5613,-1.554,-1.5467,-1.5431,-1.5431,-1.5264,-1.4915,-1.4888,-1.5295,-1.5575,-1.5605,-1.595,-1.6381,-1.6109,-1.5945,-1.6578,-1.6986,-1.6598,-1.6278,-1.5893,-1.5609,-1.5609,-1.5704,-1.5798,-1.6183,-1.6662,-1.685,-1.7037,-1.7138,-1.7333,-1.7239,-1.7044,-1.7239,-1.7333,-1.6951,-1.6567,-1.6372,-1.5602,-1.4358,-1.407,-1.4262,-1.4549,-1.493,-1.5216,-3.0911,-3.1123,-3.1198,-2.9935,-2.8051,-2.7971,-2.7336,-2.6385,-2.6302,-2.6063,-2.5728,-2.5644,-2.5559,-2.5464,-2.538,-2.538,-2.5475,-2.5211,-2.5115,-2.5031,-2.4956,-2.4711,-2.47,-2.47,-2.4796,-2.4796,-2.4786,-2.4861,-2.4946,-2.5031,-2.4946,-2.4861,-2.4786,-2.4711,-2.455,-2.4454,-2.4003,-2.3105,-2.2217,-2.1239,-2.0249,-1.9363,-1.9096,-1.9271,-1.9894,-2.0167,-1.9812,-1.9985,-1.9546,-1.9004,-1.8643,-1.8272,-1.8179,-1.8179,-1.8179,-1.8179,-1.8272,-1.8365,-1.8357,-1.8356,-1.8126,-1.7858,-1.7598,-1.7296,-1.7093,-1.6691,-1.6424,-1.6268,-1.6033,-1.5749,-1.5499,-1.546,-1.5474,-1.5431,-1.5431,-1.5431,-1.5431,-1.518,-1.5365,-1.5551,-1.5806,-1.6097,-1.641,-1.6769,-1.6894,-1.6699,-1.7006,-1.7439,-1.7475,-1.7232,-1.7145,-1.6951,-1.6951,-1.7044,-1.7239,-1.7138,-1.6951,-1.7044,-1.7138,-1.7232,-1.7333,-1.7333,-1.7333,-1.7333,-1.7333,-1.7333,-1.7138,-1.685,-1.6082,-1.5032,-1.5032,-1.5127,-1.5792,-1.6177,-1.6372,-3.1123,-3.1259,-3.1136,-3.0495,-2.9614,-2.9626,-2.8597,-2.7103,-2.694,-2.6539,-2.5906,-2.5895,-2.5895,-2.5812,-2.5644,-2.5644,-2.557,-2.538,-2.52,-2.5211,-2.5115,-2.5115,-2.5115,-2.5115,-2.5041,-2.5126,-2.5126,-2.5115,-2.52,-2.52,-2.5115,-2.5115,-2.5115,-2.4871,-2.454,-2.455,-2.4003,-2.3096,-2.2315,-2.1418,-2.061,-1.972,-1.9538,-1.9894,-2.0348,-2.0709,-2.0348,-2.052,-2.0167,-1.9446,-1.8912,-1.855,-1.8272,-1.855,-1.855,-1.8272,-1.8519,-1.8603,-1.8511,-1.8304,-1.8041,-1.7709,-1.7455,-1.7198,-1.7033,-1.6733,-1.6505,-1.6292,-1.6064,-1.5823,-1.5658,-1.559,-1.5514,-1.5431,-1.5431,-1.5514,-1.5514,-1.5514,-1.5609,-1.5815,-1.6111,-1.6469,-1.6791,-1.7062,-1.7394,-1.7475,-1.7598,-1.7721,-1.7807,-1.7807,-1.7714,-1.7527,-1.7527,-1.7333,-1.7333,-1.7333,-1.7239,-1.7333,-1.7333,-1.7333,-1.7333,-1.7333,-1.7333,-1.734,-1.7333,-1.7333,-1.7333,-1.7239,-1.656,-1.5893,-1.5893,-1.6082,-1.6749,-1.7138,-1.7138,-3.1286,-3.1136,-3.1198,-3.1035,-3.0646,-3.0012,-2.8755,-2.7255,-2.6622,-2.6135,-2.5979,-2.5895,-2.5895,-2.5895,-2.5812,-2.5812,-2.5738,-2.557,-2.5475,-2.5475,-2.5295,-2.52,-2.52,-2.5285,-2.52,-2.5285,-2.5285,-2.538,-2.5475,-2.538,-2.5464,-2.5464,-2.5285,-2.5031,-2.4786,-2.4625,-2.4272,-2.3907,-2.3193,-2.2482,-2.1943,-2.0701,-1.9994,-2.0439,-2.0979,-2.0979,-2.0529,-2.0881,-2.0701,-1.9712,-1.9096,-1.8827,-1.855,-1.8735,-1.8727,-1.8472,-1.8661,-1.8359,-1.8055,-1.785,-1.7668,-1.7565,-1.7297,-1.7103,-1.6885,-1.6523,-1.6308,-1.627,-1.6095,-1.5906,-1.5748,-1.5831,-1.5839,-1.5597,-1.5597,-1.5665,-1.5748,-1.5673,-1.5755,-1.5989,-1.6344,-1.6645,-1.7026,-1.715,-1.7382,-1.7535,-1.7628,-1.7721,-1.7815,-1.79,-1.79,-1.7721,-1.7621,-1.7434,-1.7347,-1.7472,-1.7494,-1.7494,-1.7421,-1.7333,-1.7333,-1.7443,-1.7428,-1.7486,-1.7406,-1.7333,-1.7333,-1.7239,-1.7138,-1.685,-1.6655,-1.656,-1.7037,-1.7232,-1.7232,-3.1373,-3.1123,-3.1272,-3.1272,-3.1123,-3.0419,-2.916,-2.7568,-2.6456,-2.5895,-2.5895,-2.5895,-2.5895,-2.5895,-2.5895,-2.5895,-2.5906,-2.5822,-2.5728,-2.5644,-2.5549,-2.5464,-2.5464,-2.5454,-2.5549,-2.5454,-2.5549,-2.5644,-2.5644,-2.5738,-2.5738,-2.5644,-2.5464,-2.5295,-2.5126,-2.4871,-2.4615,-2.4337,-2.3714,-2.3183,-2.2736,-2.1933,-2.1141,-2.1489,-2.1765,-2.1863,-2.1329,-2.1329,-2.1418,-2.0167,-1.9446,-1.9188,-1.9004,-1.8819,-1.8772,-1.8605,-1.8311,-1.7969,-1.7652,-1.7493,-1.7413,-1.7334,-1.6999,-1.6836,-1.6805,-1.6557,-1.6397,-1.6358,-1.6245,-1.6154,-1.5989,-1.6162,-1.6004,-1.5763,-1.5756,-1.5914,-1.5914,-1.5839,-1.5959,-1.6197,-1.6483,-1.6816,-1.7172,-1.7238,-1.7326,-1.7527,-1.7628,-1.7729,-1.7938,-1.8039,-1.8148,-1.7968,-1.7864,-1.7749,-1.7728,-1.7735,-1.7735,-1.7677,-1.7625,-1.7574,-1.7699,-1.786,-1.7743,-1.7633,-1.7618,-1.7552,-1.7384,-1.7239,-1.729,-1.7283,-1.7138,-1.7138,-1.7333,-1.7333,-1.7333,-3.1508,-3.1347,-3.1347,-3.1198,-3.1075,-3.0898,-2.9947,-2.8335,-2.6693,-2.6063,-2.5979,-2.5979,-2.5895,-2.5895,-2.5895,-2.5979,-2.5979,-2.5979,-2.5979,-2.6063,-2.6052,-2.5968,-2.5884,-2.5884,-2.5801,-2.5812,-2.5738,-2.5728,-2.5812,-2.5812,-2.5822,-2.5822,-2.5654,-2.557,-2.5391,-2.5211,-2.4956,-2.468,-2.4241,-2.3877,-2.3607,-2.2824,-2.2463,-2.2639,-2.2824,-2.3018,-2.2843,-2.2931,-2.2403,-2.1507,-2.0709,-1.9803,-1.918,-1.8819,-1.8597,-1.8279,-1.7906,-1.762,-1.7318,-1.7191,-1.7088,-1.6969,-1.6751,-1.668,-1.6688,-1.6605,-1.659,-1.6574,-1.6484,-1.6402,-1.6394,-1.6237,-1.6162,-1.6079,-1.6079,-1.6162,-1.6087,-1.6148,-1.6286,-1.6483,-1.6688,-1.6966,-1.7165,-1.7326,-1.7326,-1.7426,-1.7643,-1.8006,-1.8115,-1.8426,-1.8442,-1.8379,-1.8203,-1.8111,-1.8111,-1.8096,-1.8013,-1.7962,-1.805,-1.805,-1.8182,-1.8189,-1.8064,-1.7955,-1.7904,-1.7823,-1.7713,-1.7589,-1.7501,-1.7486,-1.7589,-1.7406,-1.7435,-1.7347,-1.7333,-3.1669,-3.1508,-3.1347,-3.136,-3.1299,-3.081,-3.0088,-2.9356,-2.7787,-2.6928,-2.6775,-2.6146,-2.5979,-2.5895,-2.5895,-2.6052,-2.6207,-2.6373,-2.6622,-2.6622,-2.6704,-2.6539,-2.6456,-2.629,-2.6135,-2.5979,-2.5895,-2.5895,-2.5895,-2.5812,-2.5895,-2.5906,-2.599,-2.5822,-2.5644,-2.5464,-2.538,-2.5115,-2.4754,-2.4669,-2.4498,-2.379,-2.3617,-2.3521,-2.3531,-2.3454,-2.3018,-2.3193,-2.257,-2.1784,-2.0799,-2.0076,-1.9977,-1.9019,-1.824,-1.7644,-1.7429,-1.727,-1.6969,-1.6897,-1.6857,-1.6778,-1.6738,-1.673,-1.6738,-1.673,-1.673,-1.6648,-1.6648,-1.6566,-1.6476,-1.6402,-1.6327,-1.6245,-1.6327,-1.6327,-1.6327,-1.6366,-1.6521,-1.6737,-1.6946,-1.6996,-1.7279,-1.7333,-1.7333,-1.7426,-1.7572,-1.7965,-1.8315,-1.8636,-1.8832,-1.8673,-1.8785,-1.8724,-1.8468,-1.8437,-1.8353,-1.8269,-1.8386,-1.843,-1.8394,-1.8379,-1.8328,-1.8277,-1.8211,-1.8167,-1.8108,-1.7969,-1.7816,-1.7969,-1.8043,-1.775,-1.7516,-1.7472,-1.7369,-3.1963,-3.1877,-3.1656,-3.1582,-3.1522,-3.1123,-3.0784,-3.0317,-2.8573,-2.7557,-2.7244,-2.6456,-2.6052,-2.5895,-2.5895,-2.6135,-2.6445,-2.6445,-2.6693,-2.701,-2.7255,-2.701,-2.6857,-2.6775,-2.6704,-2.6456,-2.629,-2.629,-2.629,-2.6373,-2.6456,-2.6467,-2.6385,-2.6302,-2.6218,-2.6124,-2.5863,-2.5706,-2.5538,-2.5464,-2.5115,-2.485,-2.4498,-2.4231,-2.4049,-2.3531,-2.3018,-2.3357,-2.2746,-2.2217,-2.1329,-2.0523,-2.0073,-1.8773,-1.7826,-1.731,-1.7127,-1.7,-1.6802,-1.6762,-1.6738,-1.673,-1.673,-1.673,-1.673,-1.673,-1.673,-1.6648,-1.6648,-1.6648,-1.6648,-1.6566,-1.6492,-1.6409,-1.6492,-1.6566,-1.6566,-1.6566,-1.6705,-1.7009,-1.7148,-1.7274,-1.7283,-1.7338,-1.7347,-1.7377,-1.7581,-1.7933,-1.8366,-1.8681,-1.9034,-1.9159,-1.9228,-1.9292,-1.9101,-1.8748,-1.875,-1.8817,-1.8803,-1.8811,-1.8686,-1.8672,-1.8716,-1.8628,-1.8511,-1.8445,-1.8372,-1.8284,-1.8196,-1.8335,-1.8372,-1.8123,-1.786,-1.7706,-1.7574,-3.2228,-3.2345,-3.2023,-3.1743,-3.1683,-3.1743,-3.1757,-3.136,-2.9356,-2.8084,-2.7626,-2.6917,-2.6445,-2.6302,-2.6218,-2.6385,-2.6704,-2.6869,-2.7115,-2.7336,-2.751,-2.7429,-2.7278,-2.7267,-2.7115,-2.7021,-2.6846,-2.6693,-2.701,-2.701,-2.694,-2.7185,-2.7103,-2.701,-2.6857,-2.6528,-2.6279,-2.6196,-2.5884,-2.5644,-2.5738,-2.5654,-2.557,-2.538,-2.5115,-2.4775,-2.4509,-2.4069,-2.327,-2.2921,-2.2114,-2.0979,-1.9312,-1.8415,-1.7653,-1.7243,-1.7028,-1.6916,-1.6754,-1.673,-1.673,-1.673,-1.673,-1.673,-1.673,-1.673,-1.673,-1.673,-1.673,-1.673,-1.6648,-1.6648,-1.6566,-1.6574,-1.6574,-1.6648,-1.6648,-1.6637,-1.6797,-1.7087,-1.7239,-1.7296,-1.7472,-1.7527,-1.7426,-1.7399,-1.756,-1.7941,-1.8312,-1.8728,-1.9097,-1.9403,-1.9483,-1.952,-1.9464,-1.9227,-1.9302,-1.9295,-1.9273,-1.9147,-1.9001,-1.9045,-1.914,-1.8986,-1.8818,-1.8694,-1.8599,-1.8584,-1.8584,-1.8577,-1.8569,-1.8438,-1.8247,-1.8072,-1.7904,-3.2169,-3.2241,-3.2036,-3.1817,-3.1683,-3.1817,-3.189,-3.1743,-3.0921,-2.982,-2.8966,-2.8096,-2.7395,-2.701,-2.6857,-2.7115,-2.7464,-2.7371,-2.7788,-2.8018,-2.8099,-2.7857,-2.78,-2.7708,-2.7534,-2.7267,-2.7103,-2.7103,-2.7267,-2.7255,-2.7255,-2.7267,-2.7255,-2.7348,-2.7255,-2.6846,-2.661,-2.661,-2.6124,-2.5895,-2.5906,-2.5906,-2.5812,-2.5644,-2.5391,-2.5295,-2.5031,-2.4861,-2.4509,-2.4307,-2.2486,-2.0449,-1.8046,-1.7858,-1.7471,-1.6988,-1.713,-1.7082,-1.682,-1.673,-1.673,-1.673,-1.673,-1.673,-1.673,-1.673,-1.673,-1.673,-1.673,-1.673,-1.673,-1.673,-1.673,-1.673,-1.673,-1.673,-1.673,-1.6814,-1.6904,-1.7141,-1.7272,-1.7423,-1.7627,-1.7628,-1.752,-1.7544,-1.7655,-1.7978,-1.8491,-1.8928,-1.9201,-1.9413,-1.9649,-1.9633,-1.9553,-1.9457,-1.945,-1.9376,-1.9235,-1.925,-1.9272,-1.925,-1.9213,-1.922,-1.9125,-1.8979,-1.8935,-1.906,-1.9045,-1.8921,-1.8869,-1.8789,-1.8708,-1.8547,-1.8364,-3.2731,-3.266,-3.2169,-3.189,-3.183,-3.1963,-3.1963,-3.189,-3.1716,-3.122,-3.0355,-2.9344,-2.8493,-2.7947,-2.7718,-2.7903,-2.8191,-2.7962,-2.8111,-2.8351,-2.851,-2.8351,-2.8203,-2.8122,-2.803,-2.7777,-2.7765,-2.7765,-2.7522,-2.7765,-2.7846,-2.7765,-2.7765,-2.7684,-2.7684,-2.736,-2.6951,-2.6857,-2.6373,-2.6135,-2.5979,-2.5895,-2.5895,-2.5738,-2.5654,-2.5475,-2.5211,-2.5009,-2.4629,-2.4053,-2.2448,-2.1042,-1.9221,-1.8425,-1.8,-1.7784,-1.7716,-1.7473,-1.7147,-1.6984,-1.6894,-1.6812,-1.673,-1.673,-1.673,-1.673,-1.673,-1.673,-1.673,-1.673,-1.673,-1.673,-1.673,-1.673,-1.673,-1.673,-1.673,-1.6719,-1.7059,-1.7502,-1.7595,-1.7675,-1.7827,-1.7822,-1.7643,-1.7646,-1.7765,-1.7991,-1.8511,-1.8974,-1.9261,-1.9411,-1.9583,-1.9657,-1.9627,-1.9524,-1.9465,-1.9376,-1.9272,-1.9272,-1.9272,-1.9272,-1.9272,-1.9257,-1.9257,-1.9235,-1.9242,-1.9272,-1.9272,-1.914,-1.9147,-1.9169,-1.9074,-1.8964,-1.8825,-3.3339,-3.3199,-3.2574,-3.2241,-3.2096,-3.2169,-3.2241,-3.2169,-3.2241,-3.2214,-3.1869,-3.0732,-2.9884,-2.9176,-2.8706,-2.8821,-2.8858,-2.8803,-2.8736,-2.8578,-2.8669,-2.859,-2.851,-2.851,-2.8431,-2.8431,-2.8339,-2.8179,-2.795,-2.8191,-2.8351,-2.851,-2.851,-2.851,-2.8351,-2.8111,-2.7626,-2.7278,-2.6869,-2.6467,-2.6218,-2.5979,-2.5906,-2.5822,-2.5738,-2.5644,-2.5295,-2.4714,-2.4272,-2.3546,-2.2432,-2.0986,-1.9984,-1.895,-1.8619,-1.8345,-1.8201,-1.7878,-1.7554,-1.7473,-1.7221,-1.6976,-1.6812,-1.6812,-1.673,-1.673,-1.673,-1.673,-1.673,-1.673,-1.673,-1.673,-1.673,-1.673,-1.673,-1.673,-1.673,-1.6738,-1.7167,-1.7652,-1.781,-1.7846,-1.7879,-1.7895,-1.7882,-1.7886,-1.7949,-1.8169,-1.8408,-1.8883,-1.9287,-1.945,-1.9524,-1.9569,-1.9569,-1.9576,-1.948,-1.9376,-1.9272,-1.9272,-1.9272,-1.9272,-1.9272,-1.9272,-1.9272,-1.9272,-1.9272,-1.9272,-1.9272,-1.9272,-1.9264,-1.925,-1.9228,-1.9147,-1.9199,-3.3644,-3.3269,-3.2775,-3.2789,-3.2931,-3.2717,-3.2789,-3.2988,-3.3072,-3.3058,-3.2903,-3.2747,-3.1901,-3.0493,-3.0063,-2.9999,-2.9935,-2.9716,-2.9419,-2.9263,-2.9184,-2.8895,-2.8736,-2.8816,-2.8724,-2.8657,-2.8578,-2.8431,-2.8271,-2.8431,-2.851,-2.851,-2.851,-2.851,-2.8431,-2.8111,-2.7881,-2.7534,-2.736,-2.6951,-2.6704,-2.6373,-2.5979,-2.5895,-2.5895,-2.5812,-2.5557,-2.4723,-2.4543,-2.3987,-2.2705,-2.1074,-2.0071,-1.9366,-1.9002,-1.8745,-1.8603,-1.8282,-1.804,-1.7959,-1.7635,-1.7302,-1.7221,-1.7057,-1.6976,-1.6812,-1.673,-1.673,-1.673,-1.673,-1.673,-1.673,-1.673,-1.673,-1.673,-1.673,-1.673,-1.6778,-1.6976,-1.7374,-1.7691,-1.7809,-1.7967,-1.7972,-1.814,-1.8142,-1.8319,-1.8437,-1.8438,-1.884,-1.9272,-1.9376,-1.948,-1.9376,-1.9376,-1.9376,-1.9376,-1.9272,-1.9272,-1.9272,-1.9272,-1.9272,-1.9272,-1.9272,-1.9272,-1.9272,-1.9272,-1.9272,-1.9272,-1.9272,-1.9272,-1.9272,-1.9272,-1.9272,-1.9272]},{"header":{"parameterUnit":"m.s-1","parameterCategory":1,"la1":31.0,"la2":29.5877,"lo1":-88.7671,"lo2":-86.6584,"dy":0.0162,"dx":0.0185,"nx":115,"ny":88,"refTime":"2024-05-10T12:00:00:Z","depth":0,"parameterNumber":3,"parameterNumberName":"V-component_of_WINDS"},"data":[0.0,0.0,0.0,0.0,0.0,0.0,0.0,0.0,0.0,0.0,0.0,0.0,0.0,0.0,0.0,0.0,0.0,0.0,0.0,0.0,0.0,0.0,0.0,0.0,0.0,0.0,0.0,0.0,0.0,0.0,0.0,0.0,0.0,0.0,0.0,0.0,0.0,0.0,0.0,0.0,0.0,0.0,0.0,0.0,0.0,0.0,0.0,0.0,0.0,0.0,0.0,0.0,0.0,0.0,0.0,0.0,0.0,0.0,0.0,0.0,0.0,0.0,0.0,0.0,0.0,0.0,0.0,0.0,0.0,0.0,0.0,0.0,0.0,0.0,0.0,0.0,0.0,0.0,0.0,0.0,0.0,0.0,0.0,0.0,0.0,0.0,0.0,0.0,0.0,0.0,0.0,0.0,0.0,0.0,0.0,0.0,0.0,0.0,0.0,0.0,0.0,0.0,0.0,0.0,0.0,0.0,0.0,0.0,0.0,0.0,0.0,0.0,0.0,0.0,0.0,0.0,0.0,0.0,0.0,0.0,0.0,0.0,0.0,0.0,0.0,0.0,0.0,0.0,0.0,0.0,0.0,0.0,0.0,0.0,0.0,0.0,0.0,0.0,0.0,0.0,0.0,0.0,0.0,0.0,0.0,0.0,0.0,0.0,0.0,0.0,0.0,0.0,0.0,0.0,0.0,0.0,0.0,0.0,0.0,0.0,0.0,0.0,0.0,0.0,0.0,0.0,0.0,0.0,0.0,0.0,0.0,0.0,0.0,0.0,0.0,0.0,0.0,0.0,0.0,0.0,0.0,0.0,0.0,0.0,0.0,0.0,0.0,0.0,0.0,0.0,0.0,0.0,0.0,0.0,0.0,0.0,0.0,0.0,0.0,0.0,0.0,0.0,0.0,0.0,0.0,0.0,0.0,0.0,0.0,0.0,0.0,0.0,0.0,0.0,0.0,0.0,0.0,0.0,0.0,0.0,0.0,0.0,0.0,0.0,0.0,0.0,0.0,0.0,0.0,0.0,0.0,0.0,0.0,0.0,0.0,0.0,0.0,0.0,0.0,0.0,0.0,0.0,0.0,0.0,0.0,0.0,0.0,0.0,0.0,0.0,0.0,0.0,0.0,0.0,0.0,0.0,0.0,0.0,0.0,0.0,0.0,0.0,0.0,0.0,0.0,0.0,0.0,0.0,0.0,0.0,0.0,0.0,0.0,0.0,0.0,0.0,0.0,0.0,0.0,0.0,0.0,0.0,0.0,0.0,0.0,0.0,0.0,0.0,0.0,0.0,0.0,0.0,0.0,0.0,0.0,0.0,0.0,0.0,0.0,0.0,0.0,0.0,0.0,0.0,0.0,0.0,0.0,0.0,0.0,0.0,0.0,0.0,0.0,0.0,0.0,0.0,0.0,0.0,0.0,0.0,0.0,0.0,0.0,0.0,0.0,0.0,0.0,0.0,0.0,0.0,0.0,0.0,0.0,0.0,0.0,0.0,0.0,0.0,0.0,0.0,0.0,0.0,0.0,0.0,0.0,0.0,0.0,0.0,0.0,0.0,0.0,0.0,0.0,0.0,0.0,0.0,0.0,0.0,0.0,0.0,0.0,0.0,0.0,0.0,0.0,0.0,0.0,0.0,0.0,0.0,0.0,0.0,0.0,0.0,0.0,0.0,0.0,0.0,0.0,0.0,0.0,0.0,0.0,0.0,0.0,0.0,0.0,0.0,0.0,0.0,0.0,0.0,0.0,0.0,0.0,0.0,0.0,0.0,0.0,0.0,0.0,0.0,0.0,0.0,0.0,0.0,0.0,0.0,0.0,0.0,0.0,0.0,0.0,0.0,0.0,0.0,0.0,0.0,0.0,0.0,0.0,0.0,0.0,0.0,0.0,0.0,0.0,0.0,0.0,0.0,0.0,0.0,0.0,0.0,0.0,0.0,0.0,0.0,0.0,0.0,0.0,0.0,0.0,0.0,0.0,0.0,0.0,0.0,0.0,0.0,0.0,0.0,0.0,0.0,0.0,0.0,0.0,0.0,0.0,0.0,0.0,0.0,0.0,0.0,0.0,0.0,0.0,0.0,0.0,0.0,0.0,0.0,0.0,0.0,0.0,0.0,0.0,0.0,0.0,0.0,0.0,0.0,0.0,0.0,0.0,0.0,0.0,0.0,0.0,0.0,0.0,0.0,0.0,0.0,0.0,0.0,0.0,0.0,0.0,0.0,0.0,0.0,0.0,0.0,0.0,0.0,0.0,0.0,0.0,0.0,0.0,0.0,0.0,0.0,0.0,0.0,0.0,0.0,0.0,0.0,0.0,0.0,0.0,0.0,0.0,0.0,0.0,0.0,0.0,0.0,0.0,0.0,0.0,0.0,0.0,0.0,0.0,0.0,0.0,0.0,0.0,0.0,0.0,0.0,0.0,0.0,0.0,0.0,0.0,0.0,0.0,0.0,0.0,0.0,0.0,0.0,0.0,0.0,0.0,0.0,0.0,0.0,0.0,0.0,0.0,0.0,0.0,0.0,0.0,0.0,0.0,0.0,0.0,0.0,0.0,0.0,0.0,0.0,0.0,0.0,0.0,0.0,0.0,0.0,0.0,0.0,0.0,0.0,0.0,0.0,0.0,0.0,0.0,0.0,0.0,0.0,0.0,0.0,0.0,0.0,0.0,0.0,0.0,0.0,0.0,0.0,0.0,0.0,0.0,0.0,0.0,0.0,0.0,0.0,0.0,0.0,0.0,0.0,0.0,0.0,0.0,0.0,0.0,0.0,0.0,0.0,0.0,0.0,0.0,0.0,0.0,0.0,0.0,0.0,0.0,0.0,0.0,0.0,0.0,0.0,0.0,0.0,0.0,0.0,0.0,0.0,0.0,0.0,0.0,0.0,0.0,0.0,0.0,0.0,0.0,0.0,0.0,0.0,0.0,0.0,0.0,0.0,0.0,0.0,0.0,0.0,0.0,0.0,0.0,0.0,0.0,0.0,0.0,0.0,0.0,0.0,0.0,0.0,0.0,0.0,0.0,0.0,0.0,0.0,0.0,0.0,0.0,0.0,0.0,0.0,0.0,0.0,0.0,0.0,0.0,0.0,0.0,0.0,0.0,0.0,0.0,0.0,0.0,0.0,0.0,0.0,0.0,0.0,0.0,0.0,0.0,0.0,0.0,0.0,0.0,0.0,0.0,0.0,0.0,0.0,0.0,0.0,0.0,0.0,0.0,0.0,0.0,0.0,0.0,0.0,0.0,0.0,0.0,0.0,0.0,0.0,0.0,0.0,0.0,0.0,0.0,0.0,0.0,0.0,0.0,0.0,0.0,0.0,0.0,0.0,0.0,0.0,0.0,0.0,0.0,0.0,0.0,0.0,0.0,0.0,0.0,0.0,0.0,0.0,0.0,0.0,0.0,0.0,0.0,0.0,0.0,0.0,0.0,0.0,0.0,0.0,0.0,0.0,0.0,0.0,0.0,0.0,0.0,0.0,0.0,0.0,0.0,0.0,0.0,0.0,0.0,0.0,0.0,0.0,0.0,0.0,0.0,0.0,0.0,0.0,0.0,0.0,0.0,0.0,0.0,0.0,0.0,0.0,0.0,0.0,0.0,0.0,0.0,0.0,0.0,0.0,0.0,0.0,0.0,0.0,0.0,0.0,0.0,0.0,0.0,0.0,0.0,0.0,0.0,0.0,0.0,0.0,0.0,0.0,0.0,0.0,0.0,0.0,0.0,0.0,0.0,0.0,0.0,0.0,0.0,0.0,0.0,0.0,0.0,0.0,0.0,0.0,0.0,0.0,0.0,0.0,0.0,0.0,0.0,0.0,0.0,0.0,0.0,0.0,0.0,0.0,0.0,0.0,0.0,0.0,0.0,0.0,0.0,0.0,0.0,0.0,0.0,0.0,0.0,0.0,0.0,0.0,0.0,0.0,0.0,0.0,0.0,0.0,0.0,0.0,0.0,0.0,0.0,0.0,0.0,0.0,0.0,0.0,0.0,0.0,0.0,0.0,0.0,0.0,0.0,0.0,0.0,0.0,0.0,0.0,0.0,0.0,0.0,0.0,0.0,0.0,0.0,0.0,0.0,0.0,0.0,0.0,0.0,0.0,0.0,0.0,0.0,0.0,0.0,0.0,0.0,0.0,0.0,0.0,0.0,0.0,0.0,0.0,0.0,0.0,0.0,0.0,0.0,0.0,0.0,0.0,0.0,0.0,0.0,0.0,0.0,0.0,0.0,0.0,0.0,0.0,0.0,0.0,0.0,0.0,0.0,0.0,0.0,0.0,0.0,0.0,-2.1086,0.0,0.0,0.0,0.0,0.0,0.0,0.0,0.0,0.0,0.0,0.0,0.0,0.0,0.0,0.0,0.0,0.0,0.0,0.0,0.0,0.0,0.0,0.0,0.0,0.0,0.0,0.0,0.0,0.0,0.0,0.0,0.0,0.0,0.0,0.0,0.0,0.0,0.0,0.0,0.0,0.0,0.0,0.0,0.0,0.0,0.0,0.0,0.0,0.0,0.0,0.0,0.0,0.0,0.0,0.0,0.0,0.0,0.0,0.0,0.0,0.0,0.0,0.0,0.0,0.0,0.0,0.0,0.0,0.0,0.0,0.0,0.0,0.0,0.0,0.0,0.0,0.0,0.0,0.0,0.0,0.0,0.0,0.0,0.0,0.0,0.0,0.0,0.0,0.0,0.0,0.0,0.0,0.0,0.0,0.0,0.0,0.0,0.0,0.0,0.0,0.0,0.0,0.0,0.0,0.0,0.0,0.0,0.0,0.0,0.0,-2.1366,-2.1366,-2.1366,-2.1555,-2.1954,0.0,0.0,0.0,0.0,0.0,0.0,0.0,0.0,0.0,0.0,0.0,0.0,0.0,0.0,0.0,0.0,0.0,0.0,0.0,0.0,0.0,0.0,0.0,0.0,0.0,0.0,0.0,0.0,0.0,0.0,0.0,0.0,0.0,0.0,0.0,0.0,0.0,0.0,0.0,0.0,0.0,0.0,0.0,0.0,0.0,0.0,0.0,0.0,0.0,0.0,0.0,0.0,0.0,0.0,0.0,0.0,0.0,0.0,0.0,0.0,0.0,0.0,0.0,0.0,0.0,0.0,0.0,0.0,0.0,0.0,0.0,0.0,0.0,0.0,0.0,0.0,0.0,0.0,0.0,0.0,0.0,0.0,0.0,0.0,0.0,0.0,0.0,0.0,0.0,0.0,0.0,0.0,0.0,0.0,0.0,0.0,0.0,0.0,0.0,0.0,0.0,0.0,0.0,0.0,0.0,0.0,0.0,0.0,0.0,0.0,0.0,0.0,-2.2531,-2.2614,-2.2779,0.0,0.0,0.0,0.0,0.0,0.0,0.0,0.0,0.0,0.0,0.0,0.0,0.0,0.0,0.0,0.0,0.0,0.0,0.0,0.0,0.0,0.0,0.0,0.0,0.0,0.0,0.0,0.0,0.0,0.0,0.0,0.0,0.0,0.0,0.0,0.0,0.0,0.0,0.0,0.0,0.0,0.0,0.0,0.0,0.0,0.0,0.0,0.0,0.0,0.0,0.0,0.0,0.0,0.0,0.0,0.0,0.0,0.0,0.0,0.0,0.0,0.0,0.0,0.0,0.0,0.0,0.0,0.0,0.0,0.0,0.0,0.0,0.0,0.0,0.0,0.0,0.0,0.0,0.0,0.0,0.0,0.0,0.0,0.0,0.0,0.0,0.0,0.0,0.0,0.0,0.0,0.0,0.0,0.0,0.0,0.0,0.0,0.0,0.0,0.0,0.0,0.0,0.0,0.0,0.0,0.0,0.0,0.0,0.0,0.0,-2.2651,-2.2581,-2.2604,0.0,-2.3588,0.0,0.0,0.0,0.0,0.0,0.0,0.0,0.0,0.0,0.0,0.0,0.0,0.0,0.0,0.0,0.0,0.0,0.0,0.0,0.0,0.0,0.0,0.0,0.0,0.0,0.0,0.0,0.0,0.0,0.0,0.0,0.0,0.0,0.0,0.0,0.0,0.0,0.0,0.0,0.0,0.0,0.0,0.0,0.0,0.0,0.0,0.0,0.0,0.0,0.0,0.0,0.0,0.0,0.0,0.0,0.0,0.0,0.0,0.0,0.0,0.0,0.0,0.0,0.0,0.0,0.0,0.0,0.0,0.0,0.0,0.0,0.0,0.0,0.0,0.0,0.0,0.0,0.0,0.0,0.0,0.0,0.0,0.0,0.0,0.0,0.0,0.0,0.0,0.0,0.0,0.0,0.0,0.0,0.0,0.0,0.0,0.0,0.0,0.0,0.0,0.0,0.0,0.0,0.0,0.0,0.0,0.0,0.0,0.0,0.0,-2.254,-2.2536,-2.3086,-2.3725,0.0,0.0,0.0,0.0,0.0,0.0,0.0,0.0,0.0,0.0,0.0,0.0,0.0,0.0,0.0,0.0,0.0,0.0,0.0,0.0,0.0,0.0,0.0,0.0,0.0,0.0,0.0,0.0,0.0,0.0,0.0,0.0,0.0,0.0,0.0,0.0,0.0,0.0,0.0,0.0,0.0,0.0,0.0,0.0,0.0,0.0,0.0,0.0,0.0,0.0,0.0,0.0,0.0,0.0,0.0,0.0,0.0,0.0,0.0,0.0,0.0,0.0,0.0,0.0,0.0,0.0,0.0,0.0,0.0,0.0,0.0,0.0,0.0,0.0,0.0,0.0,0.0,0.0,0.0,0.0,0.0,0.0,0.0,0.0,0.0,0.0,0.0,0.0,0.0,0.0,0.0,0.0,0.0,0.0,0.0,0.0,0.0,0.0,0.0,0.0,0.0,0.0,0.0,0.0,0.0,0.0,0.0,0.0,0.0,0.0,-2.2467,-2.2635,-2.2928,-2.361,-2.4339,-2.5056,0.0,0.0,0.0,0.0,0.0,0.0,0.0,0.0,0.0,0.0,0.0,0.0,0.0,0.0,0.0,0.0,0.0,0.0,0.0,0.0,0.0,0.0,0.0,0.0,0.0,0.0,0.0,0.0,0.0,0.0,0.0,0.0,0.0,0.0,0.0,0.0,0.0,0.0,0.0,0.0,0.0,0.0,0.0,0.0,0.0,0.0,0.0,0.0,0.0,0.0,0.0,0.0,0.0,0.0,0.0,0.0,0.0,0.0,0.0,0.0,0.0,0.0,0.0,0.0,0.0,0.0,0.0,0.0,0.0,0.0,0.0,0.0,0.0,0.0,0.0,0.0,0.0,0.0,0.0,0.0,0.0,0.0,0.0,0.0,0.0,0.0,0.0,0.0,0.0,0.0,0.0,0.0,0.0,0.0,0.0,0.0,0.0,0.0,0.0,0.0,0.0,0.0,0.0,0.0,0.0,0.0,0.0,0.0,-2.2486,-2.2652,-2.313,-2.3832,-2.4107,-2.4476,0.0,0.0,0.0,0.0,0.0,0.0,0.0,0.0,0.0,0.0,0.0,0.0,0.0,0.0,0.0,0.0,0.0,0.0,0.0,0.0,0.0,0.0,0.0,0.0,0.0,0.0,0.0,0.0,0.0,0.0,0.0,0.0,0.0,0.0,0.0,0.0,0.0,0.0,0.0,0.0,0.0,0.0,0.0,0.0,0.0,0.0,0.0,0.0,0.0,0.0,0.0,0.0,0.0,0.0,0.0,0.0,0.0,0.0,0.0,0.0,0.0,0.0,0.0,0.0,0.0,0.0,0.0,0.0,0.0,0.0,0.0,0.0,0.0,0.0,0.0,0.0,0.0,0.0,0.0,0.0,0.0,0.0,0.0,0.0,0.0,0.0,0.0,0.0,0.0,0.0,0.0,0.0,0.0,0.0,0.0,0.0,0.0,0.0,0.0,0.0,0.0,0.0,0.0,0.0,0.0,0.0,0.0,0.0,0.0,-2.0986,-2.1022,-2.1435,-2.2189,-2.2964,-2.3666,0.0,0.0,0.0,0.0,0.0,0.0,0.0,0.0,0.0,0.0,0.0,0.0,0.0,0.0,0.0,0.0,0.0,0.0,0.0,0.0,0.0,0.0,0.0,0.0,0.0,0.0,0.0,0.0,0.0,0.0,0.0,0.0,0.0,0.0,0.0,0.0,0.0,0.0,0.0,0.0,0.0,0.0,0.0,0.0,0.0,0.0,0.0,0.0,0.0,0.0,0.0,0.0,0.0,0.0,0.0,0.0,0.0,0.0,0.0,0.0,0.0,0.0,0.0,0.0,0.0,0.0,0.0,0.0,0.0,0.0,0.0,0.0,0.0,0.0,0.0,0.0,0.0,0.0,0.0,0.0,0.0,0.0,0.0,0.0,0.0,0.0,0.0,0.0,0.0,0.0,0.0,0.0,0.0,0.0,0.0,0.0,0.0,0.0,0.0,0.0,0.0,0.0,0.0,0.0,0.0,0.0,0.0,0.0,0.0,-2.0142,0.0,-2.0413,-2.1261,-2.2295,-2.3176,0.0,0.0,0.0,0.0,0.0,0.0,0.0,0.0,0.0,0.0,0.0,0.0,0.0,0.0,0.0,0.0,0.0,0.0,0.0,0.0,0.0,0.0,0.0,0.0,0.0,0.0,0.0,0.0,0.0,0.0,0.0,0.0,0.0,0.0,0.0,0.0,0.0,0.0,0.0,0.0,0.0,0.0,0.0,0.0,0.0,0.0,0.0,0.0,0.0,0.0,0.0,0.0,0.0,0.0,0.0,0.0,0.0,0.0,0.0,0.0,0.0,0.0,0.0,0.0,0.0,0.0,0.0,0.0,0.0,0.0,0.0,0.0,0.0,0.0,0.0,0.0,0.0,0.0,0.0,0.0,0.0,0.0,0.0,0.0,0.0,0.0,0.0,0.0,0.0,0.0,0.0,0.0,0.0,0.0,0.0,0.0,0.0,0.0,0.0,0.0,0.0,0.0,0.0,0.0,0.0,0.0,0.0,0.0,-2.0296,-2.0115,-2.0021,-2.0449,-2.1378,-2.2268,-2.313,0.0,0.0,0.0,0.0,0.0,0.0,0.0,0.0,0.0,0.0,0.0,0.0,0.0,0.0,0.0,0.0,0.0,0.0,0.0,0.0,0.0,0.0,0.0,0.0,0.0,0.0,0.0,0.0,0.0,0.0,0.0,0.0,0.0,0.0,0.0,0.0,0.0,0.0,0.0,0.0,0.0,0.0,0.0,0.0,0.0,0.0,0.0,0.0,0.0,0.0,0.0,0.0,0.0,0.0,0.0,0.0,0.0,0.0,0.0,0.0,0.0,0.0,0.0,0.0,0.0,0.0,0.0,0.0,0.0,0.0,0.0,0.0,0.0,0.0,0.0,0.0,0.0,0.0,0.0,0.0,0.0,0.0,0.0,0.0,0.0,0.0,0.0,0.0,0.0,0.0,0.0,0.0,0.0,0.0,0.0,0.0,0.0,0.0,0.0,0.0,0.0,0.0,0.0,0.0,0.0,0.0,0.0,0.0,0.0,-2.0296,-2.1155,-2.1476,-2.1263,-2.2707,-2.3609,0.0,0.0,0.0,0.0,0.0,0.0,0.0,0.0,0.0,0.0,0.0,0.0,0.0,0.0,0.0,0.0,0.0,0.0,0.0,0.0,0.0,0.0,0.0,0.0,0.0,0.0,0.0,0.0,0.0,0.0,0.0,0.0,0.0,0.0,0.0,0.0,0.0,0.0,0.0,0.0,0.0,0.0,0.0,0.0,0.0,0.0,0.0,0.0,0.0,0.0,0.0,0.0,0.0,0.0,0.0,0.0,0.0,0.0,0.0,0.0,0.0,0.0,0.0,0.0,0.0,0.0,0.0,0.0,0.0,0.0,0.0,0.0,0.0,0.0,0.0,0.0,0.0,0.0,0.0,0.0,0.0,0.0,0.0,0.0,0.0,0.0,0.0,0.0,0.0,0.0,0.0,0.0,0.0,0.0,0.0,0.0,0.0,0.0,0.0,0.0,0.0,0.0,0.0,0.0,0.0,0.0,0.0,0.0,0.0,-2.1617,-2.2306,-2.2453,-2.1984,-2.346,-2.4125,-2.3812,0.0,0.0,0.0,0.0,0.0,0.0,0.0,0.0,0.0,0.0,0.0,0.0,0.0,0.0,0.0,0.0,0.0,0.0,0.0,0.0,0.0,0.0,0.0,0.0,0.0,0.0,0.0,0.0,0.0,0.0,0.0,0.0,0.0,0.0,0.0,0.0,0.0,0.0,0.0,0.0,0.0,0.0,0.0,0.0,0.0,0.0,0.0,0.0,0.0,0.0,0.0,0.0,0.0,0.0,0.0,0.0,0.0,0.0,0.0,0.0,0.0,0.0,0.0,0.0,0.0,0.0,0.0,0.0,0.0,0.0,0.0,0.0,0.0,0.0,0.0,0.0,0.0,0.0,0.0,0.0,0.0,0.0,0.0,0.0,0.0,0.0,0.0,0.0,0.0,0.0,0.0,0.0,0.0,0.0,0.0,0.0,0.0,0.0,0.0,0.0,0.0,0.0,0.0,0.0,0.0,0.0,0.0,0.0,-2.3817,-2.359,-2.351,-2.3555,-2.4487,-2.4676,0.0,0.0,0.0,0.0,0.0,0.0,0.0,0.0,0.0,0.0,0.0,0.0,0.0,0.0,0.0,0.0,0.0,0.0,0.0,0.0,0.0,0.0,0.0,0.0,0.0,0.0,0.0,0.0,0.0,0.0,0.0,0.0,0.0,0.0,0.0,0.0,0.0,0.0,0.0,0.0,0.0,0.0,0.0,0.0,0.0,0.0,0.0,0.0,0.0,0.0,0.0,0.0,0.0,0.0,0.0,0.0,0.0,0.0,0.0,0.0,0.0,0.0,0.0,0.0,0.0,0.0,0.0,0.0,0.0,0.0,0.0,0.0,0.0,0.0,0.0,0.0,0.0,0.0,0.0,0.0,0.0,0.0,0.0,0.0,0.0,0.0,0.0,0.0,0.0,0.0,0.0,0.0,0.0,0.0,0.0,0.0,0.0,0.0,0.0,0.0,0.0,0.0,0.0,0.0,0.0,0.0,0.0,0.0,0.0,-2.6188,-2.6599,-2.632,-2.53,-2.5597,-2.5739,0.0,0.0,0.0,0.0,0.0,0.0,0.0,0.0,0.0,0.0,0.0,0.0,0.0,0.0,0.0,0.0,0.0,0.0,0.0,0.0,0.0,0.0,0.0,0.0,0.0,0.0,0.0,0.0,0.0,0.0,0.0,0.0,0.0,0.0,0.0,0.0,0.0,0.0,0.0,0.0,0.0,0.0,0.0,0.0,0.0,0.0,0.0,0.0,0.0,0.0,0.0,0.0,0.0,0.0,0.0,0.0,0.0,0.0,0.0,0.0,0.0,0.0,0.0,0.0,0.0,0.0,0.0,0.0,0.0,0.0,0.0,0.0,0.0,0.0,0.0,0.0,0.0,0.0,0.0,0.0,0.0,0.0,0.0,0.0,0.0,0.0,0.0,0.0,0.0,0.0,0.0,0.0,0.0,0.0,0.0,0.0,0.0,0.0,0.0,0.0,0.0,0.0,0.0,0.0,0.0,0.0,0.0,0.0,-2.6789,-2.7045,-2.807,-2.8238,-2.7437,-2.6892,-2.6464,0.0,0.0,0.0,0.0,0.0,0.0,0.0,0.0,0.0,0.0,0.0,0.0,0.0,0.0,0.0,0.0,0.0,0.0,0.0,0.0,0.0,0.0,0.0,0.0,0.0,0.0,0.0,0.0,0.0,0.0,0.0,0.0,0.0,0.0,0.0,0.0,0.0,0.0,0.0,0.0,0.0,0.0,0.0,0.0,0.0,0.0,0.0,0.0,0.0,0.0,0.0,0.0,0.0,0.0,0.0,0.0,0.0,0.0,0.0,0.0,0.0,0.0,0.0,0.0,0.0,0.0,0.0,0.0,0.0,0.0,0.0,0.0,0.0,0.0,0.0,0.0,0.0,0.0,0.0,0.0,0.0,0.0,0.0,0.0,0.0,0.0,0.0,0.0,0.0,0.0,0.0,0.0,0.0,0.0,0.0,0.0,0.0,0.0,0.0,0.0,0.0,0.0,0.0,0.0,0.0,0.0,0.0,0.0,-2.7248,-2.7103,-2.863,-2.9471,-2.9475,-2.8084,-2.7006,0.0,0.0,0.0,0.0,0.0,0.0,0.0,0.0,0.0,0.0,0.0,0.0,0.0,0.0,0.0,0.0,0.0,0.0,0.0,0.0,0.0,0.0,0.0,0.0,0.0,0.0,0.0,0.0,0.0,0.0,0.0,0.0,0.0,0.0,0.0,0.0,0.0,0.0,0.0,0.0,0.0,0.0,0.0,0.0,0.0,0.0,0.0,0.0,0.0,0.0,0.0,0.0,0.0,0.0,0.0,0.0,0.0,0.0,0.0,0.0,0.0,0.0,0.0,0.0,0.0,0.0,0.0,0.0,0.0,0.0,0.0,0.0,0.0,0.0,0.0,0.0,0.0,0.0,0.0,0.0,0.0,0.0,0.0,0.0,0.0,0.0,0.0,0.0,0.0,0.0,0.0,0.0,0.0,0.0,0.0,0.0,0.0,0.0,0.0,0.0,0.0,0.0,0.0,0.0,0.0,0.0,0.0,0.0,-2.7799,-2.8329,-2.9276,-2.977,-2.9718,-2.8152,-2.7282,0.0,0.0,0.0,0.0,0.0,0.0,0.0,0.0,0.0,0.0,0.0,0.0,0.0,0.0,0.0,0.0,0.0,0.0,0.0,0.0,0.0,0.0,0.0,0.0,0.0,0.0,0.0,0.0,0.0,0.0,0.0,0.0,0.0,0.0,0.0,0.0,0.0,0.0,0.0,0.0,0.0,0.0,0.0,0.0,0.0,0.0,0.0,0.0,-2.6541,0.0,0.0,0.0,0.0,0.0,0.0,0.0,0.0,0.0,0.0,0.0,0.0,0.0,0.0,0.0,0.0,0.0,0.0,0.0,0.0,0.0,0.0,0.0,0.0,0.0,0.0,0.0,0.0,0.0,0.0,0.0,0.0,0.0,0.0,0.0,0.0,0.0,0.0,0.0,0.0,0.0,0.0,0.0,0.0,0.0,0.0,0.0,0.0,0.0,0.0,0.0,0.0,0.0,0.0,0.0,0.0,0.0,0.0,0.0,-2.7951,-2.8688,-2.9485,-2.9902,-2.9883,-2.8673,-2.788,0.0,0.0,0.0,0.0,0.0,0.0,0.0,0.0,0.0,0.0,0.0,0.0,0.0,0.0,0.0,0.0,0.0,0.0,0.0,0.0,0.0,0.0,0.0,0.0,0.0,0.0,0.0,0.0,0.0,0.0,0.0,0.0,0.0,0.0,0.0,0.0,0.0,0.0,0.0,0.0,0.0,0.0,0.0,0.0,0.0,0.0,0.0,0.0,0.0,0.0,0.0,0.0,0.0,0.0,0.0,0.0,0.0,0.0,0.0,0.0,0.0,0.0,0.0,0.0,0.0,0.0,0.0,0.0,0.0,0.0,0.0,0.0,0.0,0.0,0.0,0.0,0.0,0.0,0.0,0.0,0.0,0.0,0.0,0.0,0.0,0.0,0.0,0.0,0.0,0.0,0.0,0.0,0.0,0.0,0.0,0.0,0.0,0.0,0.0,0.0,0.0,0.0,0.0,0.0,0.0,0.0,0.0,-2.7294,-2.8063,-2.8954,-2.962,-3.0045,-3.0118,-2.9303,-2.8477,-2.7676,0.0,0.0,0.0,0.0,0.0,0.0,0.0,0.0,0.0,0.0,0.0,0.0,0.0,0.0,0.0,0.0,0.0,0.0,0.0,0.0,0.0,0.0,0.0,0.0,0.0,0.0,0.0,0.0,0.0,0.0,0.0,0.0,0.0,0.0,0.0,0.0,0.0,0.0,-2.5757,-2.5736,0.0,0.0,0.0,0.0,0.0,0.0,0.0,0.0,-2.6449,0.0,0.0,0.0,0.0,0.0,0.0,0.0,0.0,0.0,0.0,0.0,0.0,0.0,0.0,0.0,0.0,0.0,0.0,0.0,0.0,0.0,0.0,0.0,0.0,0.0,0.0,0.0,0.0,0.0,0.0,0.0,0.0,0.0,0.0,0.0,0.0,0.0,0.0,0.0,0.0,0.0,0.0,0.0,0.0,0.0,0.0,0.0,0.0,0.0,0.0,0.0,0.0,0.0,0.0,0.0,0.0,-2.7566,-2.775,-2.8576,-3.0081,-3.0239,-3.0297,-3.0241,-2.948,-2.8679,-2.7871,0.0,0.0,0.0,0.0,0.0,0.0,0.0,0.0,0.0,0.0,0.0,0.0,0.0,0.0,0.0,0.0,0.0,0.0,0.0,0.0,0.0,0.0,0.0,0.0,0.0,0.0,0.0,0.0,0.0,0.0,0.0,0.0,0.0,0.0,0.0,0.0,0.0,0.0,0.0,-2.6081,-2.5915,0.0,0.0,0.0,0.0,0.0,0.0,0.0,0.0,-2.6988,0.0,0.0,0.0,0.0,0.0,0.0,0.0,0.0,0.0,0.0,0.0,0.0,0.0,0.0,0.0,0.0,0.0,0.0,0.0,0.0,0.0,0.0,0.0,0.0,0.0,0.0,0.0,0.0,0.0,0.0,0.0,0.0,0.0,0.0,0.0,0.0,0.0,0.0,0.0,0.0,0.0,0.0,0.0,0.0,0.0,0.0,0.0,0.0,0.0,0.0,0.0,0.0,0.0,0.0,0.0,-2.7802,-2.8294,-2.914,-3.034,-3.0402,-3.0383,-3.0314,-2.9533,-2.8728,0.0,0.0,0.0,0.0,0.0,0.0,0.0,0.0,0.0,0.0,0.0,0.0,0.0,0.0,0.0,0.0,0.0,0.0,0.0,0.0,0.0,0.0,0.0,0.0,0.0,0.0,0.0,0.0,0.0,0.0,0.0,0.0,0.0,0.0,0.0,0.0,0.0,0.0,0.0,0.0,-2.6534,-2.6587,-2.7404,0.0,0.0,0.0,0.0,0.0,0.0,-2.721,-2.7052,0.0,0.0,0.0,0.0,0.0,0.0,0.0,0.0,0.0,0.0,0.0,0.0,0.0,0.0,0.0,0.0,0.0,0.0,0.0,0.0,0.0,0.0,0.0,0.0,0.0,0.0,0.0,0.0,0.0,0.0,0.0,0.0,0.0,0.0,0.0,0.0,0.0,0.0,0.0,0.0,0.0,0.0,0.0,0.0,0.0,0.0,0.0,0.0,0.0,0.0,0.0,0.0,0.0,0.0,0.0,-2.789,-2.8679,-2.9525,-3.034,-3.039,-3.0383,-3.0378,-2.9578,-2.8848,0.0,0.0,0.0,0.0,0.0,0.0,0.0,0.0,0.0,0.0,0.0,0.0,0.0,0.0,0.0,0.0,0.0,0.0,0.0,0.0,0.0,0.0,0.0,0.0,0.0,0.0,0.0,0.0,0.0,0.0,0.0,0.0,0.0,0.0,0.0,0.0,0.0,0.0,0.0,0.0,0.0,-2.7162,-2.7968,-2.7409,0.0,0.0,0.0,0.0,-2.7221,-2.7315,0.0,0.0,0.0,0.0,0.0,0.0,0.0,0.0,0.0,0.0,0.0,0.0,0.0,0.0,0.0,0.0,0.0,0.0,0.0,0.0,0.0,0.0,0.0,0.0,0.0,0.0,0.0,0.0,0.0,0.0,0.0,0.0,0.0,0.0,0.0,0.0,0.0,0.0,0.0,0.0,0.0,0.0,0.0,0.0,0.0,0.0,0.0,0.0,0.0,0.0,0.0,0.0,0.0,0.0,0.0,0.0,-2.789,-2.8679,-2.9525,-3.034,-3.0394,-3.0386,-3.0378,-2.961,-2.9178,0.0,0.0,0.0,0.0,0.0,0.0,0.0,0.0,0.0,0.0,0.0,0.0,0.0,0.0,0.0,0.0,0.0,0.0,0.0,0.0,0.0,0.0,0.0,0.0,0.0,0.0,0.0,0.0,0.0,0.0,0.0,0.0,0.0,0.0,0.0,0.0,0.0,0.0,0.0,0.0,0.0,-2.7123,-2.7983,-2.7413,-2.6893,0.0,0.0,-2.7952,-2.7965,-2.861,0.0,0.0,0.0,0.0,0.0,0.0,0.0,0.0,0.0,0.0,0.0,0.0,0.0,0.0,0.0,0.0,0.0,0.0,0.0,0.0,0.0,0.0,0.0,0.0,0.0,0.0,0.0,0.0,0.0,0.0,0.0,0.0,0.0,0.0,0.0,0.0,0.0,0.0,0.0,0.0,0.0,0.0,0.0,0.0,0.0,0.0,0.0,0.0,0.0,0.0,0.0,0.0,0.0,0.0,0.0,-2.8198,-2.8602,-2.9429,-3.0044,-3.0379,-3.039,-3.0383,-3.0383,-2.9627,-2.9215,0.0,0.0,0.0,0.0,0.0,0.0,0.0,0.0,0.0,0.0,0.0,0.0,0.0,0.0,0.0,0.0,0.0,0.0,0.0,0.0,0.0,0.0,0.0,0.0,0.0,0.0,0.0,0.0,0.0,0.0,0.0,0.0,0.0,0.0,0.0,0.0,0.0,0.0,0.0,0.0,0.0,0.0,-2.8055,-2.7793,0.0,0.0,0.0,-2.7955,-2.7502,0.0,0.0,0.0,0.0,0.0,0.0,0.0,0.0,0.0,0.0,0.0,0.0,0.0,0.0,0.0,0.0,0.0,0.0,0.0,0.0,0.0,0.0,0.0,0.0,0.0,0.0,0.0,0.0,0.0,0.0,0.0,0.0,0.0,0.0,0.0,0.0,0.0,0.0,0.0,0.0,0.0,0.0,0.0,0.0,0.0,0.0,0.0,0.0,0.0,0.0,0.0,0.0,0.0,0.0,0.0,0.0,0.0,-2.9121,-2.9967,-3.0398,-3.0398,-3.0398,-3.039,-3.0402,-2.9828,0.0,0.0,0.0,0.0,0.0,0.0,0.0,0.0,0.0,0.0,0.0,0.0,0.0,0.0,0.0,0.0,0.0,0.0,0.0,0.0,0.0,0.0,0.0,0.0,0.0,0.0,0.0,-2.5724,0.0,0.0,0.0,0.0,0.0,0.0,0.0,0.0,0.0,0.0,0.0,0.0,0.0,0.0,-2.8115,-2.8102,-2.8106,-2.8164,0.0,0.0,-2.7965,-2.7571,-2.8728,-2.9149,0.0,0.0,0.0,0.0,0.0,0.0,0.0,0.0,0.0,0.0,0.0,0.0,0.0,0.0,0.0,0.0,0.0,0.0,0.0,0.0,0.0,0.0,0.0,0.0,0.0,0.0,0.0,0.0,0.0,0.0,0.0,0.0,0.0,0.0,0.0,0.0,0.0,0.0,0.0,0.0,0.0,0.0,0.0,0.0,0.0,0.0,0.0,0.0,0.0,0.0,0.0,0.0,0.0,0.0,0.0,-2.9151,-2.9967,-3.0398,-3.0398,-3.0398,-3.0402,-3.0386,-3.04,-3.0393,0.0,0.0,0.0,0.0,0.0,0.0,0.0,0.0,0.0,0.0,0.0,0.0,0.0,0.0,0.0,0.0,0.0,0.0,0.0,0.0,0.0,0.0,0.0,0.0,0.0,0.0,0.0,0.0,0.0,0.0,0.0,0.0,0.0,0.0,0.0,0.0,0.0,0.0,0.0,0.0,0.0,-2.8115,-2.8106,-2.81,-2.8365,0.0,0.0,-2.8333,-2.9007,-2.9881,-2.9951,-2.8271,0.0,0.0,0.0,0.0,0.0,0.0,0.0,0.0,0.0,0.0,0.0,0.0,0.0,0.0,0.0,0.0,0.0,0.0,0.0,0.0,0.0,0.0,0.0,0.0,0.0,0.0,0.0,0.0,0.0,0.0,0.0,0.0,0.0,0.0,0.0,0.0,0.0,0.0,0.0,0.0,0.0,0.0,0.0,0.0,0.0,0.0,0.0,0.0,0.0,0.0,0.0,0.0,0.0,-2.991,-2.991,-3.0225,-3.0398,-3.0398,-3.0398,-3.039,-3.0402,-3.0436,-3.0469,0.0,0.0,0.0,0.0,0.0,0.0,0.0,0.0,0.0,0.0,0.0,0.0,0.0,0.0,0.0,0.0,0.0,0.0,0.0,0.0,0.0,0.0,0.0,0.0,0.0,0.0,0.0,0.0,-2.731,-2.731,-2.6818,0.0,0.0,0.0,0.0,0.0,0.0,0.0,0.0,0.0,0.0,-2.8279,-2.8811,-2.8899,0.0,0.0,-2.9076,-2.8794,-2.8537,-2.9256,-2.9297,-2.7576,-2.7761,0.0,0.0,0.0,0.0,0.0,0.0,0.0,0.0,0.0,0.0,0.0,0.0,0.0,0.0,0.0,0.0,0.0,0.0,0.0,0.0,0.0,0.0,0.0,0.0,0.0,0.0,0.0,0.0,0.0,0.0,0.0,0.0,0.0,0.0,0.0,0.0,0.0,0.0,0.0,0.0,0.0,0.0,0.0,0.0,0.0,0.0,0.0,0.0,0.0,0.0,0.0,0.0,-3.081,-3.0782,-3.1025,-3.1141,-3.116,-3.116,-3.116,-3.1191,-3.1168,-3.121,0.0,0.0,0.0,0.0,0.0,0.0,0.0,0.0,0.0,0.0,0.0,0.0,0.0,0.0,0.0,0.0,0.0,0.0,0.0,0.0,0.0,0.0,0.0,0.0,0.0,0.0,0.0,0.0,-2.7484,-2.7426,-2.6895,0.0,0.0,0.0,0.0,0.0,0.0,0.0,0.0,0.0,0.0,-2.8593,-2.8945,-2.9206,-2.9312,-2.8983,-2.9003,-2.8799,-2.8133,-2.8803,-2.8916,-2.7429,0.0,0.0,0.0,0.0,0.0,0.0,0.0,0.0,0.0,0.0,0.0,0.0,0.0,0.0,0.0,0.0,0.0,0.0,0.0,0.0,0.0,0.0,0.0,0.0,0.0,0.0,0.0,-2.8145,0.0,0.0,-2.7995,0.0,0.0,0.0,0.0,0.0,0.0,0.0,0.0,0.0,0.0,0.0,0.0,0.0,0.0,0.0,0.0,0.0,0.0,0.0,0.0,0.0,0.0,-3.1716,-3.1679,-3.2391,-3.2814,-3.2814,-3.2833,-3.2827,-3.2883,-3.2918,-3.296,-3.2982,0.0,0.0,0.0,0.0,0.0,0.0,0.0,0.0,0.0,0.0,0.0,0.0,0.0,0.0,0.0,0.0,0.0,0.0,0.0,0.0,0.0,0.0,0.0,0.0,0.0,0.0,-2.5724,-2.6343,-2.6857,0.0,0.0,0.0,0.0,0.0,0.0,0.0,0.0,0.0,0.0,-2.8275,-2.9038,-2.8197,-2.8827,-2.9108,-2.8278,-2.821,-2.8202,-2.8139,-2.8822,-2.9106,0.0,0.0,0.0,0.0,0.0,0.0,0.0,0.0,0.0,0.0,0.0,0.0,0.0,0.0,0.0,0.0,0.0,0.0,0.0,0.0,0.0,0.0,0.0,0.0,0.0,0.0,0.0,-2.8656,-2.8656,0.0,0.0,0.0,0.0,0.0,0.0,0.0,0.0,0.0,0.0,0.0,-2.9765,-2.97,0.0,0.0,0.0,0.0,0.0,0.0,0.0,0.0,0.0,0.0,0.0,0.0,-3.1727,-3.1737,-3.2487,-3.2891,-3.2891,-3.2891,-3.2923,-3.2979,-3.2991,-3.3014,-3.3018,0.0,0.0,0.0,0.0,0.0,0.0,0.0,0.0,0.0,0.0,0.0,0.0,0.0,0.0,0.0,0.0,0.0,0.0,0.0,0.0,0.0,0.0,0.0,0.0,0.0,-2.6605,0.0,0.0,0.0,0.0,0.0,0.0,0.0,0.0,0.0,0.0,0.0,-2.7265,-2.8377,-2.8493,-2.857,-2.8808,-2.9147,-2.9205,0.0,0.0,0.0,0.0,0.0,0.0,0.0,0.0,0.0,0.0,0.0,0.0,0.0,0.0,-3.0814,-2.854,-2.8137,-2.804,-2.7768,0.0,0.0,0.0,0.0,0.0,0.0,0.0,0.0,0.0,0.0,0.0,0.0,0.0,0.0,-2.9257,0.0,-2.9257,0.0,0.0,0.0,0.0,0.0,0.0,0.0,0.0,-3.0033,-3.0113,-3.0185,-3.0132,-3.0407,0.0,-3.1423,-3.1497,0.0,0.0,0.0,0.0,0.0,0.0,0.0,0.0,-3.2151,-3.2179,-3.3237,-3.3795,-3.3795,-3.3814,-3.3827,-3.3865,-3.3897,-3.3897,-3.3782,-3.3557,-3.3064,0.0,0.0,0.0,0.0,0.0,0.0,0.0,0.0,0.0,0.0,0.0,0.0,0.0,0.0,0.0,0.0,0.0,0.0,0.0,0.0,0.0,0.0,0.0,-2.6848,0.0,0.0,0.0,0.0,0.0,0.0,0.0,0.0,0.0,-2.691,-2.7361,-2.7997,-2.8809,-2.9147,-2.9224,-2.8896,0.0,0.0,0.0,0.0,0.0,0.0,0.0,-2.9641,-2.9052,-3.0,-3.0966,-3.1481,-3.2461,-3.3165,-3.3199,0.0,0.0,-3.0268,-2.9887,-2.979,-2.9479,-2.9594,-2.966,-2.9313,-2.9407,-2.9525,0.0,0.0,0.0,0.0,0.0,0.0,0.0,0.0,-2.9928,-2.9928,0.0,-2.9928,0.0,0.0,0.0,0.0,0.0,-3.0731,0.0,0.0,-3.0433,-3.0828,-3.1104,-3.114,-3.1659,-3.2546,-3.2419,-3.2559,-3.2903,-3.2954,0.0,0.0,0.0,0.0,0.0,0.0,-3.2971,-3.2987,-3.4603,-3.5468,-3.5468,-3.5468,-3.5463,-3.5445,-3.5521,-3.547,-3.5258,-3.4457,-3.3941,-3.3686,-3.2354,0.0,0.0,0.0,0.0,0.0,0.0,0.0,0.0,0.0,0.0,0.0,0.0,0.0,0.0,0.0,0.0,0.0,0.0,0.0,0.0,-2.7257,0.0,0.0,0.0,0.0,0.0,0.0,0.0,0.0,0.0,0.0,-2.7127,-2.8356,-2.909,-2.8238,0.0,0.0,0.0,0.0,-3.0963,-2.8573,-2.8925,-2.9231,-2.845,-2.9652,-3.0694,-3.0676,0.0,0.0,-3.3227,-3.3209,-3.3248,-3.3276,-3.3326,-3.3209,-3.3222,-3.3037,-3.2765,-3.2047,-3.2338,-3.2604,-3.1903,-3.1988,-3.2497,-3.0668,0.0,0.0,0.0,0.0,-2.9964,-3.0198,-3.061,-3.0562,-3.058,-3.0682,-3.0581,0.0,0.0,0.0,0.0,0.0,0.0,-3.0983,-3.0657,-3.1558,-3.2011,-3.1938,-3.1955,-3.2191,-3.2688,-3.3195,-3.3574,-3.3859,-3.4474,-3.3692,-3.1655,0.0,0.0,0.0,0.0,-3.3236,-3.3853,-3.493,-3.5507,-3.5507,-3.5507,-3.5501,-3.5496,-3.556,-3.5476,-3.5251,-3.5002,-3.4467,-3.3672,-3.3315,0.0,0.0,0.0,0.0,0.0,0.0,0.0,0.0,0.0,0.0,0.0,0.0,0.0,0.0,0.0,0.0,0.0,0.0,0.0,-2.7981,-2.8271,-2.8348,0.0,0.0,0.0,0.0,0.0,0.0,0.0,0.0,0.0,-2.9553,-2.9399,-2.9457,0.0,0.0,-2.9747,-2.9012,-3.0104,-3.0723,-3.0007,-3.0598,0.0,-3.1602,-3.2111,-3.2438,-3.2386,-3.3316,-3.4052,-3.4042,-3.4545,-3.496,-3.499,-3.496,-3.496,-3.4903,-3.3945,-3.3132,-3.2832,-3.2907,-3.2918,-3.269,-3.2724,-3.2793,-3.0762,-3.0396,-3.0057,-2.9832,-2.9728,-2.9685,-2.985,-3.0183,-3.0493,-3.0646,-3.0748,-3.1019,-3.1073,-3.0982,-3.0982,0.0,0.0,0.0,-3.1646,-3.1506,-3.2245,-3.2765,-3.2999,-3.3067,-3.3318,-3.3825,-3.427,-3.4563,-3.4718,-3.4859,-3.4153,-3.2654,0.0,0.0,-3.2199,-3.3006,-3.368,-3.4199,-3.5064,-3.5507,-3.5507,-3.5501,-3.5468,-3.5374,-3.5416,-3.5277,-3.4962,-3.4962,-3.4605,-3.386,-3.3734,-3.3234,0.0,0.0,0.0,0.0,0.0,0.0,0.0,0.0,0.0,0.0,0.0,-3.084,-3.094,0.0,0.0,0.0,-3.04,-2.989,-2.8991,-2.9079,0.0,0.0,0.0,0.0,0.0,0.0,0.0,-2.9071,-3.025,-3.1062,-3.1081,-3.0926,-3.0868,-3.1043,-3.1217,-3.1062,-3.0385,0.0,-3.199,-3.1642,-3.201,-3.2483,-3.3005,-3.3422,-3.3895,-3.4546,-3.5347,-3.5908,-3.5968,-3.6383,-3.669,-3.6709,-3.669,-3.669,-3.669,-3.582,-3.4861,-3.4272,-3.4105,-3.406,-3.4005,-3.3961,-3.393,-3.1403,-3.1311,-3.041,-2.9888,-2.9664,-2.9664,-2.9502,-2.9274,-3.0083,-3.042,-3.048,-3.1246,-3.1723,-3.1942,-3.2298,0.0,-3.196,-3.2372,-3.2536,-3.2446,-3.2711,-3.3306,-3.4183,-3.4263,-3.4705,-3.546,-3.5446,-3.5427,-3.5422,-3.4606,-3.4178,-3.4166,-3.4166,-3.3743,-3.2987,-3.368,-3.4122,-3.4218,-3.4988,-3.5449,-3.5507,-3.5509,-3.5402,-3.5209,-3.5184,-3.4997,-3.4645,-3.4602,-3.4473,-3.4203,-3.3813,-3.3563,-3.345,0.0,0.0,0.0,0.0,0.0,0.0,0.0,0.0,0.0,0.0,0.0,0.0,0.0,0.0,0.0,-3.2013,0.0,-3.0679,-2.9943,0.0,0.0,0.0,-2.9815,-3.0636,-3.0762,-3.0791,-3.081,0.0,0.0,-3.201,-3.2706,-3.2928,-3.2222,-3.3363,-3.3712,-3.2126,-3.3267,-3.4118,-3.3402,-3.3383,-3.3441,-3.3857,-3.4419,-3.534,-3.6686,-3.771,-3.8067,-3.8111,-3.8117,-3.816,-3.8102,-3.8199,-3.816,-3.8199,-3.8005,-3.7735,-3.6149,-3.5897,-3.5855,-3.5746,-3.5821,-3.5844,-3.1403,-3.1372,-3.1127,-3.1024,-3.0969,-3.0993,-3.0983,-3.0943,-3.1246,-3.1417,-3.1548,-3.1621,-3.1805,-3.1981,-3.2083,-3.2184,-3.2317,-3.3032,-3.3405,-3.3584,-3.4355,-3.4865,-3.5086,-3.5124,-3.5158,-3.5254,-3.5398,-3.5398,-3.5273,-3.5047,-3.4607,-3.4006,-3.3972,-3.3609,-3.2949,-3.3103,-3.3526,-3.418,-3.441,-3.4834,-3.5468,-3.5488,-3.5398,-3.519,-3.5171,-3.5,-3.4623,-3.4602,-3.4473,-3.4221,-3.4199,-3.392,-3.3366,-3.2667,0.0,0.0,0.0,0.0,0.0,0.0,0.0,0.0,0.0,-3.0489,-3.0652,0.0,-3.0592,0.0,-3.1371,-3.1881,-3.2331,-3.2254,0.0,0.0,-3.1709,-3.1536,-3.2376,-3.2502,-3.2502,-3.2502,-3.3267,-3.377,-3.3789,-3.3963,-3.4253,-3.4679,-3.3982,-3.3247,-3.2861,-3.3712,-3.4582,-3.5027,-3.5588,-3.6256,-3.6802,-3.7269,-3.7502,-3.7865,-3.8147,-3.8255,-3.8241,-3.821,-3.8218,-3.8218,-3.8218,-3.8218,-3.8257,-3.8218,-3.8121,-3.7696,-3.7618,-3.7588,-3.7564,-3.7568,-3.7588,-3.3568,-3.3568,-3.3587,-3.3568,-3.3485,-3.2077,-3.1452,-3.1489,-3.1942,-3.2181,-3.2293,-3.2575,-3.2747,-3.2841,-3.3019,-3.3088,-3.3152,-3.3788,-3.4093,-3.4207,-3.4807,-3.5086,-3.5086,-3.5122,-3.5088,-3.5018,-3.5157,-3.5176,-3.5018,-3.5035,-3.4807,-3.4312,-3.4331,-3.3963,-3.3238,-3.2948,-3.3048,-3.3508,-3.3795,-3.4362,-3.5203,-3.5242,-3.5174,-3.5053,-3.4602,-3.4245,-3.4022,-3.3596,-3.3321,-3.3276,-3.3321,-3.3224,-3.29,-3.222,-3.1713,0.0,0.0,0.0,0.0,0.0,0.0,0.0,0.0,0.0,0.0,0.0,-3.1245,-3.1358,-3.2238,-3.2801,-3.2845,-3.2923,-3.3102,-3.343,-3.3106,-3.318,-3.4029,-3.4202,-3.4253,-3.4272,-3.4679,-3.4969,-3.4988,-3.5298,-3.5684,-3.6168,-3.5742,-3.522,-3.4949,-3.553,-3.6265,-3.6767,-3.7193,-3.763,-3.8186,-3.8606,-3.8868,-3.8822,-3.9143,-3.9395,-3.9359,-3.9359,-3.9359,-3.9359,-3.9359,-3.9359,-3.9359,-3.934,-3.9359,-3.9359,-3.9359,-3.9069,-3.8373,-3.8218,-3.8218,-3.6285,-3.6285,-3.6285,-3.6285,-3.6083,-3.322,-3.1971,-3.188,-3.258,-3.2863,-3.29,-3.3652,-3.3947,-3.3921,-3.4197,-3.4264,-3.4117,-3.4502,-3.463,-3.4542,-3.4651,-3.4713,-3.4733,-3.4773,-3.4773,-3.4773,-3.4851,-3.4851,-3.4792,-3.485,-3.485,-3.4792,-3.4831,-3.4472,-3.3734,-3.3192,-3.2909,-3.2829,-3.3572,-3.4338,-3.5078,-3.5002,-3.4927,-3.487,-3.3956,-3.3438,-3.3395,-3.2452,-3.2039,-3.221,-3.2075,-3.2139,-3.2449,-3.1656,-3.133,0.0,-3.091,0.0,0.0,0.0,0.0,0.0,0.0,0.0,0.0,-3.2424,-3.2552,-3.281,-3.3614,-3.3801,-3.3104,-3.3111,-3.3407,-3.4033,-3.4279,-3.4668,-3.5335,-3.5589,-3.5742,-3.5839,-3.5839,-3.5878,-3.6052,-3.6632,-3.7058,-3.7116,-3.7715,-3.787,-3.7425,-3.7677,-3.8063,-3.8315,-3.847,-3.8667,-3.8752,-3.9228,-3.9685,-3.9739,-4.0196,-4.0784,-4.0706,-4.0713,-4.0752,-4.0732,-4.0667,-4.0718,-4.0803,-4.0757,-4.0757,-4.068,-4.066,-4.0222,-3.905,-3.8702,-3.8547,-3.6285,-3.6285,-3.6285,-3.6285,-3.6248,-3.5642,-3.4963,-3.4302,-3.3868,-3.3674,-3.3692,-3.3787,-3.3887,-3.3895,-3.3972,-3.4148,-3.4386,-3.4498,-3.4607,-3.4752,-3.4792,-3.4773,-3.4792,-3.4714,-3.4693,-3.4647,-3.4752,-3.4752,-3.4626,-3.4666,-3.4647,-3.4645,-3.4586,-3.4492,-3.4341,0.0,0.0,0.0,-3.5035,-3.5963,-3.6096,-3.5467,-3.5072,-3.4908,-3.454,0.0,-3.4013,-3.3217,-3.279,-3.2817,-3.218,0.0,0.0,0.0,0.0,0.0,0.0,0.0,0.0,0.0,0.0,0.0,-3.2454,-3.2419,-3.2556,-3.2564,-3.2866,-3.3573,-3.388,-3.4236,-3.476,-3.4908,-3.5053,-3.5174,-3.5302,-3.5477,-3.5631,-3.5673,-3.5936,-3.6593,-3.669,-3.6942,-3.756,-3.787,-3.7967,-3.8005,-3.8721,-3.9158,-3.9011,-3.8566,-3.8528,-3.912,-3.9743,-4.025,-4.0319,-4.0447,-4.0516,-4.0626,-4.0645,-4.08,-4.0803,-4.0803,-4.079,-4.0803,-4.08,-4.0815,-4.0815,-4.0828,-4.0858,-4.0796,-4.0815,-4.0696,-4.0377,-4.0307,-4.0307,-3.7477,-3.7477,-3.7477,-3.7477,0.0,-3.7074,-3.6633,-3.6193,-3.5413,-3.5092,-3.5073,-3.5064,-3.5064,-3.5092,-3.5174,-3.5288,-3.551,-3.5565,-3.56,-3.5689,-3.5666,-3.5624,-3.5576,-3.5576,-3.5571,-3.5541,-3.5689,-3.5689,-3.5613,-3.5637,-3.5613,-3.5589,-3.5595,-3.5595,-3.5613,-3.5987,-3.5624,-3.4561,-3.548,-3.6144,-3.6521,-3.6144,-3.5918,-3.5899,-3.5364,0.0,0.0,0.0,0.0,0.0,0.0,0.0,0.0,-3.3692,0.0,-3.3601,-3.3384,-3.3239,-3.3258,-3.3239,-3.3396,-3.3726,-3.3728,-3.3557,-3.3175,-3.357,-3.402,-3.4435,-3.4634,-3.4899,-3.5247,-3.5435,-3.5443,-3.5326,-3.5489,-3.5719,-3.6068,-3.6226,-3.6613,-3.7367,-3.756,-3.7735,-3.8141,-3.8605,-3.8818,-3.8895,-3.9572,-4.0113,-4.0126,-3.9785,-3.9688,-4.0075,-4.0467,-4.0788,-4.0815,-4.082,-4.0854,-4.0796,-4.0808,-4.08,-4.08,-4.08,-4.0812,-4.0815,-4.0848,-4.0839,-4.0798,-4.0849,-4.0888,-4.0834,-4.0804,-4.0804,-4.0815,-4.079,-4.079,-3.8707,-3.8707,-3.8707,-3.8707,-3.8652,-3.7973,-3.7716,-3.7643,0.0,0.0,0.0,-3.6285,-3.6285,-3.6303,-3.6417,-3.6482,-3.6482,-3.6599,-3.6626,-3.6564,-3.6509,-3.6454,-3.6398,-3.6473,-3.6509,-3.6537,-3.6626,-3.666,-3.6607,-3.6679,-3.6753,-3.6838,-3.6883,-3.6983,-3.7151,-3.7782,-3.7466,-3.6185,-3.6031,-3.6298,-3.6931,-3.6838,-3.6827,-3.7,-3.6168,-3.5783,-3.5937,-3.4987,-3.4516,-3.4678,-3.4483,-3.4529,-3.4851,-3.4955,-3.4732,-3.4221,-3.4283,-3.4358,-3.4358,-3.4358,-3.4643,-3.5306,-3.5344,-3.4927,-3.3979,-3.462,-3.507,-3.507,-3.5266,-3.5417,-3.5446,-3.5571,-3.5614,-3.5541,-3.5752,-3.6166,-3.6723,-3.6953,-3.7372,-3.8177,-3.8338,-3.8459,-3.8665,-3.9257,-3.9714,-3.9804,-4.0288,-4.0887,-4.0965,-4.079,-4.0732,-4.0965,-4.1074,-4.1081,-4.1235,-4.1345,-4.1216,-4.139,-4.1332,-4.1241,-4.1238,-4.1241,-4.1294,-4.147,-4.1354,-4.1383,-4.1324,-4.1432,-4.1267,-4.1071,-4.1044,-4.0978,-4.0834,-4.079,-4.079,-3.8707,-3.8707,-3.8707,-3.8707,-3.8707,-3.8579,-3.8542,-3.8395,-3.6945,-3.6303,-3.6285,-3.6285,-3.6285,-3.6285,-3.6313,-3.6342,-3.6398,-3.6445,-3.6408,-3.6426,-3.6426,-3.6398,-3.6417,-3.6398,-3.6482,-3.6591,-3.6618,-3.6652,-3.6705,-3.6705,-3.7039,-3.7652,-3.7726,-3.8061,-3.8711,-3.8878,-3.8822,-3.8581,-3.8084,-3.7847,-3.7978,-3.7309,-3.6953,-3.6977,-3.6702,-3.6545,-3.6552,-3.5783,-3.5318,-3.5343,-3.4636,-3.4628,-3.5502,-3.5672,-3.5985,-3.6696,-3.6818,-3.6879,-3.686,-3.686,-3.6917,-3.703,-3.7049,-3.6405,-3.4908,-3.4851,-3.4926,-3.4945,-3.5077,-3.5286,-3.5951,-3.6212,-3.653,-3.7088,-3.7343,-3.752,-3.7603,-3.767,-3.8028,-3.8888,-3.8972,-3.9304,-3.9894,-4.0198,-4.0356,-4.0552,-4.0862,-4.11,-4.1571,-4.1235,-4.1139,-4.1661,-4.1835,-4.2144,-4.2589,-4.2918,-4.2802,-4.2957,-4.2841,-4.2757,-4.2744,-4.278,-4.2826,-4.2981,-4.2918,-4.2985,-4.3005,-4.3131,-4.2694,-4.2086,-4.192,-4.1714,-4.1132,-4.0933,-4.0848,-3.949,-3.9282,-3.9282,-3.9282,-3.9335,-3.9543,-3.978,-3.9955,-3.9239,-3.8414,-3.7624,-3.7606,-3.7606,-3.7606,-3.7676,-3.7706,-3.7687,-3.7774,-3.7774,-3.7706,-3.7706,-3.7658,-3.7665,-3.7676,-3.7745,-3.783,-3.7868,-3.7923,-3.8005,-3.7986,-3.8191,-3.8544,-3.8544,-3.8729,-3.9082,-3.9101,-3.9101,-3.9101,-3.8819,-3.8667,-3.8693,-3.8338,-3.8152,-3.8152,-3.804,-3.8005,-3.8005,-3.7634,-3.75,-3.756,-3.7262,-3.7299,-3.7722,-3.7928,-3.7999,-3.7961,-3.8048,-3.7883,-3.7428,-3.739,-3.739,-3.739,-3.739,-3.7106,-3.6329,-3.6312,-3.635,-3.6369,-3.6442,-3.6611,-3.7011,-3.7122,-3.7292,-3.7565,-3.7728,-3.797,-3.832,-3.8467,-3.8827,-3.9591,-3.9744,-3.9915,-4.0326,-4.0399,-4.063,-4.1116,-4.1639,-4.2184,-4.2551,-4.2375,-4.226,-4.2628,-4.2725,-4.2841,-4.3247,-4.3305,-4.3305,-4.3305,-4.3305,-4.3331,-4.3393,-4.3458,-4.349,-4.351,-4.3553,-4.3525,-4.352,-4.349,-4.3248,-4.2986,-4.278,-4.2543,-4.213,-4.1702,-4.1247,-4.0109,-3.9783,-3.9783,-3.9783,-3.9822,-4.0164,-4.0545,-4.0943,-4.0906,-4.028,-3.9331,-3.9258,-3.9258,-3.9221,-3.916,-3.9098,-3.9061,-3.8984,-3.8892,-3.8822,-3.8773,-3.878,-3.8719,-3.8792,-3.8833,-3.8921,-3.8979,-3.9045,-3.9101,-3.9101,-3.9101,-3.9101,-3.9101,-3.9101,-3.9101,-3.9101,-3.9101,-3.9101,-3.9101,-3.9101,-3.9101,-3.9101,-3.9082,-3.9101,-3.9082,-3.9101,-3.9101,-3.9101,-3.9156,-3.9245,-3.9383,-3.9458,-3.9483,-3.9717,-3.9542,-3.8912,-3.8921,-3.866,-3.8035,-3.7959,-3.7959,-3.7959,-3.7959,-3.7978,-3.7979,-3.806,-3.7947,-3.7642,-3.7563,-3.7712,-3.7941,-3.798,-3.8038,-3.808,-3.8193,-3.8536,-3.9033,-3.9223,-3.9506,-4.0117,-4.0366,-4.0519,-4.0574,-4.0708,-4.1147,-4.1853,-4.2727,-4.3278,-4.3333,-4.3563,-4.3762,-4.3738,-4.367,-4.373,-4.3788,-4.3924,-4.3962,-4.3846,-4.3904,-4.4073,-4.4125,-4.4092,-4.4093,-4.4253,-4.4238,-4.4264,-4.4122,-4.4093,-4.3984,-4.3731,-4.3589,-4.3432,-4.2941,-4.2467,-4.1859,-3.9839,-3.9783,-3.9815,-3.9783,-3.9854,-3.9875,-4.0143,-4.0545,-4.0491,-4.0664,-4.0877,-4.0891,-4.0873,-4.0781,-4.0134,-3.9834,-3.9841,-3.9172,-3.8859,-3.8895,-3.8792,-3.8792,-3.8884,-3.8907,-3.8939,-3.9053,-3.9138,-3.9203,-3.9175,-3.9101,-3.9101,-3.9101,-3.9101,-3.9101,-3.9101,-3.9101,-3.9101,-3.9101,-3.9101,-3.9101,-3.9101,-3.9101,-3.9101,-3.9101,-3.9101,-3.9101,-3.9101,-3.9101,-3.9101,-3.9129,-3.9245,-3.9376,-3.9502,-3.9647,-3.9724,-3.9735,-3.9757,-3.9759,-3.9665,-3.9643,-3.9586,-3.9643,-3.9567,-3.957,-3.9567,-3.9627,-3.9022,-3.7924,-3.7507,-3.7906,-3.8493,-3.8609,-3.8874,-3.9404,-3.9537,-3.9724,-3.9802,-3.9819,-3.9878,-3.9935,-4.0737,-4.1176,-4.132,-4.1856,-4.2392,-4.2604,-4.3445,-4.4038,-4.4077,-4.4574,-4.4994,-4.5012,-4.48,-4.4785,-4.5206,-4.5548,-4.5307,-4.5399,-4.549,-4.5382,-4.5338,-4.5475,-4.5735,-4.5229,-4.559,-4.5531,-4.5526,-4.5646,-4.5273,-4.4573,-4.4253,-4.3965,-4.3136,-4.2849,-4.2535,-4.0672,-4.0447,-4.0447,-4.0604,-4.08,-4.08,-4.1194,-4.1849,-4.1886,-4.2122,-4.2472,-4.2525,-4.2011,-4.1111,-4.0822,-4.0738,-4.0688,-4.0468,-4.032,-4.0209,-4.0209,-4.0197,-4.0165,-4.0184,-4.0259,-4.0344,-4.0404,-4.0222,-3.9844,-3.9342,-3.9101,-3.9101,-3.9101,-3.9101,-3.9101,-3.9101,-3.9101,-3.9101,-3.9101,-3.9101,-3.9101,-3.9101,-3.9101,-3.9101,-3.9101,-3.9101,-3.9101,-3.9101,-3.911,-3.9219,-3.9331,-3.9477,-3.9623,-3.9739,-3.9845,-3.9889,-3.9889,-3.9889,-3.9889,-3.9889,-3.9889,-3.9889,-3.9889,-3.9889,-3.9889,-3.9889,-3.9589,-3.9058,-3.8888,-3.9058,-3.9342,-3.9399,-3.9551,-3.9813,-3.9889,-4.0079,-4.0631,-4.0669,-4.0817,-4.1294,-4.1673,-4.1942,-4.2104,-4.2734,-4.3232,-4.3431,-4.4126,-4.4687,-4.4763,-4.515,-4.5362,-4.5381,-4.5185,-4.5218,-4.5524,-4.5563,-4.5563,-4.5563,-4.5563,-4.5577,-4.5723,-4.5684,-4.5708,-4.5757,-4.5803,-4.5796,-4.5592,-4.5654,-4.5488,-4.506,-4.4957,-4.4671,-4.4287,-4.3866,-4.3446,-4.1163,-4.0935,-4.0965,-4.1117,-4.1311,-4.1401,-4.1864,-4.2555,-4.2555,-4.277,-4.3214,-4.3178,-4.2522,-4.1537,-4.1511,-4.1517,-4.1383,-4.1346,-4.1285,-4.1121,-4.1005,-4.0906,-4.0857,-4.0857,-4.0906,-4.1052,-4.1048,-4.0935,-4.0563,-4.0036,-3.9713,-3.9751,-3.9565,-3.9454,-3.9435,-3.9268,-3.9101,-3.9101,-3.9101,-3.9101,-3.9101,-3.9101,-3.9101,-3.9101,-3.9101,-3.9101,-3.9101,-3.9101,-3.9183,-3.9279,-3.9408,-3.9575,-3.9693,-3.9826,-3.9889,-3.9889,-3.9889,-3.9889,-3.9889,-3.9889,-3.9889,-3.9889,-3.9889,-3.9889,-3.9889,-3.9889,-3.9889,-3.9832,-3.9889,-3.9832,-3.9889,-3.9889,-4.0006,-4.0195,-4.0249,-4.0612,-4.1389,-4.1541,-4.1749,-4.2318,-4.2545,-4.2867,-4.3114,-4.3644,-4.4047,-4.4147,-4.4634,-4.5125,-4.5125,-4.5175,-4.5241,-4.5262,-4.5241,-4.5302,-4.5381,-4.5438,-4.54,-4.5419,-4.5457,-4.5512,-4.5599,-4.556,-4.556,-4.5733,-4.5638,-4.5571,-4.556,-4.5509,-4.5437,-4.5361,-4.5239,-4.5115,-4.4925,-4.4584,-4.4355,-4.0935,-4.0918,-4.1117,-4.1071,-4.0982,-4.118,-4.149,-4.2008,-4.1753,-4.199,-4.2519,-4.24,-4.2244,-4.2069,-4.2122,-4.2093,-4.1809,-4.1311,-4.1104,-4.1101,-4.0652,-4.0293,-4.0203,-4.0275,-4.0366,-4.0744,-4.0955,-4.1049,-4.118,-4.1088,-4.1219,-4.1404,-4.068,-4.0327,-4.0234,-3.9621,-3.9138,-3.9287,-3.9287,-3.9175,-3.9175,-3.9175,-3.9212,-3.9231,-3.9101,-3.9101,-3.9101,-3.9101,-3.9137,-3.9298,-3.9427,-3.9556,-3.9693,-3.9826,-3.9889,-3.9889,-3.9889,-3.9889,-3.9889,-3.9889,-3.9889,-3.9889,-3.9889,-3.9889,-3.9889,-3.9984,-4.0003,-3.9927,-4.006,-4.0079,-4.0079,-4.0097,-4.0363,-4.1048,-4.1143,-4.1522,-4.2261,-4.2375,-4.2356,-4.2621,-4.3208,-4.3834,-4.4573,-4.48,-4.4762,-4.4743,-4.4881,-4.4938,-4.4943,-4.4943,-4.4967,-4.4967,-4.4991,-4.5061,-4.5321,-4.5321,-4.5361,-4.5381,-4.5361,-4.5495,-4.5599,-4.568,-4.5665,-4.5648,-4.5526,-4.5473,-4.5475,-4.5419,-4.5302,-4.5237,-4.5213,-4.5129,-4.5084,-4.5057,-4.4867,-4.0871,-4.0918,-4.1134,-4.1163,-4.1134,-4.1363,-4.1701,-4.2092,-4.199,-4.2157,-4.244,-4.2418,-4.2157,-4.176,-4.2113,-4.228,-4.2375,-4.2214,-4.2177,-4.2249,-4.205,-4.1977,-4.192,-4.192,-4.1995,-4.2087,-4.2159,-4.2099,-4.1922,-4.1619,-4.1501,-4.1571,-4.1311,-4.1163,-4.1089,-4.0866,-4.0698,-4.068,-4.0698,-4.0698,-4.0643,-4.0698,-4.068,-4.0643,-3.964,-3.9101,-3.9101,-3.9101,-3.9137,-3.9298,-3.9408,-3.9575,-3.9693,-3.9826,-3.9889,-3.9889,-3.9889,-3.9889,-3.9889,-3.9889,-3.9889,-3.9889,-3.9889,-3.9946,-3.9984,-4.0404,-4.0745,-4.0821,-4.1237,-4.1484,-4.1408,-4.1067,-4.1086,-4.1787,-4.1996,-4.2318,-4.3,-4.3246,-4.3417,-4.3891,-4.4326,-4.4592,-4.4781,-4.4895,-4.4895,-4.4895,-4.4895,-4.4895,-4.4895,-4.4895,-4.4895,-4.4895,-4.4895,-4.4962,-4.5061,-4.5065,-4.5087,-4.5087,-4.5109,-4.5194,-4.5301,-4.5302,-4.5262,-4.5362,-4.5322,-4.5262,-4.5197,-4.5156,-4.5087,-4.5065,-4.5033,-4.5057,-4.501,-4.501,-4.501,-4.0965,-4.0918,-4.1134,-4.1209,-4.1255,-4.1498,-4.1788,-4.211,-4.2026,-4.2133,-4.2257,-4.2257,-4.1924,-4.1534,-4.1753,-4.2008,-4.2239,-4.2422,-4.2637,-4.2788,-4.2634,-4.2555,-4.2555,-4.2573,-4.2613,-4.2616,-4.2711,-4.2631,-4.2516,-4.2117,-4.2009,-4.2123,-4.1865,-4.1717,-4.1662,-4.1459,-4.1311,-4.1329,-4.1311,-4.1292,-4.1311,-4.1311,-4.1311,-4.1163,-4.0203,-3.9737,-3.9871,-3.9843,-3.9928,-4.0128,-4.0064,-4.0143,-4.0371,-4.0598,-4.0707,-4.0704,-4.0745,-4.0685,-4.0726,-4.0707,-4.0726,-4.0685,-4.0726,-4.0726,-4.0745,-4.1275,-4.156,-4.173,-4.2033,-4.2469,-4.2659,-4.2337,-4.2242,-4.2716,-4.281,-4.317,-4.3947,-4.4099,-4.4326,-4.4668,-4.48,-4.4876,-4.4895,-4.4895,-4.4895,-4.4895,-4.4895,-4.4895,-4.4895,-4.4895,-4.4895,-4.4895,-4.4895,-4.4895,-4.4943,-4.4967,-4.4991,-4.5014,-4.5019,-4.5038,-4.5057,-4.5033,-4.5033,-4.5084,-4.5061,-4.4967,-4.4919,-4.4895,-4.4895,-4.4895,-4.4919,-4.4986,-4.4962,-4.4986,-4.4986,-4.1088,-4.0965,-4.1117,-4.1255,-4.1255,-4.1498,-4.1719,-4.1874,-4.1762,-4.1849,-4.1959,-4.1744,-4.1569,-4.1283,-4.1346,-4.1283,-4.1463,-4.1753,-4.2092,-4.2356,-4.1959,-4.1849,-4.2002,-4.2044,-4.2044,-4.2086,-4.2246,-4.2454,-4.268,-4.2647,-4.2795,-4.2941,-4.232,-4.2026,-4.192,-4.1389,-4.0935,-4.1024,-4.1079,-4.0935,-4.0739,-4.0972,-4.1042,-4.0953,-4.0826,-4.1024,-4.1549,-4.1237,-4.1193,-4.1623,-4.126,-4.1322,-4.1665,-4.1982,-4.2276,-4.2185,-4.228,-4.2337,-4.228,-4.2223,-4.2128,-4.2109,-4.2261,-4.2128,-4.209,-4.2299,-4.2431,-4.245,-4.2583,-4.2848,-4.3568,-4.3644,-4.3606,-4.3701,-4.3701,-4.4023,-4.4611,-4.4857,-4.4876,-4.4895,-4.4895,-4.4895,-4.4895,-4.4895,-4.4857,-4.4762,-4.4743,-4.4649,-4.4516,-4.4459,-4.4724,-4.4743,-4.4649,-4.4592,-4.4743,-4.4895,-4.4943,-4.4986,-4.5014,-4.5038,-4.5103,-4.508,-4.508,-4.5125,-4.5038,-4.4967,-4.4919,-4.4895,-4.4895,-4.4895,-4.4895,-4.4938,-4.4938,-4.4962,-4.4962,-4.1272,-4.138,-4.1453,-4.1498,-4.1498,-4.1719,-4.1849,-4.1917,-4.2019,-4.2019,-4.1892,-4.1849,-4.1657,-4.1498,-4.1453,-4.1453,-4.1498,-4.148,-4.164,-4.2002,-4.1874,-4.1934,-4.2121,-4.2163,-4.2145,-4.2228,-4.2454,-4.2595,-4.2711,-4.292,-4.3123,-4.3087,-4.2905,-4.2813,-4.2723,-4.2541,-4.2413,-4.2413,-4.2413,-4.2395,-4.2413,-4.2395,-4.2395,-4.2413,-4.2395,-4.2519,-4.2656,-4.151,-4.1038,-4.1433,-4.1212,-4.1329,-4.1836,-4.1995,-4.2165,-4.237,-4.2393,-4.2393,-4.2412,-4.2431,-4.2469,-4.2412,-4.2408,-4.2393,-4.2488,-4.3004,-4.3289,-4.336,-4.3801,-4.4317,-4.4459,-4.4535,-4.4478,-4.4535,-4.4535,-4.4554,-4.4819,-4.4895,-4.4895,-4.4895,-4.4895,-4.4895,-4.4895,-4.4876,-4.463,-4.4156,-4.408,-4.3947,-4.3398,-4.3379,-4.317,-4.3189,-4.3549,-4.4137,-4.4289,-4.4516,-4.4768,-4.4887,-4.4991,-4.5014,-4.508,-4.5103,-4.5125,-4.5103,-4.5033,-4.4986,-4.4919,-4.4895,-4.4895,-4.4895,-4.4895,-4.4919,-4.4919,-4.4919,-4.4919,-4.1453,-4.1604,-4.1604,-4.1604,-4.1604,-4.1719,-4.1805,-4.1805,-4.1788,-4.1831,-4.1874,-4.1727,-4.1657,-4.1631,-4.1675,-4.1587,-4.1453,-4.1346,-4.1525,-4.1831,-4.1805,-4.1934,-4.2163,-4.2246,-4.2287,-4.2328,-4.2472,-4.2573,-4.2555,-4.2729,-4.2862,-4.2862,-4.2862,-4.2826,-4.2862,-4.2844,-4.2862,-4.2862,-4.2826,-4.2862,-4.2862,-4.288,-4.2862,-4.2862,-4.2862,-4.2844,-4.2772,-4.1867,-4.1559,-4.1934,-4.2097,-4.2248,-4.2459,-4.2679,-4.2923,-4.3114,-4.325,-4.3293,-4.3183,-4.3345,-4.3183,-4.3038,-4.3064,-4.3083,-4.3107,-4.3604,-4.3811,-4.4046,-4.4392,-4.4777,-4.4732,-4.4827,-4.4827,-4.4726,-4.4808,-4.4895,-4.4895,-4.4895,-4.4895,-4.4895,-4.4895,-4.4781,-4.4554,-4.444,-4.4118,-4.3436,-4.3227,-4.3133,-4.2545,-4.245,-4.2375,-4.2431,-4.2848,-4.3341,-4.372,-4.4099,-4.4516,-4.4749,-4.4943,-4.4967,-4.5014,-4.5057,-4.508,-4.5057,-4.4991,-4.4967,-4.4919,-4.4895,-4.4895,-4.4895,-4.4895,-4.4895,-4.4919,-4.4895,-4.4895,-4.156,-4.156,-4.156,-4.1515,-4.1498,-4.156,-4.1542,-4.1453,-4.1192,-4.1311,-4.1622,-4.1383,-4.1338,-4.1542,-4.1675,-4.1552,-4.1328,-4.1498,-4.1675,-4.1788,-4.1762,-4.1762,-4.1977,-4.2187,-4.2287,-4.2287,-4.2328,-4.2328,-4.2351,-4.2351,-4.2287,-4.2369,-4.2409,-4.2328,-4.2409,-4.2328,-4.2369,-4.2409,-4.2369,-4.2369,-4.2369,-4.2369,-4.2369,-4.2369,-4.2369,-4.2369,-4.2374,-4.2346,-4.27,-4.3314,-4.342,-4.3365,-4.3498,-4.4016,-4.413,-4.4149,-4.4643,-4.4459,-4.4436,-4.4301,-4.4285,-4.3834,-4.3951,-4.4242,-4.3879,-4.3823,-4.3986,-4.4196,-4.4346,-4.4402,-4.443,-4.4655,-4.4681,-4.4557,-4.4751,-4.487,-4.4895,-4.4895,-4.4838,-4.4781,-4.4781,-4.4516,-4.3758,-4.3644,-4.3208,-4.2602,-4.2337,-4.2242,-4.1996,-4.1825,-4.2128,-4.2185,-4.209,-4.245,-4.2773,-4.3739,-4.4137,-4.4383,-4.4692,-4.4943,-4.4967,-4.4991,-4.501,-4.4991,-4.4967,-4.4943,-4.4919,-4.4895,-4.4895,-4.4895,-4.4895,-4.4895,-4.4895,-4.4895,-4.4895,-4.0849,-4.13,-4.1318,-4.1053,-4.0802,-4.11,-4.1036,-4.0754,-4.0849,-4.0832,-4.0908,-4.0861,-4.0908,-4.1128,-4.122,-4.1373,-4.1631,-4.1648,-4.1719,-4.1892,-4.1849,-4.1831,-4.1917,-4.2145,-4.2287,-4.2287,-4.2287,-4.2287,-4.2287,-4.2287,-4.2287,-4.2287,-4.2287,-4.2287,-4.2287,-4.2287,-4.2287,-4.2287,-4.2287,-4.2287,-4.2287,-4.2287,-4.2287,-4.2287,-4.2287,-4.2287,-4.2328,-4.2508,-4.2688,-4.2938,-4.3087,-4.3231,-4.3371,-4.359,-4.3799,-4.4035,-4.4125,-4.4154,-4.4095,-4.4125,-4.4065,-4.3943,-4.3955,-4.3986,-4.3912,-4.3924,-4.3986,-4.4046,-4.4076,-4.4095,-4.4095,-4.4327,-4.453,-4.4758,-4.4827,-4.4895,-4.4895,-4.4876,-4.4687,-4.4156,-4.4061,-4.3587,-4.3019,-4.2716,-4.2412,-4.1749,-4.1465,-4.1332,-4.1067,-4.0858,-4.0969,-4.0934,-4.0953,-4.1408,-4.2014,-4.3076,-4.3739,-4.3985,-4.4383,-4.4895,-4.4919,-4.4919,-4.4938,-4.4938,-4.4919,-4.4919,-4.4895,-4.4895,-4.4895,-4.4895,-4.4895,-4.4895,-4.4895,-4.4895,-4.4895,-4.0383,-4.0814,-4.0879,-4.0689,-4.04,-4.0707,-4.0611,-4.0336,-4.022,-4.0351,-4.0449,-4.0334,-4.0577,-4.1036,-4.1082,-4.1328,-4.1719,-4.1736,-4.1788,-4.1874,-4.2019,-4.2061,-4.2103,-4.2246,-4.2287,-4.2287,-4.2287,-4.2287,-4.2287,-4.2287,-4.2287,-4.2287,-4.2287,-4.2287,-4.2287,-4.2287,-4.2287,-4.2287,-4.2287,-4.2287,-4.2287,-4.2287,-4.2287,-4.2287,-4.2287,-4.2328,-4.2409,-4.253,-4.2649,-4.2727,-4.2824,-4.2976,-4.3178,-4.3336,-4.349,-4.3689,-4.3818,-4.3849,-4.3754,-4.3818,-4.3735,-4.359,-4.359,-4.359,-4.349,-4.3523,-4.3523,-4.3689,-4.3703,-4.3703,-4.3735,-4.3986,-4.4346,-4.461,-4.4802,-4.4895,-4.4895,-4.4573,-4.4232,-4.3777,-4.3341,-4.2829,-4.2014,-4.192,-4.1484,-4.0934,-4.0669,-4.04,-4.0116,-3.9927,-3.9908,-4.0097,-4.0385,-4.0915,-4.1673,-4.2697,-4.3796,-4.4061,-4.4364,-4.4857,-4.4895,-4.4895,-4.4895,-4.4914,-4.4895,-4.4895,-4.4895,-4.4895,-4.4895,-4.4895,-4.4895,-4.4895,-4.4895,-4.4895,-4.4895,-3.9969,-4.0251,-4.0414,-4.0317,-4.0086,-4.0252,-4.017,-3.9901,-3.9592,-3.9714,-4.0003,-3.9834,-4.0153,-4.1007,-4.0896,-4.1209,-4.1453,-4.1613,-4.1701,-4.1788,-4.1917,-4.2019,-4.1959,-4.2187,-4.2287,-4.2287,-4.2287,-4.2287,-4.2287,-4.2287,-4.2287,-4.2287,-4.2287,-4.2287,-4.2287,-4.2287,-4.2287,-4.2287,-4.2287,-4.2287,-4.2287,-4.2287,-4.2287,-4.2287,-4.2287,-4.2387,-4.249,-4.2609,-4.2591,-4.2649,-4.2786,-4.2882,-4.2939,-4.3213,-4.3301,-4.3353,-4.3557,-4.359,-4.344,-4.3557,-4.3523,-4.3142,-4.3249,-4.3249,-4.305,-4.3014,-4.3105,-4.3336,-4.3336,-4.3387,-4.349,-4.3721,-4.4095,-4.4392,-4.465,-4.4719,-4.4649,-4.4137,-4.3644,-4.3417,-4.2697,-4.1977,-4.137,-4.1029,-4.0802,-4.0419,-4.0192,-4.0097,-3.9946,-3.9908,-3.9889,-3.9927,-4.023,-4.0593,-4.1446,-4.2356,-4.3493,-4.4308,-4.4573,-4.4895,-4.4895,-4.4895,-4.4895,-4.4895,-4.4895,-4.4895,-4.4895,-4.4895,-4.4895,-4.4895,-4.4895,-4.4895,-4.4895,-4.4895,-4.4895,-3.9152,-3.9594,-3.9765,-3.9542,-3.9189,-3.9542,-3.9575,-3.9239,-3.9115,-3.9206,-3.9259,-3.9222,-3.947,-3.9868,-4.0302,-4.0497,-4.0754,-4.1146,-4.1255,-4.1082,-4.1346,-4.1283,-4.1356,-4.1874,-4.2246,-4.2246,-4.2287,-4.2287,-4.2287,-4.2287,-4.2287,-4.2287,-4.2287,-4.2287,-4.2287,-4.2287,-4.2287,-4.2287,-4.2287,-4.2287,-4.2287,-4.2287,-4.2287,-4.2287,-4.2287,-4.2387,-4.2486,-4.2588,-4.2649,-4.2765,-4.2824,-4.29,-4.292,-4.2976,-4.305,-4.305,-4.3069,-4.3124,-4.305,-4.3105,-4.3069,-4.2957,-4.2976,-4.2976,-4.292,-4.29,-4.292,-4.3032,-4.3032,-4.3142,-4.3336,-4.3689,-4.3918,-4.413,-4.4089,-4.3942,-4.3891,-4.3739,-4.3057,-4.2147,-4.1635,-4.1143,-4.0366,-4.0287,-4.0097,-3.9889,-3.9889,-3.9889,-3.9889,-3.9889,-3.9889,-3.9889,-4.0268,-4.0726,-4.1616,-4.2583,-4.3701,-4.4478,-4.4743,-4.4895,-4.4895,-4.4895,-4.4895,-4.4895,-4.4895,-4.4895,-4.4895,-4.4895,-4.4895,-4.4895,-4.4895,-4.4895,-4.4895,-4.4895,-4.4895,-3.8782,-3.9023,-3.9152,-3.9061,-3.886,-3.9098,-3.9098,-3.8898,-3.8914,-3.8969,-3.8969,-3.9023,-3.9259,-3.9662,-3.9868,-4.012,-4.04,-4.0659,-4.0866,-4.0849,-4.096,-4.0943,-4.0896,-4.1311,-4.1683,-4.1856,-4.1917,-4.2061,-4.2246,-4.2287,-4.2287,-4.2287,-4.2287,-4.2287,-4.2287,-4.2287,-4.2287,-4.2287,-4.2287,-4.2287,-4.2287,-4.2287,-4.2287,-4.2328,-4.2346,-4.2445,-4.2566,-4.2667,-4.2727,-4.2824,-4.29,-4.29,-4.29,-4.29,-4.29,-4.29,-4.29,-4.29,-4.29,-4.29,-4.2938,-4.29,-4.29,-4.29,-4.29,-4.29,-4.29,-4.29,-4.292,-4.2976,-4.3178,-4.3456,-4.3624,-4.3379,-4.3463,-4.3165,-4.2554,-4.2418,-4.228,-4.1313,-4.0877,-4.0479,-4.0041,-3.9908,-3.9889,-3.9889,-3.9889,-3.9889,-3.9889,-3.9889,-3.9889,-3.9984,-4.0385,-4.0972,-4.1882,-4.2905,-4.4042,-4.4592,-4.4819,-4.4895,-4.4895,-4.4895,-4.4895,-4.4895,-4.4895,-4.4895,-4.4895,-4.4895,-4.4895,-4.4895,-4.4895,-4.4895,-4.4895,-4.4895,-4.4895,-3.856,-3.8632,-3.8711,-3.875,-3.875,-3.8766,-3.8805,-3.875,-3.875,-3.886,-3.8969,-3.8969,-3.9206,-3.9662,-3.9747,-3.9986,-4.022,-4.0286,-4.0385,-4.0434,-4.0514,-4.0466,-4.0466,-4.0563,-4.0896,-4.1338,-4.1516,-4.1813,-4.2187,-4.2287,-4.2287,-4.2287,-4.2287,-4.2287,-4.2287,-4.2287,-4.2287,-4.2287,-4.2287,-4.2287,-4.2287,-4.2287,-4.2287,-4.2328,-4.2405,-4.2526,-4.2588,-4.2706,-4.2804,-4.29,-4.29,-4.29,-4.29,-4.29,-4.29,-4.29,-4.29,-4.29,-4.29,-4.29,-4.29,-4.29,-4.29,-4.29,-4.29,-4.29,-4.29,-4.29,-4.2938,-4.2938,-4.292,-4.3231,-4.3002,-4.2613,-4.2768,-4.2208,-4.1135,-4.0863,-4.095,-4.0915,-4.0479,-4.006,-3.9965,-3.9889,-3.9889,-3.9889,-3.9889,-3.9908,-3.9927,-3.9965,-4.0022,-4.0268,-4.0707,-4.1579,-4.2507,-4.3341,-4.4478,-4.4687,-4.4895,-4.487,-4.4895,-4.4895,-4.4895,-4.4895,-4.4895,-4.4895,-4.4895,-4.4895,-4.4895,-4.4895,-4.4895,-4.4895,-4.4895,-4.4895,-4.4895,-3.852,-3.8632,-3.8616,-3.856,-3.8504,-3.856,-3.8616,-3.8616,-3.8616,-3.8711,-3.8805,-3.886,-3.8898,-3.9152,-3.961,-3.9902,-3.9969,-3.9885,-3.9764,-3.9713,-3.9816,-3.985,-3.9747,-3.9747,-4.0137,-4.0849,-4.1202,-4.1666,-4.2187,-4.2287,-4.2246,-4.2287,-4.2228,-4.2228,-4.2187,-4.2287,-4.2187,-4.2187,-4.2187,-4.2228,-4.2287,-4.2287,-4.2287,-4.2328,-4.2445,-4.2526,-4.2627,-4.2745,-4.286,-4.2882,-4.29,-4.29,-4.29,-4.29,-4.29,-4.29,-4.29,-4.29,-4.29,-4.29,-4.29,-4.29,-4.29,-4.29,-4.29,-4.29,-4.29,-4.29,-4.29,-4.29,-4.292,-4.3086,-4.2896,-4.2451,-4.195,-4.1576,-4.0614,-4.0246,-4.0185,-4.0204,-3.9981,-3.9889,-3.9889,-3.9889,-3.9889,-3.9889,-3.9889,-4.0022,-4.0195,-4.0271,-4.0347,-4.0688,-4.1086,-4.2147,-4.3246,-4.4004,-4.4819,-4.48,-4.4895,-4.4846,-4.487,-4.4895,-4.4895,-4.4802,-4.4827,-4.487,-4.487,-4.487,-4.4895,-4.4895,-4.4895,-4.4895,-4.4895,-4.4895,-4.4895,-3.8576,-3.8632,-3.8632,-3.856,-3.852,-3.8504,-3.852,-3.8504,-3.852,-3.856,-3.8672,-3.8711,-3.8766,-3.8843,-3.9098,-3.9348,-3.9418,-3.9382,-3.9309,-3.9325,-3.9432,-3.9415,-3.9325,-3.9288,-3.9764,-4.0269,-4.0672,-4.1338,-4.2205,-4.2287,-4.2145,-4.1899,-4.1899,-4.177,-4.1578,-4.149,-4.1683,-4.1813,-4.1899,-4.2044,-4.2269,-4.2287,-4.2287,-4.2328,-4.2468,-4.2548,-4.2609,-4.2747,-4.2862,-4.2882,-4.29,-4.29,-4.29,-4.29,-4.29,-4.29,-4.29,-4.29,-4.29,-4.29,-4.29,-4.29,-4.29,-4.29,-4.29,-4.29,-4.29,-4.29,-4.29,-4.29,-4.2882,-4.2705,-4.2121,-4.146,-4.1046,-4.0433,-3.9769,-3.9645,-3.9674,-3.9717,-3.9804,-3.9826,-3.9889,-3.9889,-3.9889,-3.9889,-3.9889,-4.0116,-4.04,-4.0624,-4.0791,-4.1541,-4.2071,-4.2943,-4.381,-4.4297,-4.4802,-4.4827,-4.4777,-4.4726,-4.4726,-4.4707,-4.4681,-4.461,-4.4681,-4.4751,-4.4777,-4.4732,-4.4802,-4.4895,-4.4895,-4.4895,-4.4895,-4.4895,-4.4895,-3.856,-3.8576,-3.8632,-3.8576,-3.8576,-3.8464,-3.8464,-3.8408,-3.8391,-3.8464,-3.8576,-3.8632,-3.8672,-3.8766,-3.8788,-3.8843,-3.8969,-3.8969,-3.9077,-3.9218,-3.9272,-3.9272,-3.9272,-3.9379,-3.9592,-4.002,-4.0103,-4.075,-4.1813,-4.1917,-4.1753,-4.1622,-4.1472,-4.122,-4.0943,-4.099,-4.1082,-4.1248,-4.149,-4.1753,-4.2145,-4.2287,-4.2287,-4.2328,-4.249,-4.2588,-4.2609,-4.2747,-4.2862,-4.29,-4.29,-4.29,-4.29,-4.29,-4.29,-4.29,-4.29,-4.29,-4.29,-4.29,-4.29,-4.29,-4.29,-4.29,-4.29,-4.29,-4.29,-4.29,-4.29,-4.2755,-4.2538,-4.2103,-4.1307,-4.0525,-4.0035,-3.9583,-3.9153,-3.9045,-3.9369,-3.9483,-3.967,-3.98,-3.9883,-3.9781,-3.9758,-3.9924,-3.9962,-4.0424,-4.0726,-4.1151,-4.1553,-4.2498,-4.3227,-4.3929,-4.4391,-4.443,-4.4707,-4.4662,-4.453,-4.4402,-4.443,-4.4476,-4.4374,-4.427,-4.4402,-4.4457,-4.453,-4.4655,-4.4802,-4.4895,-4.4895,-4.4895,-4.4895,-4.4895,-4.4895,-3.8408,-3.8464,-3.856,-3.852,-3.8464,-3.8504,-3.8504,-3.8408,-3.8391,-3.8464,-3.8576,-3.8632,-3.8616,-3.8672,-3.875,-3.8805,-3.886,-3.8969,-3.9023,-3.9094,-3.9094,-3.9218,-3.9272,-3.9288,-3.9504,-3.9817,-3.9969,-4.0625,-4.1293,-4.122,-4.122,-4.1293,-4.1019,-4.0802,-4.0628,-4.0563,-4.0819,-4.0926,-4.1293,-4.177,-4.2205,-4.2287,-4.2287,-4.2328,-4.2427,-4.2526,-4.2627,-4.2727,-4.2842,-4.2882,-4.29,-4.29,-4.29,-4.29,-4.29,-4.29,-4.29,-4.29,-4.29,-4.29,-4.29,-4.29,-4.29,-4.29,-4.29,-4.2882,-4.2882,-4.29,-4.2846,-4.2484,-4.1995,-4.1723,-4.0926,-4.0217,-3.9604,-3.9094,-3.8647,-3.8778,-3.9073,-3.9154,-3.9287,-3.9674,-3.9891,-3.9727,-3.9618,-3.982,-4.0121,-4.0602,-4.1205,-4.1731,-4.2201,-4.3088,-4.3554,-4.4195,-4.4376,-4.4493,-4.4484,-4.4457,-4.4299,-4.4125,-4.4095,-4.4065,-4.3893,-4.3831,-4.4035,-4.4289,-4.4448,-4.4629,-4.4802,-4.4895,-4.4895,-4.4895,-4.4895,-4.4895,-4.4827,-3.7886,-3.8391,-3.8448,-3.8464,-3.8391,-3.8464,-3.8448,-3.8391,-3.8408,-3.8464,-3.852,-3.8576,-3.8616,-3.8711,-3.8805,-3.8805,-3.886,-3.8914,-3.9023,-3.9023,-3.9094,-3.9218,-3.9272,-3.9325,-3.9451,-3.9556,-3.9644,-3.9885,-4.0449,-4.0784,-4.0832,-4.0625,-4.0431,-4.017,-4.0087,-3.9986,-4.012,-4.0449,-4.1065,-4.177,-4.2145,-4.2287,-4.2287,-4.2287,-4.2445,-4.2503,-4.2566,-4.2706,-4.2783,-4.2842,-4.2862,-4.29,-4.29,-4.29,-4.29,-4.29,-4.29,-4.29,-4.29,-4.29,-4.29,-4.29,-4.29,-4.29,-4.29,-4.2846,-4.2629,-4.2248,-4.223,-4.185,-4.1126,-4.0655,-4.0148,-3.9583,-3.9173,-3.8798,-3.8467,-3.8707,-3.8894,-3.8876,-3.8989,-3.9442,-3.9802,-3.9679,-3.9757,-4.0147,-4.0485,-4.0943,-4.1829,-4.2781,-4.3183,-4.3596,-4.3905,-4.4148,-4.4138,-4.4154,-4.4154,-4.4125,-4.4095,-4.3912,-4.3754,-4.3656,-4.3523,-4.359,-4.3818,-4.4065,-4.4346,-4.4503,-4.4584,-4.4732,-4.4895,-4.4827,-4.4777,-4.461,-4.4511,-3.7207,-3.7828,-3.787,-3.796,-3.8148,-3.8164,-3.8278,-3.8391,-3.8391,-3.8391,-3.8464,-3.856,-3.8672,-3.875,-3.875,-3.8805,-3.8766,-3.8931,-3.8969,-3.9023,-3.9148,-3.9218,-3.9272,-3.9325,-3.9325,-3.9288,-3.9379,-3.9556,-3.9833,-4.012,-4.017,-4.0003,-3.9919,-3.9696,-3.9415,-3.9468,-3.9696,-4.0351,-4.0972,-4.1622,-4.2145,-4.2287,-4.2287,-4.2328,-4.2387,-4.2463,-4.2503,-4.2624,-4.2724,-4.2822,-4.2786,-4.2824,-4.29,-4.2824,-4.2862,-4.2862,-4.2862,-4.2824,-4.2862,-4.29,-4.29,-4.2862,-4.2862,-4.2862,-4.2846,-4.2774,-4.2448,-4.1832,-4.1488,-4.1053,-4.0365,-3.9731,-3.9405,-3.9043,-3.8606,-3.8389,-3.8259,-3.8541,-3.8683,-3.8676,-3.8903,-3.943,-3.9642,-3.9612,-3.9845,-4.0389,-4.0859,-4.1323,-4.2242,-4.3341,-4.3615,-4.3818,-4.3893,-4.4004,-4.3955,-4.3893,-4.3849,-4.3754,-4.3754,-4.3623,-4.344,-4.3371,-4.3336,-4.3474,-4.359,-4.3689,-4.3849,-4.4106,-4.4355,-4.4484,-4.461,-4.4655,-4.4584,-4.443,-4.4242,-3.6368,-3.6291,-3.643,-3.689,-3.7535,-3.746,-3.7844,-3.8391,-3.8391,-3.8448,-3.856,-3.8632,-3.8616,-3.8655,-3.875,-3.8766,-3.8632,-3.8876,-3.8985,-3.8969,-3.9023,-3.9148,-3.9272,-3.9288,-3.9288,-3.9288,-3.9272,-3.9272,-3.9379,-3.9504,-3.9731,-3.9902,-3.9592,-3.9415,-3.9325,-3.9325,-3.9747,-4.0368,-4.0832,-4.1401,-4.2002,-4.2287,-4.2287,-4.2287,-4.2346,-4.2405,-4.2503,-4.2486,-4.2566,-4.2706,-4.2688,-4.2709,-4.2824,-4.2709,-4.2747,-4.2786,-4.2747,-4.2727,-4.2783,-4.2786,-4.2786,-4.2727,-4.2655,-4.2662,-4.2627,-4.2085,-4.1759,-4.1452,-4.0872,-4.0274,-3.9731,-3.9333,-3.8934,-3.8645,-3.8355,-3.8301,-3.8259,-3.8401,-3.8533,-3.85,-3.8842,-3.9461,-4.0065,-4.0105,-4.0404,-4.0937,-4.1482,-4.1949,-4.2503,-4.3395,-4.3629,-4.3781,-4.3781,-4.3818,-4.3799,-4.3721,-4.3508,-4.3371,-4.3336,-4.3213,-4.3069,-4.305,-4.316,-4.3124,-4.3213,-4.3284,-4.3371,-4.3605,-4.3893,-4.4165,-4.4327,-4.4299,-4.4242,-4.4046,-4.3924,-3.5219,-3.5059,-3.5008,-3.5946,-3.7401,-3.7401,-3.7786,-3.8335,-3.8391,-3.8448,-3.8616,-3.8632,-3.8672,-3.8711,-3.875,-3.8711,-3.8672,-3.8876,-3.8914,-3.8985,-3.9094,-3.9218,-3.9288,-3.9272,-3.9288,-3.9272,-3.9218,-3.9148,-3.9148,-3.9094,-3.9148,-3.9276,-3.9292,-3.9325,-3.9288,-3.9325,-3.9747,-4.0203,-4.0642,-4.1174,-4.1666,-4.2145,-4.2287,-4.2287,-4.1917,-4.2061,-4.2246,-4.2103,-4.2287,-4.2508,-4.257,-4.2649,-4.2727,-4.2649,-4.2631,-4.2709,-4.2649,-4.2627,-4.2627,-4.267,-4.267,-4.2544,-4.2291,-4.2082,-4.2065,-4.1397,-4.0763,-4.0365,-4.0039,-3.9496,-3.8826,-3.8645,-3.8464,-3.8282,-3.8192,-3.8192,-3.8259,-3.8354,-3.8532,-3.8583,-3.9039,-3.9615,-4.0235,-4.0799,-4.1159,-4.1537,-4.2087,-4.2576,-4.296,-4.3249,-4.3371,-4.3474,-4.3474,-4.344,-4.3406,-4.3284,-4.3124,-4.305,-4.2976,-4.2957,-4.29,-4.2938,-4.2995,-4.2938,-4.29,-4.3032,-4.316,-4.3213,-4.3456,-4.3862,-4.3955,-4.3893,-4.3799,-4.367,-4.3572,-3.4481,-3.4264,-3.4196,-3.5204,-3.6723,-3.6784,-3.7282,-3.8033,-3.8091,-3.8278,-3.8504,-3.856,-3.8616,-3.8655,-3.8711,-3.8711,-3.8672,-3.8821,-3.886,-3.8914,-3.8985,-3.9164,-3.9148,-3.9148,-3.911,-3.911,-3.9094,-3.9023,-3.8969,-3.8914,-3.8969,-3.9023,-3.9094,-3.9164,-3.9288,-3.9325,-3.9556,-4.002,-4.0497,-4.1019,-4.1516,-4.2002,-4.2145,-4.2044,-4.1709,-4.1578,-4.177,-4.1666,-4.1917,-4.2187,-4.2369,-4.253,-4.257,-4.257,-4.257,-4.257,-4.253,-4.249,-4.2472,-4.2217,-4.2189,-4.207,-4.1459,-4.1247,-4.1014,-4.0546,-3.9896,-3.9517,-3.9191,-3.8737,-3.8122,-3.8264,-3.8301,-3.8192,-3.8192,-3.8192,-3.8192,-3.8292,-3.8513,-3.8733,-3.9367,-4.0092,-4.0872,-4.1506,-4.1814,-4.2123,-4.2358,-4.2625,-4.2716,-4.292,-4.2975,-4.3032,-4.3032,-4.2995,-4.2938,-4.2957,-4.3032,-4.2995,-4.2957,-4.292,-4.29,-4.29,-4.29,-4.29,-4.29,-4.29,-4.2957,-4.305,-4.3301,-4.3656,-4.3656,-4.3623,-4.3387,-4.3266,-4.3213,-3.4264,-3.4113,-3.4278,-3.4773,-3.5449,-3.5464,-3.6275,-3.7476,-3.7594,-3.7902,-3.8408,-3.8391,-3.8391,-3.8448,-3.856,-3.856,-3.8632,-3.8711,-3.8805,-3.8821,-3.886,-3.886,-3.886,-3.886,-3.8931,-3.8876,-3.8876,-3.886,-3.8805,-3.8805,-3.886,-3.886,-3.886,-3.904,-3.9272,-3.9288,-3.9556,-4.0003,-4.0466,-4.0926,-4.1338,-4.1813,-4.1899,-4.1709,-4.149,-4.1311,-4.149,-4.1383,-4.1578,-4.1941,-4.2228,-4.2409,-4.253,-4.2409,-4.2409,-4.253,-4.2338,-4.2279,-4.232,-4.16,-4.1246,-4.122,-4.0628,-4.0271,-4.0128,-3.9661,-3.9122,-3.8851,-3.8544,-3.82,-3.8036,-3.8106,-3.8158,-3.8192,-3.8192,-3.8158,-3.8158,-3.8158,-3.8393,-3.89,-3.9876,-4.0763,-4.156,-4.223,-4.2517,-4.2716,-4.275,-4.2783,-4.2727,-4.2727,-4.2765,-4.2842,-4.2842,-4.29,-4.29,-4.29,-4.2938,-4.29,-4.29,-4.29,-4.29,-4.29,-4.29,-4.2918,-4.29,-4.29,-4.29,-4.2938,-4.3142,-4.3371,-4.3371,-4.3301,-4.3069,-4.2957,-4.2957,-3.4142,-3.4278,-3.4196,-3.4317,-3.4639,-3.5139,-3.615,-3.7342,-3.7844,-3.8205,-3.8335,-3.8391,-3.8391,-3.8391,-3.8448,-3.8448,-3.852,-3.8632,-3.8672,-3.8672,-3.8766,-3.8805,-3.8805,-3.875,-3.8805,-3.875,-3.875,-3.8711,-3.8672,-3.8711,-3.8655,-3.8655,-3.875,-3.8914,-3.9094,-3.9218,-3.9415,-3.9592,-3.9969,-4.0351,-4.0625,-4.1293,-4.1683,-4.1445,-4.1174,-4.1174,-4.1401,-4.1202,-4.1293,-4.1796,-4.2145,-4.2287,-4.2409,-4.2328,-4.231,-4.223,-4.1912,-4.1234,-4.0792,-4.0092,-3.9917,-3.992,-3.9781,-3.9333,-3.93,-3.869,-3.842,-3.833,-3.815,-3.7933,-3.802,-3.7985,-3.8003,-3.8124,-3.8124,-3.8054,-3.802,-3.8072,-3.8271,-3.9082,-3.995,-4.1198,-4.214,-4.2448,-4.2754,-4.286,-4.2822,-4.2783,-4.2745,-4.2688,-4.2688,-4.2783,-4.2804,-4.288,-4.2936,-4.3244,-4.3299,-4.3299,-4.3118,-4.29,-4.29,-4.3172,-4.3136,-4.3281,-4.3081,-4.29,-4.29,-4.2938,-4.2957,-4.305,-4.3105,-4.3142,-4.2976,-4.292,-4.292,-3.4088,-3.4264,-3.4128,-3.4128,-3.4264,-3.4839,-3.5849,-3.7087,-3.796,-3.8391,-3.8391,-3.8391,-3.8391,-3.8391,-3.8391,-3.8391,-3.8408,-3.8464,-3.8504,-3.856,-3.86,-3.8655,-3.8655,-3.8639,-3.86,-3.8639,-3.86,-3.856,-3.856,-3.852,-3.852,-3.856,-3.8655,-3.8766,-3.8876,-3.904,-3.9202,-3.9329,-3.9662,-3.9952,-4.0186,-4.0607,-4.1047,-4.0844,-4.072,-4.0689,-4.0972,-4.0972,-4.0926,-4.1578,-4.1941,-4.2103,-4.2187,-4.2269,-4.2162,-4.1787,-4.1127,-4.036,-3.9646,-3.9289,-3.9111,-3.8933,-3.8632,-3.8491,-3.8419,-3.8079,-3.7936,-3.7847,-3.781,-3.7828,-3.7898,-3.7846,-3.7934,-3.8056,-3.8038,-3.7951,-3.7951,-3.8003,-3.8292,-3.9102,-4.0041,-4.1361,-4.2502,-4.2665,-4.2882,-4.2842,-4.2822,-4.2802,-4.2778,-4.2757,-4.2753,-4.285,-4.3126,-4.3385,-4.3604,-4.3896,-4.3896,-4.3751,-4.3625,-4.3498,-4.3806,-4.4204,-4.3914,-4.3643,-4.3607,-4.3444,-4.3027,-4.2938,-4.3065,-4.3047,-4.2957,-4.2957,-4.29,-4.29,-4.29,-3.3937,-3.4059,-3.4059,-3.4196,-3.4361,-3.4467,-3.5219,-3.643,-3.777,-3.8278,-3.8335,-3.8335,-3.8391,-3.8391,-3.8391,-3.8335,-3.8335,-3.8335,-3.8335,-3.8278,-3.8262,-3.8319,-3.8375,-3.8375,-3.8432,-3.8448,-3.852,-3.8504,-3.8448,-3.8448,-3.8464,-3.8464,-3.8576,-3.8632,-3.8727,-3.8821,-3.8985,-3.9115,-3.9365,-3.9542,-3.968,-4.0136,-4.0317,-4.0218,-4.0136,-4.007,-4.017,-4.012,-4.0417,-4.0879,-4.1311,-4.1753,-4.2086,-4.2269,-4.177,-4.1056,-4.0217,-3.9575,-3.8897,-3.8611,-3.838,-3.8112,-3.7845,-3.7684,-3.7702,-3.7739,-3.7703,-3.7667,-3.7685,-3.7721,-3.7703,-3.7792,-3.7846,-3.7881,-3.7881,-3.7846,-3.7899,-3.8043,-3.8366,-3.9068,-4.004,-4.1215,-4.2484,-4.2882,-4.2882,-4.2862,-4.2858,-4.294,-4.2936,-4.2889,-4.2925,-4.3037,-4.3408,-4.3996,-4.427,-4.4509,-4.4584,-4.4458,-4.4675,-4.4675,-4.5001,-4.5019,-4.4711,-4.444,-4.4313,-4.4114,-4.3842,-4.3534,-4.3317,-4.3281,-4.3534,-4.3081,-4.3154,-4.2936,-4.29,-3.3813,-3.3937,-3.4059,-3.4074,-3.4157,-3.452,-3.5073,-3.5612,-3.6874,-3.7578,-3.7711,-3.8221,-3.8335,-3.8391,-3.8391,-3.8262,-3.8132,-3.8017,-3.7844,-3.7844,-3.7786,-3.7902,-3.796,-3.8075,-3.8205,-3.8335,-3.8391,-3.8391,-3.8391,-3.8448,-3.8391,-3.8408,-3.8351,-3.8464,-3.856,-3.8655,-3.8711,-3.886,-3.9044,-3.9098,-3.9206,-3.9594,-3.9697,-3.9732,-3.9749,-3.9817,-4.007,-3.9969,-4.0302,-4.0754,-4.1265,-4.1622,-4.1648,-4.1493,-4.0967,-3.9629,-3.9147,-3.879,-3.8112,-3.7951,-3.7862,-3.7684,-3.7594,-3.7577,-3.7594,-3.7577,-3.7577,-3.7613,-3.7613,-3.7649,-3.7667,-3.7721,-3.7775,-3.781,-3.7775,-3.7775,-3.7775,-3.7864,-3.8223,-3.9193,-4.0165,-4.1287,-4.25,-4.29,-4.29,-4.2862,-4.2951,-4.3105,-4.3149,-4.3117,-4.3309,-4.3463,-4.3989,-4.4651,-4.4863,-4.5066,-4.5142,-4.5218,-4.5508,-4.5617,-4.5526,-4.549,-4.5363,-4.5236,-4.5073,-4.4965,-4.482,-4.4476,-4.4095,-4.4476,-4.4657,-4.3932,-4.3353,-4.3244,-4.2991,-3.3536,-3.3591,-3.3799,-3.3868,-3.3951,-3.4264,-3.4491,-3.4876,-3.6244,-3.7071,-3.7326,-3.796,-3.8262,-3.8391,-3.8391,-3.8205,-3.7943,-3.7943,-3.777,-3.7519,-3.7342,-3.7519,-3.7653,-3.7711,-3.7786,-3.796,-3.8075,-3.8075,-3.8075,-3.8017,-3.796,-3.7976,-3.8033,-3.8091,-3.8148,-3.8189,-3.8343,-3.8472,-3.8583,-3.8655,-3.886,-3.9007,-3.9206,-3.9348,-3.9437,-3.9749,-4.007,-3.9851,-4.0203,-4.0497,-4.0972,-4.1163,-4.0929,-4.0488,-4.0039,-3.8879,-3.8469,-3.8183,-3.7737,-3.7648,-3.7594,-3.7577,-3.7577,-3.7577,-3.7577,-3.7577,-3.7577,-3.7613,-3.7613,-3.7613,-3.7613,-3.7649,-3.7703,-3.7739,-3.7703,-3.7649,-3.7649,-3.7649,-3.842,-3.9352,-4.0398,-4.1447,-4.2246,-4.2645,-4.2936,-4.3009,-4.3242,-4.3563,-4.353,-4.3481,-4.3775,-4.4062,-4.4755,-4.545,-4.5552,-4.5825,-4.6119,-4.6282,-4.654,-4.6558,-4.625,-4.6214,-4.6323,-4.6106,-4.5816,-4.5653,-4.5472,-4.5254,-4.5037,-4.5381,-4.5472,-4.4856,-4.4204,-4.3824,-4.3498,-3.3227,-3.3058,-3.3452,-3.3744,-3.3827,-3.3744,-3.3758,-3.4074,-3.5612,-3.66,-3.6995,-3.7562,-3.7943,-3.8091,-3.8148,-3.8033,-3.7786,-3.7669,-3.7492,-3.7282,-3.7178,-3.7238,-3.7373,-3.7358,-3.7492,-3.7535,-3.7637,-3.777,-3.7519,-3.7519,-3.7594,-3.7417,-3.7476,-3.7519,-3.7653,-3.7886,-3.8059,-3.8116,-3.8375,-3.856,-3.852,-3.8576,-3.8632,-3.8711,-3.886,-3.9077,-3.9222,-3.947,-3.9902,-4.0103,-4.0309,-4.0516,-4.0039,-3.9492,-3.8961,-3.8503,-3.8021,-3.7772,-3.763,-3.7577,-3.7577,-3.7577,-3.7577,-3.7577,-3.7577,-3.7577,-3.7577,-3.7577,-3.7577,-3.7577,-3.7613,-3.7613,-3.7649,-3.7667,-3.7667,-3.7613,-3.7613,-3.781,-3.8401,-3.9297,-4.0125,-4.1247,-4.2443,-4.2842,-4.2862,-4.3063,-4.3462,-4.3855,-4.4209,-4.4119,-4.445,-4.4892,-4.5623,-4.6266,-4.6416,-4.6705,-4.7181,-4.7458,-4.7404,-4.7391,-4.7029,-4.7138,-4.7373,-4.6993,-4.6576,-4.6269,-4.6033,-4.5997,-4.5997,-4.5979,-4.5961,-4.5635,-4.5164,-4.4729,-4.4313,-3.3312,-3.3241,-3.3466,-3.3675,-3.3827,-3.3675,-3.3605,-3.3744,-3.4341,-3.5225,-3.593,-3.6615,-3.7191,-3.7519,-3.7653,-3.7492,-3.7285,-3.7329,-3.7044,-3.6846,-3.6785,-3.6968,-3.706,-3.7105,-3.721,-3.7358,-3.7476,-3.7476,-3.7358,-3.7342,-3.7342,-3.7358,-3.7342,-3.7298,-3.7342,-3.7637,-3.7828,-3.7828,-3.8189,-3.8391,-3.8408,-3.8408,-3.8448,-3.856,-3.8727,-3.8766,-3.8914,-3.9023,-3.9222,-3.9279,-3.9542,-3.9492,-3.9146,-3.8738,-3.8336,-3.7932,-3.7589,-3.7482,-3.7558,-3.7577,-3.7577,-3.7577,-3.7577,-3.7577,-3.7577,-3.7577,-3.7577,-3.7577,-3.7577,-3.7577,-3.7577,-3.7577,-3.7577,-3.7577,-3.7577,-3.7577,-3.7577,-3.7988,-3.8418,-3.9188,-3.9962,-4.1045,-4.2294,-4.2822,-4.2824,-4.3152,-4.3697,-4.4219,-4.4917,-4.5137,-4.551,-4.6014,-4.6572,-4.7108,-4.7204,-4.7265,-4.7542,-4.7657,-4.7609,-4.7645,-4.7699,-4.7645,-4.7554,-4.7572,-4.7337,-4.6975,-4.6866,-4.7174,-4.7138,-4.683,-4.6703,-4.6504,-4.6305,-4.5906,-4.5454,-3.2731,-3.2803,-3.3312,-3.3605,-3.3689,-3.3536,-3.3536,-3.3605,-3.3716,-3.407,-3.4765,-3.5597,-3.6306,-3.6753,-3.6951,-3.686,-3.6739,-3.6938,-3.68,-3.6616,-3.6492,-3.6616,-3.6754,-3.6816,-3.6862,-3.7029,-3.7013,-3.7013,-3.7194,-3.7013,-3.6952,-3.7013,-3.7013,-3.7074,-3.7074,-3.7314,-3.761,-3.7653,-3.8017,-3.8205,-3.8335,-3.8391,-3.8391,-3.852,-3.8576,-3.8672,-3.8821,-3.8882,-3.8846,-3.8493,-3.8301,-3.8157,-3.7927,-3.7777,-3.7527,-3.7284,-3.7143,-3.7259,-3.741,-3.7484,-3.7503,-3.754,-3.7577,-3.7577,-3.7577,-3.7577,-3.7577,-3.7577,-3.7577,-3.7577,-3.7577,-3.7577,-3.7577,-3.7577,-3.7577,-3.7577,-3.7577,-3.7774,-3.8542,-3.9542,-4.0226,-4.0894,-4.1998,-4.2763,-4.2858,-4.3132,-4.3695,-4.453,-4.5247,-4.6091,-4.6501,-4.6862,-4.7277,-4.7457,-4.7385,-4.7428,-4.7578,-4.7657,-4.7699,-4.7699,-4.7699,-4.7699,-4.7699,-4.7663,-4.7663,-4.7609,-4.7627,-4.7699,-4.7699,-4.7373,-4.7391,-4.7446,-4.721,-4.6939,-4.6595,-3.2055,-3.22,-3.286,-3.3241,-3.3382,-3.3312,-3.3241,-3.3312,-3.3241,-3.3213,-3.3437,-3.4432,-3.5145,-3.571,-3.6089,-3.6072,-3.6117,-3.6211,-3.6289,-3.6414,-3.6367,-3.6429,-3.6492,-3.6492,-3.6554,-3.6554,-3.66,-3.6723,-3.6923,-3.6739,-3.6616,-3.6492,-3.6492,-3.6492,-3.6616,-3.68,-3.7165,-3.7373,-3.7669,-3.7976,-3.8148,-3.8335,-3.8408,-3.8464,-3.852,-3.856,-3.8766,-3.8793,-3.8656,-3.805,-3.7334,-3.7092,-3.6999,-3.6991,-3.694,-3.6794,-3.6908,-3.7066,-3.722,-3.7259,-3.7354,-3.7466,-3.754,-3.754,-3.7577,-3.7577,-3.7577,-3.7577,-3.7577,-3.7577,-3.7577,-3.7577,-3.7577,-3.7577,-3.7577,-3.7577,-3.7577,-3.7594,-3.8558,-3.9646,-4.0238,-4.0799,-4.1615,-4.2415,-4.2907,-4.318,-4.3873,-4.469,-4.5562,-4.6445,-4.7145,-4.7247,-4.7428,-4.7536,-4.7536,-4.7554,-4.7615,-4.7657,-4.7699,-4.7699,-4.7699,-4.7699,-4.7699,-4.7699,-4.7699,-4.7699,-4.7699,-4.7699,-4.7699,-4.7699,-4.7681,-4.7645,-4.7591,-4.7391,-4.7518,-3.1649,-3.2128,-3.2632,-3.2646,-3.2503,-3.2717,-3.2646,-3.2417,-3.2359,-3.2345,-3.2475,-3.2605,-3.3325,-3.4618,-3.5044,-3.5124,-3.5204,-3.5415,-3.5688,-3.5816,-3.5879,-3.6163,-3.6289,-3.6226,-3.6274,-3.6352,-3.6414,-3.6554,-3.6677,-3.6554,-3.6492,-3.6492,-3.6492,-3.6492,-3.6554,-3.68,-3.6999,-3.721,-3.7314,-3.761,-3.7786,-3.8017,-3.8335,-3.8391,-3.8391,-3.8448,-3.843,-3.8253,-3.7974,-3.7472,-3.687,-3.6502,-3.6395,-3.6422,-3.6502,-3.6591,-3.6708,-3.6869,-3.6987,-3.7027,-3.7182,-3.7317,-3.7354,-3.7429,-3.7466,-3.754,-3.7577,-3.7577,-3.7577,-3.7577,-3.7577,-3.7577,-3.7577,-3.7577,-3.7577,-3.7577,-3.7577,-3.7684,-3.813,-3.9022,-3.9736,-4.0474,-4.1321,-4.2085,-4.2735,-4.3264,-4.4227,-4.5066,-4.5635,-4.6631,-4.7699,-4.7657,-4.7615,-4.7657,-4.7657,-4.7657,-4.7657,-4.7699,-4.7699,-4.7699,-4.7699,-4.7699,-4.7699,-4.7699,-4.7699,-4.7699,-4.7699,-4.7699,-4.7699,-4.7699,-4.7699,-4.7699,-4.7699,-4.7699,-4.7699]}]]